[[{"header":{"parameterUnit":"m.s-1","parameterCategory":1,"la1":30.6,"la2":29.2853,"lo1":-89.7004,"lo2":-87.6739,"dy":0.0162,"dx":0.0183,"nx":112,"ny":82,"refTime":"2024-06-19T12:00:00:Z","depth":0,"parameterNumber":2,"parameterNumberName":"U-component_of_WINDS"},"data":[0.0,0.0,0.0,0.0,0.0,0.0,0.0,0.0,0.0,0.0,0.0,0.0,0.0,0.0,0.0,0.0,0.0,0.0,0.0,0.0,0.0,0.0,0.0,0.0,0.0,0.0,0.0,0.0,0.0,0.0,0.0,0.0,0.0,0.0,0.0,0.0,0.0,0.0,0.0,0.0,0.0,0.0,0.0,0.0,0.0,0.0,0.0,0.0,0.0,0.0,0.0,0.0,0.0,0.0,0.0,0.0,0.0,0.0,0.0,0.0,0.0,0.0,0.0,0.0,0.0,0.0,0.0,0.0,0.0,0.0,0.0,0.0,0.0,0.0,0.0,0.0,0.0,0.0,0.0,0.0,0.0,0.0,0.0,0.0,0.0,0.0,0.0,0.0,0.0,0.0,1.539,1.7332,1.9913,2.1474,2.1402,2.0351,1.8863,1.6861,0.0,0.0,0.0,0.0,0.0,0.0,0.0,0.0,0.0,0.0,0.0,0.0,0.0,0.0,0.0,0.0,0.0,0.0,0.0,0.0,0.0,0.0,0.0,0.0,0.0,0.0,0.0,0.0,0.0,0.0,0.0,0.0,0.0,0.0,0.0,0.0,0.0,0.0,0.0,0.0,0.0,0.0,0.0,0.0,0.0,0.0,0.0,0.0,0.0,0.0,0.0,0.0,0.0,0.0,0.0,0.0,0.0,0.0,0.0,0.0,0.0,0.0,0.0,0.0,0.0,0.0,0.0,0.0,0.0,0.0,0.0,0.0,0.0,0.0,0.0,0.0,0.0,0.0,0.0,0.0,0.0,0.0,0.0,0.0,0.0,0.0,0.0,0.0,0.0,0.0,0.0,0.0,0.0,0.0,0.0,0.0,0.0,0.0,0.0,0.0,0.0,0.0,0.0,0.0,1.5134,1.9071,2.0336,2.0795,2.0532,1.9488,1.8047,1.608,0.0,0.0,0.0,0.0,0.0,0.0,0.0,0.0,0.0,0.0,0.0,0.0,0.0,0.0,0.0,0.0,0.0,0.0,0.0,0.0,0.0,0.0,0.0,0.0,0.0,0.0,0.0,0.0,0.0,0.0,0.0,0.0,0.0,0.0,0.0,0.0,0.0,0.0,0.0,0.0,0.0,0.0,0.0,0.0,0.0,0.0,0.0,0.0,0.0,0.0,0.0,0.0,0.0,0.0,0.0,0.0,0.0,0.0,0.0,0.0,0.0,0.0,0.0,0.0,0.0,0.0,0.0,0.0,0.0,0.0,0.0,0.0,0.0,0.0,0.0,0.0,0.0,0.0,0.0,0.0,0.0,0.0,0.0,0.0,0.0,0.0,0.0,0.0,0.0,0.0,0.0,0.0,0.0,0.0,0.0,0.0,0.0,0.0,0.0,0.0,0.0,0.0,0.0,1.4772,1.6384,1.9814,2.0359,2.042,2.0253,1.9299,1.795,1.6237,1.4099,0.0,0.0,0.0,0.0,0.0,0.0,0.0,0.0,0.0,0.0,0.0,0.0,0.0,0.0,0.0,0.0,0.0,0.0,0.0,0.0,0.0,0.0,0.0,0.0,0.0,0.0,0.0,0.0,0.0,0.0,0.0,0.0,0.0,0.0,0.0,0.0,0.0,0.0,0.0,0.0,0.0,0.0,0.0,0.0,0.0,0.0,0.0,0.0,0.0,0.0,0.0,0.0,0.0,0.0,0.0,0.0,0.0,0.0,0.0,0.0,0.0,0.0,0.0,0.0,0.0,0.0,0.0,0.0,0.0,0.0,0.0,0.0,0.0,0.0,0.0,0.0,0.0,0.0,0.0,0.0,0.0,0.0,0.0,0.0,0.0,0.0,0.0,0.0,0.0,0.0,0.0,0.0,0.0,0.0,0.0,0.0,0.0,0.0,0.0,0.0,0.0,0.0,1.653,1.7793,2.002,2.0154,2.0085,2.0085,1.9024,1.7743,1.6356,1.3823,0.0,0.0,0.0,0.0,0.0,0.0,0.0,0.0,0.0,0.0,0.0,0.0,0.0,0.0,0.0,0.0,0.0,0.0,0.0,0.0,0.0,0.0,0.0,0.0,0.0,0.0,0.0,0.0,0.0,0.0,0.0,0.0,0.0,0.0,0.0,0.0,0.0,0.0,0.0,0.0,0.0,0.0,0.0,0.0,0.0,0.0,0.0,0.0,0.0,0.0,0.0,0.0,0.0,0.0,0.0,0.0,0.0,0.0,0.0,0.0,0.0,0.0,0.0,0.0,0.0,0.0,0.0,0.0,0.0,0.0,0.0,0.0,0.0,0.0,0.0,0.0,0.0,0.0,0.0,0.0,0.0,0.0,0.0,0.0,0.0,0.0,0.0,0.0,0.0,0.0,0.0,0.0,0.0,0.0,0.0,0.0,0.0,0.0,0.0,0.0,0.0,0.0,1.6471,1.8607,1.9732,1.9767,1.9744,1.9744,1.824,1.6895,1.5893,1.3063,0.0,0.0,0.0,0.0,0.0,0.0,0.0,0.0,0.0,0.0,0.0,0.0,0.0,0.0,0.0,0.0,0.0,0.0,0.0,0.0,0.0,0.0,0.0,0.0,0.0,0.0,0.0,0.0,0.0,0.0,0.0,0.0,0.0,0.0,0.0,0.0,0.0,0.0,0.0,0.0,0.0,0.0,0.0,0.0,0.0,0.0,0.0,0.0,0.0,0.0,0.0,0.0,0.0,0.0,0.0,0.0,0.0,0.0,0.0,0.0,0.0,0.0,0.0,0.0,0.0,0.0,0.0,0.0,0.0,0.0,0.0,0.0,0.0,0.0,0.0,0.0,0.0,0.0,0.0,0.0,0.0,0.0,0.0,0.0,0.0,0.0,0.0,0.0,0.0,0.0,0.0,0.0,0.0,0.0,0.0,0.0,0.0,0.0,0.0,0.0,0.0,0.0,1.5846,1.7406,0.0,1.949,1.9417,1.9334,1.8398,1.7015,1.5106,0.0,0.0,0.0,0.0,0.0,0.0,0.0,0.0,0.0,0.0,0.0,0.0,0.0,0.0,0.0,0.0,0.0,0.0,0.0,0.0,0.0,0.0,0.0,0.0,0.0,0.0,0.0,0.0,0.0,0.0,0.0,0.0,0.0,0.0,0.0,0.0,0.0,0.0,0.0,0.0,0.0,0.0,0.0,0.0,0.0,0.0,0.0,0.0,0.0,0.0,0.0,0.0,0.0,0.0,0.0,0.0,0.0,0.0,0.0,0.0,0.0,0.0,0.0,0.0,0.0,0.0,0.0,0.0,0.0,0.0,0.0,0.0,0.0,0.0,0.0,0.0,0.0,0.0,0.0,0.0,0.0,0.0,0.0,0.0,0.0,0.0,0.0,0.0,0.0,0.0,0.0,0.0,0.0,0.0,0.0,0.0,0.0,0.0,0.0,0.0,0.0,0.0,1.475,1.5787,1.7109,0.0,1.9391,1.9278,1.9195,1.8226,1.676,1.4681,0.0,0.0,0.0,0.0,0.0,0.0,0.0,0.0,0.0,0.0,0.0,0.0,0.0,0.0,0.0,0.0,0.0,0.0,0.0,0.0,0.0,0.0,0.0,0.0,0.0,0.0,0.0,0.0,0.0,0.0,0.0,0.0,0.0,0.0,0.0,0.0,0.0,0.0,0.0,0.0,0.0,0.0,0.0,0.0,0.0,0.0,0.0,0.0,0.0,0.0,0.0,0.0,0.0,0.0,0.0,0.0,0.0,0.0,0.0,0.0,0.0,0.0,0.0,0.0,0.0,0.0,0.0,0.0,0.0,0.0,0.0,0.0,0.0,0.0,0.0,0.0,0.0,0.0,0.0,0.0,0.0,0.0,0.0,0.0,0.0,0.0,0.0,0.0,0.0,0.0,0.0,0.0,0.0,0.0,0.0,0.0,0.0,0.0,0.0,0.0,0.0,0.0,1.486,1.6586,1.8106,1.9444,1.9483,1.9409,1.9409,1.7546,1.5933,0.0,0.0,0.0,0.0,0.0,0.0,0.0,0.0,0.0,0.0,0.0,0.0,0.0,0.0,0.0,0.0,0.0,0.0,0.0,0.0,0.0,0.0,0.0,0.0,0.0,0.0,0.0,0.0,0.0,0.0,0.0,0.0,0.0,0.0,0.0,0.0,0.0,0.0,0.0,0.0,0.0,0.0,0.0,0.0,0.0,0.0,0.0,0.0,0.0,0.0,0.0,0.0,0.0,0.0,0.0,0.0,0.0,0.0,0.0,0.0,0.0,0.0,0.0,0.0,0.0,0.0,0.0,0.0,0.0,0.0,0.0,0.0,0.0,0.0,0.0,0.0,0.0,0.0,0.0,0.0,0.0,0.0,0.0,0.0,0.0,0.0,0.0,0.0,0.0,0.0,0.0,0.0,0.0,0.0,0.0,0.0,0.0,0.0,0.0,0.0,0.0,0.0,0.0,1.5606,1.734,1.8702,1.9513,1.9556,1.9501,1.9419,1.7974,1.6167,1.3983,0.0,0.0,0.0,0.0,0.0,0.0,0.0,0.0,0.0,0.0,0.0,0.0,0.0,0.0,0.0,0.0,0.0,0.0,0.0,0.0,0.0,0.0,0.0,0.0,0.0,0.0,0.0,0.0,0.0,0.0,0.0,0.0,0.0,0.0,0.0,0.0,0.0,0.0,0.0,0.0,0.0,0.0,0.0,0.0,0.0,0.0,0.0,0.0,0.0,0.0,0.0,0.0,0.0,0.0,0.0,0.0,0.0,0.0,0.0,0.0,0.0,0.0,0.0,0.0,0.0,0.0,0.0,0.0,0.0,0.0,0.0,0.0,0.0,0.0,0.0,0.0,0.0,0.0,0.0,0.0,0.0,0.0,0.0,0.0,0.0,0.0,0.0,0.0,0.0,0.0,0.0,0.0,0.0,0.0,0.0,0.0,0.0,0.0,0.0,0.0,0.0,0.0,1.5819,1.7618,1.8945,1.9567,1.9647,1.962,1.9517,1.8228,1.6425,1.4054,0.0,0.0,0.0,0.0,0.0,0.0,0.0,0.0,0.0,0.0,0.0,0.0,0.0,0.0,0.0,0.0,0.0,0.0,0.0,0.0,0.0,0.0,0.0,0.0,0.0,0.0,0.0,0.0,0.0,0.0,0.0,0.0,0.0,0.0,0.0,0.0,0.0,0.0,0.0,0.0,0.0,0.0,0.0,0.0,0.0,0.0,0.0,0.0,0.0,0.0,0.0,0.0,0.0,0.0,0.0,0.0,0.0,0.0,0.0,0.0,0.0,0.0,0.0,0.0,0.0,0.0,0.0,0.0,0.0,0.0,0.0,0.0,0.0,0.0,0.0,0.0,0.0,0.0,0.0,0.0,0.0,0.0,0.0,0.0,0.0,0.0,0.0,0.0,0.0,0.0,0.0,0.0,0.0,0.0,0.0,0.0,0.0,0.0,0.0,0.0,0.0,0.0,1.5711,1.7623,1.904,1.9648,1.9717,1.9717,1.9717,1.8416,1.6737,1.4663,0.0,0.0,0.0,0.0,0.0,0.0,0.0,0.0,0.0,0.0,0.0,0.0,0.0,0.0,0.0,0.0,0.0,0.0,0.0,0.0,0.0,0.0,0.0,0.0,0.0,0.0,0.0,0.0,0.0,0.0,0.0,0.0,0.0,0.0,0.0,0.0,0.0,0.0,0.0,0.0,0.0,0.0,0.0,0.0,0.0,0.0,0.0,0.0,0.0,0.0,0.0,0.0,0.0,0.0,0.0,0.0,0.0,0.0,0.0,0.0,1.2941,1.2326,0.0,0.0,0.0,0.0,0.0,0.0,0.0,0.0,0.0,0.0,0.0,0.0,0.0,0.0,0.0,0.0,0.0,0.0,0.0,0.0,0.0,0.0,0.0,0.0,0.0,0.0,0.0,0.0,0.0,0.0,0.0,0.0,0.0,0.0,0.0,0.0,0.0,0.0,0.0,0.0,1.5914,1.8144,1.9629,1.9771,1.978,1.978,1.978,1.8898,1.7381,1.5122,1.3525,0.0,0.0,0.0,0.0,0.0,0.0,0.0,0.0,0.0,0.0,0.0,0.0,0.0,0.0,0.0,0.0,0.0,0.0,0.0,0.0,0.0,0.0,0.0,0.0,0.0,0.0,0.0,0.0,0.0,0.0,0.0,0.0,0.0,0.0,0.0,0.0,0.0,0.0,0.0,0.0,0.0,0.0,0.0,0.0,0.0,0.0,0.0,0.0,0.0,0.0,0.0,0.0,0.0,0.0,0.0,0.0,0.0,0.0,0.0,1.5152,1.4473,0.0,0.0,0.0,0.0,0.0,0.0,0.0,0.0,0.0,0.0,0.0,0.0,0.0,0.0,0.0,0.0,0.0,0.0,0.0,0.0,0.0,0.0,0.0,0.0,0.0,0.0,0.0,0.0,0.0,0.0,0.0,0.0,0.0,0.0,0.0,0.0,0.0,0.0,0.0,0.0,1.6257,1.8411,1.9815,1.9878,1.9833,1.9797,1.9797,1.8824,1.7452,1.568,1.3962,0.0,0.0,0.0,0.0,0.0,0.0,0.0,0.0,0.0,0.0,0.0,0.0,0.0,0.0,0.0,0.0,0.0,0.0,0.0,0.0,0.0,0.0,0.0,0.0,0.0,0.0,0.0,0.0,0.0,0.0,0.0,0.0,0.0,0.0,0.0,0.0,0.0,0.0,0.0,0.0,0.0,0.0,0.0,0.0,0.0,0.0,0.0,0.0,0.0,0.0,0.0,0.0,0.0,2.1506,2.0991,2.0252,2.0152,2.0225,2.032,1.7964,1.7418,1.8023,1.6316,0.0,0.0,0.0,0.0,0.0,0.0,0.0,0.0,0.0,0.0,0.0,0.0,0.0,0.0,0.0,0.0,0.0,0.0,0.0,0.0,0.0,0.0,1.6305,1.7771,1.7972,1.7186,1.4809,0.0,0.0,0.0,0.0,0.0,0.0,0.0,0.0,0.0,0.0,0.0,1.6795,1.8646,1.9869,2.0014,1.9926,1.9824,1.9797,1.876,1.7592,1.6336,1.4538,1.2667,0.0,0.0,0.0,0.0,0.0,0.0,0.0,0.0,0.0,0.0,0.0,0.0,0.0,0.0,0.0,0.0,0.0,0.0,0.0,0.0,0.0,0.0,0.0,0.0,0.0,0.0,0.0,0.0,0.0,0.0,0.0,0.0,1.2742,1.4149,0.0,0.0,0.0,0.0,0.0,0.0,0.0,0.0,0.0,0.0,0.0,0.0,0.0,1.8715,2.1251,2.2635,2.3513,2.3874,2.3556,2.3493,2.3655,2.3626,2.3244,2.2585,2.2214,0.0,1.944,1.8155,0.0,0.0,0.0,0.0,0.0,0.0,0.0,0.0,0.0,0.0,0.0,0.0,0.0,0.0,0.0,0.0,0.0,0.0,0.0,0.0,0.0,0.0,2.0105,1.9789,2.0106,2.0134,1.8846,1.6833,1.5174,1.4813,1.3812,1.289,0.0,0.0,0.0,0.0,0.0,0.0,1.7715,1.9112,1.9984,2.008,2.0001,1.9943,1.9806,1.9531,1.8637,1.6987,1.6082,1.4529,1.215,1.0937,0.0,0.0,0.0,0.0,0.0,0.0,0.0,0.0,0.0,0.0,0.0,0.0,0.0,0.0,0.0,0.0,0.0,0.0,0.0,0.0,0.0,0.0,0.0,0.0,0.0,0.0,0.0,0.0,0.0,1.2831,1.477,1.6395,1.653,1.6363,0.0,0.0,0.0,0.0,0.0,0.0,0.0,0.0,0.0,2.0888,2.1234,2.2081,2.3459,2.504,2.5725,2.5532,2.5165,2.5093,2.532,2.5557,2.5454,2.5071,2.4848,2.4204,2.3122,2.0419,1.8629,1.7632,0.0,0.0,0.0,0.0,1.7448,1.7122,1.8439,1.8232,1.7414,1.7326,0.0,0.0,0.0,0.0,0.0,0.0,0.0,1.6944,1.7728,1.9203,2.062,2.1117,2.1482,2.1604,2.114,1.9835,1.8205,1.6226,1.5737,1.5171,1.369,1.3699,0.0,0.0,0.0,1.6994,1.7962,1.8827,1.9378,1.9579,1.9515,1.9536,1.9683,1.9092,1.8218,1.7123,1.6184,1.4888,1.3157,1.2069,1.0973,0.0,0.0,0.0,0.0,0.0,0.0,0.0,0.0,0.0,0.0,0.0,0.0,0.0,0.0,0.0,0.0,0.0,0.0,0.0,0.0,0.0,0.0,0.0,0.0,0.0,0.0,0.0,0.0,1.4839,1.6505,1.8552,1.8838,1.8832,0.0,0.0,0.0,0.0,0.0,0.0,2.1852,2.193,2.2454,2.3636,2.4071,2.4591,2.5227,2.6223,2.6665,2.6474,2.6077,2.5996,2.6251,2.6562,2.6769,2.6857,2.6543,2.6149,2.553,2.2616,2.0914,2.0299,2.1799,2.1765,2.0927,2.1213,2.0677,2.0035,2.1762,2.1434,2.0206,2.0144,1.9293,1.8005,1.6395,0.0,0.0,0.0,0.0,1.7908,1.9333,2.0118,2.0802,2.1854,2.2153,2.2172,2.2074,2.1645,2.0519,1.792,1.7667,1.7268,1.5303,1.5419,0.0,1.5625,1.6655,1.7641,1.8225,1.8578,1.8855,1.9024,1.8978,1.8988,1.9204,1.8471,1.7747,1.7101,1.6267,1.532,1.419,1.3111,1.2078,1.1071,0.0,0.0,0.0,0.0,0.0,0.0,0.0,0.0,0.0,0.0,0.0,0.0,0.0,0.0,0.0,0.0,0.0,0.0,0.0,0.0,0.0,0.0,0.0,0.0,0.0,0.0,0.0,0.0,0.0,2.0919,2.2221,0.0,0.0,0.0,0.0,2.0841,2.1764,2.2948,2.4168,2.4527,2.5372,2.683,2.6048,2.5872,2.6424,2.6104,2.6121,2.6494,2.5962,2.6057,2.6679,2.6679,2.6902,2.7263,2.7255,2.6338,2.4826,2.4505,2.3829,2.3094,2.4154,2.4024,2.3235,2.3267,2.2899,2.243,2.2528,2.2165,2.1888,2.3637,2.3269,2.1996,2.1326,2.0232,0.0,0.0,1.9969,2.0546,2.0748,2.1313,2.1837,2.1899,2.192,2.1812,2.1437,2.1126,2.0837,2.0542,1.9496,1.8549,1.8209,0.0,1.7053,1.7978,1.7911,1.8008,1.8684,1.8798,1.876,1.8655,1.8502,1.8347,1.8181,1.8078,1.771,1.7058,1.6954,1.6436,1.5371,1.4171,1.3134,1.2337,1.0602,0.0,0.0,0.0,0.0,0.0,0.0,0.0,0.0,0.0,0.0,0.0,0.0,0.0,0.0,0.0,0.0,0.0,0.0,0.0,0.0,0.0,0.0,0.0,0.0,0.0,0.0,0.0,0.0,2.2892,2.3317,0.0,2.3067,2.3418,2.3712,2.3841,2.4599,2.5364,2.6034,2.6187,2.6196,2.6065,2.6164,2.6129,2.599,2.6268,2.6489,2.6641,2.6711,2.6582,2.631,2.5824,2.5674,2.581,2.581,2.5772,2.5687,2.5521,2.4957,2.4267,2.4613,2.456,2.4289,2.4246,2.39,2.3497,2.3825,2.3392,2.2736,2.3082,2.2618,2.1862,2.1733,2.1248,2.0653,2.0423,2.0688,2.1036,2.1129,2.1563,2.2062,2.2456,2.2544,2.25,2.2355,2.2015,2.1562,2.0951,2.0147,1.9524,1.9267,1.8672,1.8271,1.8418,1.8181,1.8017,1.8139,1.8016,1.7935,1.8018,1.7988,1.7961,1.802,1.773,1.7384,1.7011,1.6348,1.5749,1.5306,1.4148,1.325,1.2616,1.1299,1.0117,0.0,0.0,0.0,0.0,0.0,0.0,0.0,0.0,0.0,0.0,0.0,0.0,0.0,0.0,0.0,0.0,0.0,0.0,0.0,0.0,0.0,0.0,0.0,0.0,0.0,1.9613,2.1604,2.3695,2.4184,2.4347,2.442,2.4954,2.5465,2.5965,2.6245,2.6514,2.684,2.6838,2.6646,2.6224,2.6625,2.6784,2.6654,2.6886,2.7006,2.6992,2.7102,2.6832,2.6329,2.5832,2.5601,2.5601,2.5601,2.5914,2.6402,2.6267,2.5916,2.5465,2.5465,2.5465,2.545,2.5215,2.4873,2.4566,2.4513,2.4319,2.4036,2.3508,2.3076,2.2754,2.2844,2.2471,2.194,2.1618,2.1711,2.189,2.1931,2.2173,2.2446,2.259,2.2628,2.2548,2.2315,2.2018,2.1624,2.0984,2.045,1.9993,1.9695,1.9267,1.9014,1.9186,1.8562,1.8109,1.8249,1.7725,1.7381,1.7458,1.7468,1.7519,1.7605,1.7338,1.7089,1.69,1.6237,1.5701,1.5344,1.4455,1.3698,1.3089,1.181,1.0694,0.9797,0.0,0.0,0.0,0.0,0.0,0.0,0.0,0.0,0.0,0.0,0.0,0.0,0.0,0.0,0.0,0.0,0.0,0.0,0.0,0.0,0.0,0.0,0.0,1.8182,2.0226,2.2091,2.3366,2.4885,2.5753,2.5493,2.6375,2.6944,2.6944,2.6612,2.6454,2.6548,2.6541,2.6861,2.7583,2.7585,2.786,2.8453,2.7866,2.7575,2.7575,2.7066,2.6806,2.6806,2.6806,2.6806,2.6806,2.6806,2.6806,2.6833,2.6833,2.6833,2.6833,2.6806,2.6806,2.674,2.6131,2.5929,2.5766,2.4598,2.4957,2.5838,2.526,2.5048,2.5048,2.5048,2.4236,2.3297,2.3283,2.3256,2.3229,2.3189,2.3189,2.3,2.2264,2.2104,2.1892,2.1181,2.1023,2.0986,2.0834,2.0419,2.0004,1.9598,1.9178,1.9292,2.0394,1.9103,0.0,1.9059,1.8011,1.7173,1.701,1.7,1.6968,1.6931,1.692,1.6857,1.6707,1.6671,1.6344,1.5626,1.5146,1.4537,1.381,1.2119,1.1059,1.0638,0.0,0.0,0.0,0.0,0.0,0.0,0.0,0.0,0.0,0.0,0.0,0.0,0.0,0.0,0.0,0.0,0.0,0.0,0.0,0.0,0.0,1.821,1.9732,1.9304,2.1095,2.2831,2.3758,2.4548,2.4987,2.4936,2.5592,2.6062,2.6062,2.6396,2.6806,2.7286,2.7302,2.7382,2.7584,2.7598,2.7494,2.7262,2.7098,2.7036,2.7036,2.7305,2.7228,2.6806,2.7255,2.7201,2.6806,2.6806,2.7065,2.7445,2.7445,2.7705,2.803,2.7147,2.6806,2.6779,2.6604,2.655,2.6496,2.6156,2.6274,2.653,2.6366,2.6211,2.6096,2.6255,2.597,2.5491,2.4945,2.4488,2.3992,2.3315,2.2852,2.2497,2.2285,2.2233,2.2193,2.1996,2.1707,2.1456,2.1225,2.0704,2.0323,2.0286,1.9728,1.9409,1.9807,1.902,1.8295,1.8146,1.7872,1.7562,1.7188,1.7235,1.7246,1.7126,1.7021,1.6899,1.6707,1.5789,1.5372,1.5591,1.4625,1.3961,1.3664,1.2983,1.2365,0.0,0.0,0.0,0.0,0.0,0.0,0.0,0.0,0.0,0.0,0.0,0.0,0.0,0.0,0.0,0.0,0.0,0.0,0.0,0.0,0.0,0.0,1.9778,2.1026,2.0937,2.2451,2.3762,2.4234,2.4783,2.511,2.511,2.5946,2.6493,2.6493,2.7102,2.7501,2.7597,2.7597,2.7626,2.7639,2.7636,2.7608,2.7554,2.7554,2.7554,2.7554,2.7922,2.7895,2.7554,2.7922,2.7895,2.7554,2.7554,2.7759,2.8085,2.8085,2.8275,2.8519,0.0,0.0,0.0,0.0,2.6904,2.6673,2.6612,2.6597,2.6597,2.6597,2.6493,2.6432,2.6566,2.6493,2.6348,2.591,2.5533,2.5116,2.4578,2.416,2.3762,2.3455,2.3332,2.3131,2.2582,2.2289,2.1952,2.1326,2.0939,0.0,2.0474,1.9938,1.9708,2.0114,1.9344,1.8726,1.8785,1.817,1.7679,1.7505,1.7334,1.7225,1.7199,1.7126,0.0,0.0,0.0,1.5643,1.5683,1.4719,0.0,0.0,0.0,0.0,0.0,1.3185,0.0,0.0,1.2539,1.2705,0.0,0.0,0.0,0.0,0.0,0.0,0.0,0.0,0.0,0.0,0.0,0.0,0.0,0.0,0.0,0.0,2.0684,2.1667,2.2713,2.3894,2.4622,2.464,2.5232,2.5661,2.5734,2.677,2.7448,2.7506,2.801,2.8082,2.7512,2.7496,0.0,0.0,0.0,2.7819,2.8346,2.8346,2.833,2.8314,2.8314,2.8314,2.8281,2.8281,2.8281,2.8281,2.8281,2.8281,2.8281,2.8281,2.8281,2.8314,2.8536,2.8616,2.8503,2.7802,2.7185,2.6681,2.6558,0.0,0.0,2.6507,2.6507,2.6465,2.6507,2.6507,2.645,2.6434,2.6392,2.6339,2.6308,2.61,2.5771,2.5099,2.4827,2.4375,2.3215,2.2893,2.2509,2.1537,2.1218,2.0924,2.0399,2.0041,2.0055,2.0783,1.9872,1.9354,2.0069,1.8697,1.7736,1.7852,1.7435,0.0,1.7188,1.7199,1.7115,1.6931,1.6899,1.6559,1.583,1.5216,1.4937,1.4975,1.4927,1.4829,1.4696,1.51,1.5073,1.4561,1.3526,1.3663,0.0,0.0,0.0,0.0,0.0,0.0,0.0,0.0,0.0,0.0,0.0,0.0,0.0,0.0,0.0,2.1563,2.2868,2.3738,2.3957,2.4121,2.4255,2.4351,2.4914,2.5439,2.5823,2.6198,2.6544,2.6936,2.7058,2.7045,2.6807,2.6802,2.6745,2.6646,2.6663,2.6714,2.6824,2.6824,2.6739,2.6578,2.6578,0.0,2.633,2.633,2.633,2.633,2.633,2.633,2.633,2.633,2.633,2.6484,2.7993,2.8616,2.8573,2.8432,2.8201,2.7964,2.7905,2.7835,2.7749,2.7749,2.7652,2.7544,2.77,2.7652,0.0,2.7298,2.6967,2.6552,2.6304,2.5829,2.5395,2.5276,2.5203,2.5063,2.4702,2.3984,2.3339,2.3018,2.1942,2.1052,2.095,2.0398,2.0016,2.0182,1.9864,1.9535,1.928,1.9039,1.8592,1.7811,1.7771,1.7631,1.7214,1.7199,1.7136,1.6979,1.6835,1.6433,1.5749,1.5999,1.5942,1.5461,1.5855,1.5806,1.5252,1.5772,1.5903,1.5695,1.5358,1.5122,0.0,0.0,0.0,0.0,0.0,0.0,0.0,0.0,0.0,0.0,0.0,1.7674,1.9624,0.0,2.0991,2.2289,2.3044,2.3542,2.3776,2.3748,2.3855,2.4263,2.4344,2.4521,2.4838,2.5252,2.5599,2.582,2.6129,2.6266,2.6215,2.6198,2.6156,2.6097,2.6114,2.6114,2.6097,2.6097,2.6045,2.5958,2.5958,2.5906,2.5795,2.5795,2.5795,2.5795,2.5795,2.5795,2.5795,2.5795,2.5795,2.5881,2.685,2.7204,2.7187,2.7103,2.6993,2.6892,2.6833,2.6756,2.6756,2.7138,2.7188,2.7179,2.7656,2.7723,2.7623,2.7523,2.7298,2.7056,2.6891,2.6585,2.6287,2.6287,2.6,2.5621,2.5275,2.4812,2.4187,2.3269,2.27,2.2105,2.1325,2.0834,2.0449,2.0156,2.0003,1.9787,1.9523,1.9258,1.8928,1.8502,1.803,1.7701,1.7547,1.7261,1.7063,1.6989,1.6814,1.6549,1.6193,1.6392,1.6364,1.6057,1.6296,1.6289,1.5952,1.6182,1.6262,1.6197,1.6044,1.5792,0.0,0.0,0.0,0.0,0.0,0.0,0.0,1.5542,1.6182,1.8474,1.8865,1.9206,2.0634,2.0977,2.1367,2.2334,2.2553,2.2723,2.3104,2.309,2.324,2.3813,2.373,2.3704,2.3898,2.4526,2.4992,2.5056,2.5532,2.5725,2.5585,2.5585,2.5515,2.5381,2.5357,2.5357,2.5357,2.5357,2.534,2.5305,2.5305,2.5287,2.5252,2.5252,2.5252,2.5252,2.5252,2.5252,2.5252,2.5252,2.5252,2.5252,2.5252,2.5252,2.5269,2.548,2.5533,2.5498,2.5364,2.5317,2.5388,2.5983,2.6191,2.6294,2.6875,2.7087,2.7087,2.7087,2.7087,2.7121,2.7255,2.7205,2.7154,2.7289,2.6852,2.6257,2.5794,2.54,2.4778,2.3416,2.3098,2.2675,2.1495,2.0974,2.057,2.0105,1.9914,1.9785,1.9643,1.9155,1.8871,1.897,1.8084,1.754,1.7675,1.7271,1.6937,1.681,1.6661,1.6547,1.6396,1.6284,1.6241,1.6241,1.6241,1.6241,1.6241,1.6175,1.6132,1.611,1.61,1.606,1.4217,1.4822,1.5653,1.6794,1.6297,1.636,0.0,1.9385,1.905,2.0937,2.1228,2.1224,2.1521,2.1798,2.2006,2.2124,2.2412,2.2609,2.2683,2.2301,2.2141,2.2317,2.3198,2.3922,2.4309,2.4773,2.5257,2.5672,2.577,2.5498,2.4868,2.4814,2.451,2.3886,2.3849,2.3849,2.3849,2.3849,2.3776,2.3593,2.3593,2.3478,2.3313,2.3313,2.3313,2.3313,2.3313,2.3313,2.3313,2.3313,2.3313,2.3313,2.3313,2.3313,2.3515,2.5163,2.5655,2.5491,2.548,2.5399,2.53,2.5388,2.5406,2.5423,2.5511,2.5546,2.5546,2.5546,2.5546,2.5687,2.6346,2.65,2.6679,2.7323,2.7404,2.7285,2.7117,2.5815,2.4631,2.45,2.267,2.1123,2.119,2.0208,1.9419,1.9471,1.9383,1.9043,1.8404,1.8249,1.8213,1.8205,1.7757,1.7272,1.6954,1.6976,1.6746,1.6154,1.6137,1.5897,1.5311,1.5266,1.5266,1.5266,1.5266,1.5266,1.5266,1.5255,1.5187,1.5074,1.5474,1.6045,1.7076,1.7299,1.7471,1.8263,1.8377,1.8634,2.0042,2.0129,2.0239,2.1341,2.1736,2.1738,2.1359,2.1681,2.1865,2.1483,2.1855,2.206,2.1675,2.1305,2.0985,2.0677,2.0928,2.1648,2.3035,2.2995,2.3055,2.344,2.2984,2.2613,2.243,2.243,2.2357,2.2212,2.2212,2.2136,2.1964,2.1964,2.1926,2.185,2.185,2.1869,2.1947,2.1947,2.1947,2.1966,2.2327,2.2478,2.2496,2.2852,2.3001,2.3001,2.3001,2.3001,2.3094,2.3877,2.4113,2.4059,2.4059,2.4004,2.4027,2.4456,2.46,2.4689,2.5158,2.53,2.53,2.53,2.53,2.537,2.5669,2.5756,2.5844,2.6139,2.5959,2.5676,2.5608,2.5025,2.4347,2.38,2.3114,2.2313,2.1366,2.0727,1.9984,1.8816,1.8672,1.8555,1.8246,1.8161,1.799,1.7677,1.7491,1.7215,1.6715,1.6557,1.6359,1.6075,1.5777,1.5499,1.522,1.5142,1.5097,1.5097,1.5097,1.5097,1.5097,1.5372,1.5475,1.5428,1.5795,1.6244,1.8602,1.8807,1.8814,1.9095,1.9646,2.0101,2.0026,2.0275,2.0699,2.1213,2.154,2.1539,2.1026,2.1237,2.1336,2.085,2.1061,2.1063,2.0476,2.0195,1.9843,1.9368,1.9182,1.9748,2.1433,2.1237,2.111,2.1431,2.0895,2.0644,2.0779,2.0875,2.0991,2.1203,2.1203,2.1107,2.0914,2.0914,2.0914,2.0914,2.0914,2.101,2.1203,2.1203,2.1203,2.1222,2.1643,2.1854,2.1911,2.2515,2.274,2.2777,2.2945,2.3001,2.3001,2.3001,2.3001,2.3001,2.3001,2.3001,2.3094,2.3621,2.3804,2.3913,2.4497,2.4659,2.4659,2.4659,2.4659,2.4713,2.4927,2.4981,2.5034,2.5247,2.4976,2.4654,2.4654,2.4378,2.3947,2.3328,2.3202,2.2765,2.1474,2.0963,2.0153,1.8607,1.8135,1.79,1.7779,1.782,1.7657,1.7096,1.7243,1.7136,1.6589,1.6349,1.6181,1.6001,1.5544,1.5211,1.5038,1.4821,1.4764,1.4886,1.4886,1.4941,1.5075,1.541,1.5564,1.5539,1.5838,1.6125,1.7693,1.8494,1.9374,1.9399,1.9734,2.0179,2.0507,2.0495,2.0504,2.0851,2.0805,2.0732,2.07,2.0561,2.0432,2.0416,2.0011,1.9561,1.9193,1.8977,1.8767,1.8549,1.8694,1.9073,1.9808,2.0092,2.0324,2.0527,2.0702,2.0798,2.0798,2.1049,2.1203,2.1203,2.1203,2.1203,2.1184,2.1184,2.1184,2.1184,2.1184,2.1203,2.1203,2.1203,2.1203,2.1203,2.1222,2.1242,2.1261,2.1892,2.212,2.2195,2.2777,2.3001,2.3001,2.3001,2.3001,2.3001,2.3001,2.3001,2.3001,2.3038,2.3038,2.3038,2.3057,2.3075,2.3075,2.3075,2.3075,2.322,2.395,2.4126,2.4325,2.5123,2.53,2.5258,2.5258,2.429,2.3517,2.3736,2.2479,2.1381,2.1388,2.0336,1.9359,1.9123,1.7895,1.6915,1.6507,1.6913,1.7017,1.6481,1.696,1.7047,1.646,1.6509,1.633,1.5745,1.5399,1.4931,1.4358,1.3884,1.3864,1.432,1.432,1.4549,1.4997,1.5018,1.4953,1.4835,1.5246,1.5361,1.7577,1.8516,1.9359,2.0041,2.0255,2.038,2.0717,2.0712,2.0525,2.0297,2.0133,1.995,1.9631,1.9372,1.9153,1.9025,1.9308,1.9349,1.877,1.8716,1.8487,1.7862,1.7746,1.777,1.7878,1.8413,1.9011,1.9651,1.9152,1.8978,1.9391,1.9627,1.9805,1.9942,1.9942,1.9883,1.9726,1.9726,1.9778,1.9877,2.0135,2.0216,2.0137,2.0137,2.0137,2.0158,2.0559,2.0738,2.0797,2.153,2.177,2.1666,2.2009,2.213,2.213,2.213,2.1968,2.1859,2.2695,2.3001,2.3001,2.3001,2.3001,2.3001,2.3001,2.3001,2.3001,2.3001,2.3001,2.3057,2.3313,2.3368,2.3442,2.3699,2.3772,2.3772,2.3772,2.3436,2.3113,2.3087,2.261,2.2057,2.1502,2.1027,2.0366,1.926,1.789,1.6841,1.645,1.6552,1.6595,1.6416,1.6581,1.6615,1.6427,1.6161,1.5924,1.5711,1.5295,1.499,1.4772,1.4614,1.4601,1.4759,1.4759,1.4842,1.5007,1.5297,1.5375,1.5212,1.5569,1.5721,1.7159,1.7917,1.8563,1.9435,1.9673,1.9852,2.0321,2.018,1.9836,1.9446,1.9188,1.8806,1.809,1.791,1.7843,1.7854,1.8285,1.8501,1.8066,1.8099,1.7784,1.6742,1.6526,1.6365,1.6054,1.6319,1.7203,1.8843,1.8503,1.8406,1.8774,1.8993,1.9172,1.9292,1.9377,1.935,1.9227,1.9171,1.9144,1.9162,1.9509,1.9572,1.9427,1.9427,1.9427,1.9448,1.9828,2.0056,2.0177,2.0831,2.1085,2.1081,2.1309,2.1424,2.1424,2.1424,2.1156,2.0993,2.1992,2.2225,2.2117,2.2117,2.2325,2.2569,2.2569,2.2756,2.3001,2.3001,2.3001,2.3001,2.3001,2.3001,2.3001,2.3001,2.3001,2.3001,2.3001,2.3001,2.2964,2.2833,2.2815,2.2595,2.198,2.1457,2.0701,1.9402,1.8222,1.729,1.6705,1.6492,1.6388,1.6388,1.6388,1.6388,1.6388,1.6119,1.5953,1.5953,1.5518,1.5248,1.5248,1.509,1.507,1.5248,1.5248,1.5318,1.5497,1.5808,1.5737,1.5339,1.5767,1.5691,1.6497,1.688,1.7216,1.7805,1.8217,1.8657,1.935,1.9007,1.8459,1.8282,1.7932,1.7284,1.6173,1.6194,1.6477,1.6761,1.6904,1.6984,1.6937,1.7004,1.6586,0.0,0.0,0.0,0.0,0.0,1.5087,1.8037,1.8556,1.8776,1.8812,1.9011,1.9111,1.9129,1.9324,1.9416,1.9416,1.9351,1.9226,1.9028,1.9303,1.9282,1.9028,1.9028,1.9007,1.8964,1.9007,1.9136,1.9354,1.9798,2.0117,2.0373,2.071,2.0817,2.0817,2.0817,2.0619,2.0386,2.0848,2.076,2.0469,2.0469,2.1029,2.1699,2.1699,2.2249,2.2852,2.2852,2.2889,2.2927,2.2908,2.2945,2.2964,2.2964,2.2964,2.2964,2.2983,2.2983,2.2983,2.3001,2.2983,2.2927,2.274,2.1618,2.0478,1.9628,1.8913,1.8108,1.7172,1.667,1.6429,1.6429,1.6409,1.6388,1.6388,1.6388,1.6388,1.6388,1.5974,1.5746,1.5746,1.5311,1.5277,1.5725,1.5698,1.5925,1.6388,1.6359,1.5937,1.5191,1.5758,1.5294,1.6285,1.7272,1.8151,1.8304,1.8305,1.8291,1.8316,1.784,1.7179,1.6337,1.5849,1.5239,1.4211,1.4389,1.4549,1.4094,1.4748,1.5147,1.4702,1.5038,0.0,1.4474,0.0,1.467,1.4216,1.4491,1.5097,1.6094,1.5796,1.5797,1.6305,1.6524,1.6695,1.6842,1.6885,1.693,1.693,1.7784,1.8195,1.8128,1.9083,1.9044,1.8128,1.8128,1.7712,1.7056,1.7801,1.8151,1.83,1.9301,1.9652,1.9612,1.9836,1.9934,1.9934,1.9934,1.9678,1.9375,1.9484,1.9766,2.006,2.006,2.0197,2.0391,2.0391,2.0624,2.0875,2.0721,2.126,2.1852,2.1642,2.208,2.2553,2.2553,2.2553,2.259,2.274,2.2777,2.2815,2.2964,2.2889,2.2759,2.2721,2.2005,2.137,2.1136,1.9999,1.8746,1.7662,1.713,1.6841,1.6841,1.6581,1.6388,1.6388,1.6388,1.6388,1.6388,1.6299,1.6222,1.6222,1.6098,1.6098,1.6222,1.5727,1.5773,1.6388,1.5894,1.5381,1.4816,1.4977,1.4462,1.6071,1.6775,1.7318,1.732,1.7152,1.6971,1.6802,1.6254,1.5513,1.4433,1.3989,1.3439,1.2288,1.2404,1.2631,1.2453,1.3059,0.0,1.3618,1.4074,1.4179,0.0,1.3747,0.0,1.3104,1.3458,1.3795,1.3926,1.4577,1.5161,1.5648,1.5763,1.5879,1.6008,1.6085,1.6116,1.6077,1.6847,1.7133,1.6926,1.7733,1.7695,1.6926,1.6926,1.6604,1.6105,1.6673,1.6995,1.7148,1.7702,1.8203,1.8594,1.8594,1.8874,1.9258,1.9258,1.9014,1.8683,1.8683,1.8813,1.9009,1.9176,1.9394,1.9589,1.9589,1.9838,2.0041,1.9943,2.0333,2.076,2.0624,2.0933,2.1298,2.1298,2.1298,2.1296,2.1263,2.1259,2.1235,2.1178,2.1081,2.0989,2.0989,2.0417,2.0024,2.0116,1.913,1.8161,1.752,1.6952,1.6618,1.6618,1.5979,1.5575,1.5575,1.5575,1.5575,1.5575,1.5575,1.5575,1.5575,1.5575,1.5575,1.5575,1.5191,1.5191,1.5561,1.5045,1.451,1.3957,1.4106,1.3565,1.5896,1.5929,1.5805,1.5805,1.5653,1.5436,1.5169,1.4609,1.3803,1.2685,1.2318,1.1797,1.0559,1.0561,1.088,1.131,0.0,1.215,1.2914,1.336,1.3337,1.2611,1.2689,1.2524,1.176,1.1931,1.2105,1.2137,1.4081,1.5349,1.5512,1.5525,1.5539,1.5559,1.5745,1.5813,1.5755,1.6038,1.6004,1.5615,1.5981,1.5957,1.5615,1.5615,1.5531,1.5412,1.5544,1.5721,1.5944,1.5839,1.6452,1.7428,1.7179,1.7731,1.8596,1.8596,1.85,1.8367,1.8367,1.8182,1.7978,1.823,1.8646,1.9002,1.8949,1.9257,1.9566,1.9491,1.959,1.9688,1.9649,1.9727,1.9825,1.9825,1.9825,1.975,1.9468,1.945,1.9354,1.901,1.8934,1.8934,1.8934,1.8447,1.8111,1.8217,1.7664,1.7209,1.7136,1.6573,1.6134,1.6045,1.5162,1.4539,1.4499,1.4499,1.4499,1.4499,1.4499,1.4484,1.444,1.4425,1.441,1.438,1.4321,1.4321,1.438,1.4034,1.3507,1.2872,1.3189,1.2672,1.5721,1.5841,1.5805,1.5805,1.5653,1.5266,1.4347,1.3683,1.2836,1.1493,1.0835,1.0295,0.9568,0.9734,0.9933,0.9751,1.0309,1.0844,1.1064,1.1334,1.1531,0.0,1.1773,1.1871,1.1715,1.1931,0.0,1.2339,1.274,1.2985,1.303,1.3007,1.3121,1.335,1.3383,1.3404,1.3401,1.4244,1.4651,1.458,1.5449,1.5425,1.4556,1.4556,1.41,1.3377,1.4196,1.4604,1.4699,1.5473,1.5934,1.6123,1.6075,1.6664,1.7553,1.7553,1.8049,1.8709,1.8709,1.8677,1.8541,1.8063,1.797,1.7986,1.771,1.7795,1.7888,1.7388,1.7893,1.8536,1.8379,1.8859,1.9394,1.9394,1.9394,1.9434,1.9536,1.9693,1.9791,1.9715,1.9715,1.9715,1.9715,1.962,1.9392,1.8995,1.836,1.777,1.7314,1.6767,1.6265,1.5833,1.5268,1.4806,1.4521,1.4499,1.4499,1.4499,1.4499,1.438,1.4094,1.4094,1.3959,1.3687,1.3403,1.3403,1.3672,1.3342,1.2841,1.2181,1.2397,1.1934,1.572,1.5487,1.5187,1.5187,1.4506,1.3575,1.2576,1.1707,1.0773,0.9536,0.9057,0.8725,0.8285,0.8394,0.8549,0.8567,0.8863,0.9366,1.0127,1.0358,1.0702,1.1424,1.1736,1.1953,1.2059,1.2309,1.2249,1.1718,1.1671,1.1959,1.2563,1.2621,1.2675,1.2807,1.2807,1.2807,1.2807,1.3292,1.3534,1.3534,1.4004,1.4004,1.3534,1.3534,1.3268,1.2832,1.3316,1.3534,1.3558,1.4052,1.4543,1.5021,1.5021,1.5639,1.6523,1.6523,1.6805,1.7241,1.7241,1.7241,1.7276,1.747,1.765,1.7769,1.761,1.7355,1.7077,1.6778,1.7078,1.7448,1.7347,1.7631,1.7957,1.7957,1.7803,1.7706,1.7805,1.7768,1.7726,1.7726,1.7726,1.7726,1.7726,1.7726,1.7656,1.7503,1.7214,1.6805,1.6279,1.5975,1.567,1.5217,1.4442,1.3881,1.373,1.3561,1.3461,1.3461,1.3323,1.3177,1.3025,1.2902,1.278,1.2627,1.2397,1.2351,1.2504,1.2243,1.195,1.1639,1.1801,1.1333,1.5298,1.4921,1.4494,1.4332,1.3246,1.194,1.1003,1.0042,0.905,0.7996,0.7709,0.7589,0.7346,0.7296,0.7413,0.7808,0.7838,0.828,0.964,0.9919,1.03,0.0,1.1521,0.0,1.1649,1.1888,1.1638,1.0702,1.0622,1.1144,1.2359,1.2418,1.2536,1.2783,1.2807,1.2807,1.2807,1.2807,1.2807,1.2807,1.2807,1.2807,1.2807,1.2807,1.2807,1.2807,1.2807,1.2807,1.2807,1.2807,1.3268,1.3992,1.3992,1.4604,1.5473,1.5473,1.5602,1.5792,1.5792,1.5792,1.5934,1.6734,1.7258,1.7595,1.7751,1.7355,1.6821,1.6721,1.6689,1.6689,1.6689,1.6689,1.6689,1.6689,1.6503,1.6297,1.6297,1.6095,1.5904,1.5904,1.5904,1.5904,1.5904,1.5904,1.5931,1.5963,1.5967,1.5778,1.5238,1.5072,1.4912,1.4642,1.371,1.3104,1.3104,1.28,1.2589,1.2497,1.2301,1.2149,1.2071,1.187,1.1746,1.1741,1.1495,1.1327,1.1249,1.1029,1.09,1.0873,1.1022,1.0695,1.3861,1.4009,1.4155,1.3502,1.2581,1.1579,1.0581,0.9764,0.8934,0.7915,0.761,0.7474,0.7335,0.7104,0.7132,0.7717,0.7796,0.8226,0.9461,0.9981,1.0156,0.984,0.0,0.0,0.9306,0.9399,0.9478,0.9368,0.9368,0.9897,1.111,1.1168,1.1672,1.2783,1.2807,1.2807,1.2807,1.2807,1.2807,1.2807,1.2807,1.2807,1.2807,1.2807,1.2807,1.2807,1.2807,1.2807,1.2807,1.2807,1.2856,1.2929,1.2929,1.3558,1.4436,1.4436,1.5021,1.5792,1.5792,1.5792,1.5815,1.591,1.6369,1.7011,1.7617,1.753,1.7159,1.6805,1.6689,1.6689,1.6689,1.6689,1.6689,1.6689,1.6694,1.6642,1.6642,1.6646,1.6614,1.6614,1.6614,1.6614,1.6614,1.6614,1.6443,1.5972,1.5905,1.5716,1.5181,1.4683,1.4362,1.4339,1.3815,1.3453,1.3453,1.315,1.2816,1.2528,1.2483,1.2323,1.2031,1.1769,1.1581,1.153,1.0917,1.0451,1.0148,0.9815,0.9612,0.9492,0.9682,0.9824,1.3164,1.296,1.264,1.2159,1.107,0.991,0.9146,0.8279,0.7455,0.6806,0.6541,0.6403,0.6337,0.625,0.635,0.6878,0.6956,0.7379,0.8582,0.8675,0.8806,0.9307,0.9262,0.0,0.0,0.0,0.8922,0.823,0.7496,0.7624,0.8822,0.9541,1.0153,1.0612,1.0636,1.0636,1.0636,1.0636,1.0636,1.0636,1.0636,1.101,1.173,1.173,1.2114,1.2807,1.2807,1.2807,1.2807,1.2807,1.2807,1.2807,1.2807,1.305,1.3413,1.3413,1.3643,1.3992,1.3992,1.3992,1.4088,1.4687,1.4925,1.5127,1.5846,1.582,1.5611,1.5836,1.5912,1.6036,1.6566,1.6689,1.6689,1.6689,1.6607,1.6525,1.6525,1.6525,1.6525,1.6525,1.6628,1.6689,1.6689,1.6689,1.6621,1.6418,1.6382,1.6195,1.5637,1.5404,1.5214,1.5093,1.4134,1.3499,1.3499,1.3202,1.2743,1.2118,1.1885,1.1505,1.0882,1.0678,1.056,1.0538,1.0161,0.9894,0.976,0.9743,0.9717,0.9668,1.0026,0.9914,1.1884,1.1691,1.1299,1.0866,0.976,0.8601,0.8034,0.719,0.6422,0.599,0.5793,0.5696,0.5696,0.5696,0.5836,0.6213,0.6406,0.6859,0.7933,0.7808,0.7799,0.8385,0.0,0.7845,0.7831,0.7911,0.7599,0.6734,0.5886,0.574,0.6518,0.7312,0.8191,0.9172,0.9203,0.9203,0.9203,0.9203,0.9203,0.9203,0.9203,0.9643,1.0466,1.0466,1.0929,1.1744,1.1744,1.1929,1.2266,1.2266,1.2477,1.2807,1.2807,1.2807,1.2807,1.2807,1.2807,1.2807,1.2807,1.2807,1.2929,1.363,1.3695,1.359,1.4033,1.433,1.462,1.5105,1.517,1.5238,1.5756,1.5891,1.5891,1.5829,1.5747,1.5664,1.5504,1.5752,1.5985,1.5858,1.6185,1.6373,1.6025,1.5949,1.5868,1.5549,1.5508,1.5378,1.4999,1.4835,1.4658,1.4534,1.3492,1.2995,1.3495,1.2849,1.2154,1.149,1.1225,1.0849,1.0272,1.0061,1.0009,1.0096,0.9677,0.9451,0.9451,0.9398,0.9396,0.9455,0.9781,0.9575,0.9674,1.0111,1.0511,0.9718,0.8854,0.8078,0.753,0.6889,0.6268,0.5804,0.5696,0.5696,0.5696,0.5696,0.5771,0.5975,0.6403,0.6961,0.7698,0.7806,0.753,0.0,0.0,0.5872,0.4755,0.489,0.4946,0.475,0.4728,0.4594,0.4344,0.4344,0.5845,0.9094,0.9203,0.9203,0.9203,0.9203,0.9203,0.9203,0.9203,0.9203,0.9226,0.9226,0.9226,0.9226,0.9226,0.9929,1.1029,1.1029,1.173,1.2807,1.2807,1.2807,1.2807,1.2807,1.2807,1.2807,1.2807,1.2807,1.2807,1.2807,1.2807,1.2764,1.2503,1.3551,1.4802,1.4802,1.4621,1.4337,1.41,1.402,1.3978,1.3789,1.3873,1.3894,1.3438,1.4273,1.5002,1.4591,1.5268,1.5536,1.4423,1.4228,1.3881,1.2883,1.2745,1.2745,1.2725,1.2272,1.1934,1.1934,1.1451,1.1797,1.3459,1.2075,1.0978,1.0641,1.0617,1.0599,1.0599,1.0278,1.0248,1.0599,0.9614,0.9108,0.9108,0.845,0.8229,0.8419,0.8419,0.8421,0.8521,0.8821,0.9022,0.8253,0.7753,0.7314,0.6824,0.6405,0.6051,0.5761,0.5631,0.5599,0.5674,0.562,0.5832,0.662,0.6411,0.6373,0.7031,0.6497,0.0,0.5394,0.5253,0.5128,0.489,0.4945,0.4924,0.4705,0.4705,0.4594,0.4322,0.43,0.4925,0.6297,0.6026,0.6003,0.6319,0.6003,0.5845,0.5845,0.5845,0.6292,0.7086,0.7086,0.7508,0.8233,0.8233,0.845,0.8808,0.8808,0.9028,0.9471,1.0433,1.0833,1.0924,1.1885,1.2248,1.2248,1.2248,1.2248,1.2248,1.2248,1.2248,1.2238,1.2142,1.2621,1.3217,1.3493,1.3959,1.4337,1.4079,1.3999,1.3978,1.3915,1.3747,1.3556,1.3408,1.3522,1.3592,1.3326,1.3621,1.3756,1.3273,1.3179,1.3081,1.2752,1.2705,1.2705,1.2705,1.2536,1.2446,1.2446,1.1458,1.1111,1.1834,1.1408,1.082,1.0163,1.0114,0.9873,0.9331,0.9204,0.9204,0.9313,0.8981,0.884,0.883,0.8617,0.8103,0.7307,0.7504,0.7396,0.7493,0.7742,0.7871,0.7401,0.7114,0.6859,0.6482,0.619,0.5943,0.5739,0.5631,0.5555,0.5448,0.5361,0.5477,0.597,0.5689,0.5592,0.6126,0.5494,0.0,0.4543,0.0,0.0,0.4669,0.4723,0.4634,0.4415,0.4326,0.4166,0.3898,0.3808,0.3987,0.4456,0.4366,0.4433,0.4746,0.4456,0.43,0.43,0.43,0.4683,0.541,0.541,0.5815,0.6477,0.6477,0.6731,0.0,0.7168,0.7409,0.789,0.8769,0.9115,0.9202,1.009,1.075,1.1202,1.1202,1.156,1.2005,1.2005,1.2005,1.2005,1.2005,1.2131,1.2268,1.2426,1.2844,1.3169,1.2926,1.2738,1.258,1.2504,1.2303,1.2089,1.2003,1.2174,1.2306,1.2129,1.2429,1.2498,1.1868,1.1766,1.1576,1.1042,1.1089,1.1148,1.1101,1.114,1.1187,1.1187,1.044,0.9999,1.018,1.0188,0.9981,0.9482,0.9444,0.9217,0.8723,0.8703,0.8703,0.8703,0.8703,0.8466,0.798,0.7521,0.6977,0.6342,0.6362,0.6169,0.0,0.6813,0.7044,0.7001,0.6813,0.6575,0.6396,0.6158,0.0,0.5739,0.5663,0.5512,0.5096,0.4988,0.4822,0.4456,0.449,0.4711,0.5121,0.4814,0.0,0.0,0.3804,0.3729,0.4159,0.4255,0.4188,0.3924,0.3723,0.3496,0.325,0.3029,0.3118,0.3566,0.3987,0.4233,0.4277,0.4255,0.4233,0.4233,0.4233,0.421,0.421,0.421,0.421,0.421,0.421,0.4836,0.5866,0.5866,0.6506,0.7453,0.7559,0.7606,0.7613,0.7713,0.8565,0.9704,0.9704,1.0554,1.1638,1.1638,1.1721,1.178,1.178,1.1887,1.193,1.1694,1.1462,1.1263,1.106,1.0674,1.0277,1.0101,1.0047,0.9951,0.9711,1.0463,1.1145,1.0994,1.1525,1.1571,1.0304,1.0086,0.9633,0.8311,0.8427,0.8589,0.8399,0.8551,0.8684,0.8684,0.8684,0.8703,0.8703,0.8703,0.8703,0.8703,0.8703,0.8703,0.8703,0.8646,0.8608,0.8561,0.8485,0.7846,0.6669,0.5494,0.5087,0.541,0.5049,0.4772,0.561,0.0,0.6483,0.6128,0.5976,0.5922,0.0,0.5814,0.5761,0.5717,0.5339,0.5052,0.5198,0.481,0.4646,0.5211,0.4735,0.4454,0.49,0.436,0.0,0.4242,0.408,0.4051,0.4253,0.4287,0.4188,0.3924,0.3857,0.3745,0.3518,0.3272,0.3183,0.3294,0.3253,0.3473,0.3983,0.3831,0.3652,0.3451,0.3451,0.3384,0.323,0.323,0.323,0.323,0.323,0.3393,0.3654,0.3654,0.3799,0.4161,0.5229,0.565,0.5775,0.6817,0.7396,0.7681,0.7681,0.7898,0.817,0.817,0.8901,0.979,0.979,1.0815,1.193,1.1694,1.1462,1.1293,1.1242,1.0917,1.0621,1.0736,1.0482,1.0212,1.0137,1.006,0.995,0.9771,0.9697,0.952,0.9056,0.8893,0.8715,0.8372,0.8267,0.8217,0.8178,0.835,0.8475,0.8475,0.8608,0.8703,0.8703,0.8703,0.8703,0.8703,0.8703,0.8703,0.8703,0.8112,0.7606,0.7245,0.6342,0.5719,0.5416,0.4467,0.3904,0.3686,0.3752,0.3577,0.5156,0.5674,0.6147,0.59,0.5836,0.5836,0.5836,0.5771,0.5631,0.5426,0.0,0.4741,0.4522,0.417,0.4,0.4235,0.3939,0.3861,0.0,0.0,0.3886,0.4261,0.4119,0.4081,0.4281,0.43,0.4233,0.4103,0.3968,0.3857,0.3745,0.3551,0.3435,0.3435,0.3322,0.3329,0.3428,0.3484,0.3435,0.3296,0.3444,0.3376,0.3117,0.3117,0.3035,0.2897,0.2897,0.2897,0.2897,0.2897,0.2897,0.2967,0.3742,0.4029,0.4123,0.4853,0.5522,0.6107,0.6233,0.6691,0.7238,0.7238,0.775,0.8333,0.8189,0.9003,1.0173,1.1153,1.1257,1.1114,1.1114,1.0801,1.051,1.0613,1.0311,0.9982,0.9982,0.9776,0.9575,0.9465,0.9323,0.9117,0.8822,0.8728,0.8575,0.8273,0.8287,0.8271,0.8125,0.8272,0.8373,0.8264,0.836,0.8265,0.7902,0.7874,0.7959,0.8131,0.815,0.7931,0.7425,0.6992,0.6561,0.6124,0.4811,0.421,0.4409,0.3187,0.2582,0.2543,0.2468,0.2314,0.4872,0.5303,0.5779,0.5896,0.5973,0.5981,0.5811,0.5665,0.5419,0.4912,0.0,0.4353,0.365,0.3487,0.0,0.2896,0.3036,0.3356,0.3752,0.3857,0.3989,0.4269,0.4126,0.4085,0.4281,0.43,0.43,0.43,0.408,0.3968,0.3968,0.3809,0.373,0.373,0.3707,0.3471,0.3009,0.3343,0.3519,0.3529,0.3806,0.3779,0.3486,0.3486,0.3316,0.306,0.306,0.306,0.3058,0.3004,0.3007,0.3058,0.3004,0.2978,0.2978,0.2978,0.3701,0.4716,0.4999,0.5908,0.696,0.696,0.7093,0.7207,0.6928,0.7215,0.8085,1.0149,1.066,1.0657,1.0886,1.0622,1.0283,1.0287,1.0026,0.9768,0.9768,0.9673,0.9604,0.9604,0.9514,0.9335,0.9007,0.8911,0.8696,0.8139,0.83,0.8355,0.7925,0.8048,0.8052,0.7719,0.7713,0.7455,0.6768,0.6703,0.6799,0.7019,0.7153,0.6742,0.5712,0.5596,0.5339,0.4888,0.3589,0.309,0.3421,0.2059,0.1571,0.1883,0.1551,0.1394,0.4309,0.4478,0.4802,0.542,0.587,0.592,0.495,0.4834,0.4739,0.4049,0.0,0.3543,0.358,0.3393,0.3269,0.0,0.0,0.3729,0.0,0.0,0.4301,0.4308,0.4411,0.4448,0.4312,0.43,0.43,0.43,0.4255,0.4233,0.4233,0.4002,0.3875,0.3875,0.3695,0.3576,0.3499,0.382,0.403,0.4076,0.4135,0.4043,0.382,0.382,0.3789,0.3759,0.3759,0.3759,0.3729,0.3433,0.3489,0.3725,0.343,0.3316,0.3316,0.3316,0.3285,0.3277,0.3595,0.4047,0.4447,0.4447,0.5211,0.6144,0.608,0.6954,0.8018,0.8396,0.8845,0.9516,1.0827,1.0834,1.0575,1.0754,1.0608,1.0458,1.0458,0.9994,0.9602,0.9602,0.9151,0.8746,0.8681,0.8524,0.8378,0.8273,0.8155,0.7794,0.6942,0.7004,0.6797,0.5905,0.5966,0.5988,0.5815,0.5803,0.5538,0.4904,0.5519,0.5513,0.4671,0.4239,0.3694,0.2937,0.2373,0.212,0.2179,0.1924,0.1848,0.1905,0.1828,0.1808,0.3866,0.3972,0.4157,0.4546,0.4957,0.5162,0.4712,0.4565,0.4375,0.382,0.3575,0.3431,0.0,0.0,0.3263,0.3602,0.0,0.3901,0.4045,0.4257,0.4379,0.4308,0.4418,0.4463,0.4358,0.4328,0.432,0.4346,0.4328,0.43,0.43,0.4213,0.4173,0.4173,0.3964,0.3964,0.4146,0.4116,0.413,0.4213,0.4378,0.4353,0.4116,0.4116,0.4043,0.3912,0.3912,0.3912,0.3884,0.3729,0.3759,0.3884,0.3729,0.3668,0.3668,0.3668,0.3671,0.3681,0.383,0.3987,0.4116,0.4116,0.4526,0.5004,0.4859,0.541,0.6171,0.6719,0.7615,0.8566,0.9288,0.934,0.9212,0.9324,0.962,0.9723,0.9029,0.908,0.9065,0.8329,0.7921,0.7655,0.755,0.7283,0.7056,0.6925,0.6822,0.6557,0.6029,0.6023,0.5892,0.5346,0.537,0.5219,0.4683,0.4634,0.4555,0.4404,0.4205,0.3932,0.3546,0.3113,0.2722,0.2353,0.2042,0.1907,0.1907,0.1907,0.1907,0.1907,0.1907,0.1907,0.3405,0.3418,0.3444,0.3524,0.4014,0.4455,0.4388,0.4238,0.3987,0.3573,0.3479,0.3358,0.0,0.3079,0.0,0.3784,0.3933,0.4049,0.4202,0.4085,0.3964,0.3883,0.3692,0.3572,0.3529,0.348,0.3467,0.3526,0.3477,0.3467,0.3467,0.35,0.3552,0.3621,0.3415,0.3464,0.3779,0.3464,0.3652,0.4315,0.4578,0.4594,0.4417,0.4417,0.4309,0.4105,0.4105,0.4105,0.4105,0.4015,0.4043,0.4105,0.4015,0.3984,0.398,0.3915,0.4077,0.4289,0.4289,0.4349,0.4417,0.4417,0.4417,0.4381,0.4171,0.429,0.4647,0.5433,0.6429,0.7372,0.7875,0.8,0.8,0.8,0.85,0.8728,0.7758,0.8115,0.8315,0.73,0.6974,0.6804,0.665,0.6331,0.6047,0.5847,0.5758,0.5576,0.5198,0.5145,0.5018,0.4674,0.4643,0.4351,0.3602,0.3533,0.3673,0.3985,0.3195,0.2728,0.2728,0.2431,0.2275,0.2275,0.212,0.2044,0.2044,0.2044,0.2044,0.2044,0.2055,0.206,0.2809,0.2585,0.2352,0.2473,0.3462,0.4234,0.355,0.3488,0.3421,0.2965,0.2953,0.297,0.2762,0.3136,0.3581,0.3919,0.4147,0.4265,0.4287,0.339,0.2701,0.2648,0.1755,0.1099,0.0988,0.0963,0.0962,0.0964,0.0963,0.0962,0.0962,0.0963,0.1076,0.1322,0.1076,0.1077,0.1348,0.1077,0.2193,0.4675,0.4679,0.4724,0.4776,0.4776,0.4747,0.4739,0.4739,0.4739,0.471,0.4409,0.4445,0.4706,0.4385,0.4281,0.4246,0.3984,0.4077,0.4289,0.4289,0.451,0.4776,0.4776,0.4776,0.4747,0.4743,0.4751,0.4784,0.4851,0.4956,0.5482,0.7471,0.8,0.8,0.8,0.8036,0.8054,0.7979,0.7718,0.7491,0.7395,0.7006,0.6702,0.6708,0.6403,0.6179,0.6179,0.5902,0.5381,0.4487,0.4376,0.4012,0.3064,0.2972,0.2924,0.2794,0.2768,0.2789,0.2825,0.2632,0.2529,0.2529,0.249,0.247,0.247,0.247,0.2451,0.2451,0.2451,0.2451,0.2454,0.2529,0.2554,0.2436,0.2314,0.2234,0.2364,0.2879,0.3299,0.315,0.3221,0.3311,0.3293,0.333,0.3349,0.3272,0.3526,0.3806,0.3972,0.3685,0.3426,0.3426,0.2479,0.1751,0.1649,0.1153,0.0828,0.0821,0.0744,0.0742,0.0821,0.0744,0.0693,0.0693,0.0693,0.0738,0.085,0.0761,0.0738,0.085,0.0761,0.1231,0.2267,0.2267,0.2337,0.2454,0.3248,0.3611,0.3663,0.446,0.4809,0.478,0.4673,0.4681,0.478,0.4648,0.4612,0.4608,0.4502,0.4535,0.4612,0.4612,0.4681,0.4809,0.4809,0.4809,0.4809,0.4809,0.4809,0.4809,0.4809,0.4809,0.4985,0.5807,0.6007,0.6007,0.6007,0.6531,0.683,0.6157,0.626,0.6271,0.5596,0.5033,0.4714,0.4916,0.4516,0.421,0.4422,0.4176,0.3831,0.3476,0.3432,0.3288,0.2909,0.2815,0.2795,0.2773,0.2727,0.2724,0.2767,0.2627,0.2567,0.2567,0.2531,0.249,0.249,0.249,0.249,0.249,0.249,0.249,0.2493,0.2534,0.2545,0.221,0.2216,0.2249,0.2342,0.2556,0.2774,0.2962,0.3144,0.3335,0.3631,0.3635,0.345,0.2965,0.3163,0.3346,0.3213,0.2775,0.2449,0.2449,0.1499,0.0721,0.0542,0.0067,-0.025,-0.0297,-0.0384,-0.0405,-0.0297,-0.0384,-0.0447,-0.0447,-0.0447,-0.0403,-0.0313,-0.0403,-0.0403,-0.0313,-0.0403,-0.0406,-0.0366,-0.0366,0.0116,0.1023,0.1905,0.2304,0.2355,0.3221,0.3611,0.3611,0.3611,0.3846,0.4193,0.4193,0.4457,0.4809,0.4809,0.4809,0.4809,0.4809,0.4809,0.4809,0.4809,0.4809,0.4809,0.4809,0.4809,0.4809,0.4809,0.4809,0.4809,0.4809,0.4809,0.4809,0.4809,0.5361,0.5687,0.496,0.5203,0.5326,0.4597,0.4046,0.3762,0.3984,0.3492,0.3143,0.3368,0.3114,0.2897,0.2897,0.2897,0.2897,0.2897,0.2867,0.2831,0.2831,0.2785,0.2782,0.2831,0.2746,0.2662,0.2602,0.2561,0.2529,0.2493,0.2529,0.254,0.254,0.2559,0.2567,0.257,0.2505,0.2475,0.2165,0.224,0.2291,0.2286,0.2541,0.2824,0.2955,0.3196,0.3507,0.3826,0.3717,0.3103,0.1574,0.1838,0.2092,0.1502,0.1448,0.1491,0.1491,0.0441,-0.0402,-0.0671,-0.176,-0.261,-0.2867,-0.2897,-0.2897,-0.2897,-0.2897,-0.2897,-0.2897,-0.2897,-0.2785,-0.2513,-0.2763,-0.2763,-0.2513,-0.2763,-0.2897,-0.2897,-0.2897,-0.1534,0.0975,0.0975,0.0975,0.0975,0.0999,0.0999,0.0999,0.0999,0.1731,0.2887,0.2887,0.3663,0.4755,0.4755,0.478,0.4784,0.4784,0.4784,0.4809,0.4809,0.4809,0.4809,0.4809,0.4809,0.4809,0.4809,0.4809,0.4809,0.4809,0.4809,0.4809,0.4809,0.4809,0.4809,0.4809,0.4809,0.4784,0.4784,0.4514,0.4289,0.4289,0.3796,0.3398,0.3398,0.3114,0.2897,0.2897,0.2897,0.2897,0.2897,0.2897,0.2897,0.2897,0.2897,0.2897,0.2897,0.2897,0.2815,0.261,0.2602,0.2575,0.2493,0.2572,0.2602,0.2602,0.2662,0.2692,0.2671,0.2473,0.2367,0.2192,0.1968,0.1754,0.1801,0.1707,0.1597,0.1595,0.2685,0.3577,0.3203,0.2545,0.1894,0.1397,0.1498,0.1604,0.1421,0.0898,0.0512,0.0512,-0.0533,-0.1318,-0.139,-0.2048,-0.2527,-0.261,-0.2781,-0.2897,-0.2897,-0.2897,-0.2897,-0.2897,-0.2897,-0.2875,-0.2785,-0.2852,-0.2852,-0.2785,-0.2852,-0.2897,-0.2897,-0.2897,-0.2485,-0.1714,-0.0763,-0.0326,-0.028,0.0614,0.0999,0.0999,0.0999,0.1217,0.1559,0.1559,0.1805,0.2129,0.2129,0.2684,0.3454,0.3454,0.4058,0.4809,0.4809,0.4809,0.4809,0.4809,0.4809,0.4809,0.4809,0.4809,0.4809,0.4809,0.4809,0.4809,0.4809,0.4809,0.4809,0.4809,0.4612,0.4449,0.4449,0.4214,0.4015,0.4015,0.3671,0.3398,0.3398,0.3114,0.2897,0.2897,0.2897,0.2897,0.2897,0.2897,0.2897,0.2897,0.2897,0.2897,0.2897,0.2897,0.2872,0.2818,0.2711,0.2657,0.2638,0.2657,0.2665,0.2665,0.1842,0.1428,0.1409,0.0507,0.0085,0.1889,0.1711,0.1511,0.1196,0.1099,0.108,0.1142,0.2044,0.2644,0.1874,0.1557,0.1169,0.0413,0.0575,0.072,0.0381,-0.012,-0.0461,-0.0461,-0.1082,-0.1572,-0.1688,-0.1981,-0.2262,-0.2473,-0.2639,-0.2781,-0.2894,-0.2897,-0.2897,-0.2897,-0.2897,-0.2897,-0.2897,-0.2897,-0.2897,-0.2897,-0.2897,-0.2897,-0.2897,-0.2897,-0.2897,-0.2875,-0.2066,-0.1688,-0.1644,-0.0878,-0.0558,-0.0558,-0.0558,-0.0234,0.0235,0.0235,0.0543,0.0999,0.0999,0.1486,0.2153,0.2153,0.2657,0.3377,0.3874,0.4033,0.4139,0.4647,0.4809,0.4809,0.4809,0.4809,0.4809,0.4809,0.4809,0.4809,0.4809,0.4809,0.4809,0.4809,0.4542,0.4289,0.4289,0.4081,0.3912,0.3912,0.3641,0.3436,0.3436,0.3143,0.2897,0.2897,0.2897,0.2897,0.2897,0.2897,0.2897,0.2897,0.2897,0.2897,0.2897,0.2897,0.2897,0.2897,0.2826,0.2763,0.2692,0.2091,0.178,0.178,0.0772,0.0258,0.0237,-0.0581,-0.099,0.1418,0.1384,0.1295,0.0543,0.0577,0.0853,0.1092,0.1153,0.0951,0.0243,0.0669,0.0644,-0.1005,-0.0647,-0.0372,-0.1178,-0.1296,-0.1296,-0.1296,-0.1296,-0.1387,-0.1639,-0.1688,-0.1884,-0.2375,-0.2454,-0.2566,-0.2825,-0.283,-0.283,-0.283,-0.283,-0.2852,-0.2875,-0.2875,-0.2875,-0.2897,-0.2897,-0.2897,-0.2897,-0.2897,-0.2897,-0.2897,-0.2897,-0.2897,-0.2897,-0.2897,-0.2897,-0.2897,-0.2897,-0.2177,-0.1081,-0.1081,-0.0372,0.0638,0.0638,0.0711,0.083,0.083,0.0903,0.1193,0.2355,0.2733,0.2938,0.4111,0.446,0.4485,0.4593,0.4622,0.4647,0.478,0.4809,0.4809,0.4809,0.4809,0.4809,0.4809,0.455,0.4321,0.4281,0.405,0.3884,0.3973,0.3708,0.3499,0.3443,0.3123,0.2897,0.2897,0.2897,0.2897,0.2897,0.2897,0.2897,0.2897,0.2897,0.2897,0.2897,0.2897,0.2738,0.2379,0.2715,0.2845,0.2711,0.1091,0.0215,0.0194,-0.053,-0.0872,-0.0872,-0.123,-0.1387,0.1318,0.0574,-0.0161,-0.0084,-0.0437,-0.079,-0.0728,-0.0712,-0.0557,-0.002,-0.034,-0.0829,-0.1219,-0.1139,-0.108,-0.1277,-0.1296,-0.1296,-0.1296,-0.1296,-0.1319,-0.1385,-0.157,-0.1749,-0.1857,-0.2065,-0.2237,-0.2352,-0.2357,-0.2357,-0.2357,-0.2357,-0.2424,-0.2581,-0.2581,-0.2693,-0.2897,-0.2897,-0.2897,-0.2897,-0.2897,-0.2897,-0.2897,-0.2897,-0.2897,-0.2897,-0.2897,-0.2897,-0.2897,-0.2897,-0.2723,-0.2462,-0.2462,-0.2309,-0.2068,-0.2068,-0.1399,-0.0488,-0.0488,0.0164,0.1047,0.1315,0.1411,0.1461,0.1731,0.1805,0.2029,0.3017,0.33,0.3534,0.4539,0.4809,0.4809,0.4809,0.4809,0.4809,0.4809,0.4743,0.4542,0.4077,0.3769,0.3803,0.4498,0.3987,0.3384,0.3066,0.2953,0.2897,0.2897,0.2897,0.2897,0.2897,0.2897,0.2897,0.2897,0.2897,0.2897,0.2897,0.2897,0.1525,-0.1525,0.1279,0.2883,0.2859,0.031,-0.1153,-0.1397,-0.1875,-0.2104,-0.2126,-0.3132,-0.3604,0.0976,0.043,-0.0134,-0.0569,-0.0994,-0.1296,-0.1296,-0.1296,-0.1163,-0.0678,-0.095,-0.1296,-0.1296,-0.1296,-0.1296,-0.1296,-0.1296,-0.1296,-0.1296,-0.1296,-0.1296,-0.1296,-0.1425,-0.156,-0.1699,-0.1823,-0.1994,-0.2195,-0.22,-0.22,-0.22,-0.22,-0.2244,-0.2357,-0.2357,-0.2424,-0.2558,-0.2648,-0.2715,-0.2715,-0.283,-0.2897,-0.2897,-0.2897,-0.2897,-0.2897,-0.2897,-0.2897,-0.2897,-0.2897,-0.2897,-0.2897,-0.2897,-0.2897,-0.2897,-0.2897,-0.2462,-0.1867,-0.1867,-0.1421,-0.0764,-0.0117,0.0094,0.0211,0.0806,0.0999,0.1144,0.1805,0.2278,0.276,0.3429,0.4193,0.4809,0.4809,0.4809,0.4809,0.4809,0.4809,0.4706,0.4398,0.3735,0.3351,0.3803,0.4019,0.3833,0.3032,0.2897,0.2897,0.2897,0.2897,0.2897,0.2897,0.2897,0.2897,0.2897,0.2897,0.211,0.0247,0.0112,-0.0986,-0.3476,-0.1633,-0.0537,-0.0537,-0.2013,-0.2864,-0.3042,-0.3269,-0.3358,-0.3381,-0.4009,-0.43,0.0601,0.0406,0.0138,-0.0965,-0.1262,-0.1291,-0.1295,-0.1296,-0.1296,-0.1296,-0.1296,-0.1296,-0.1296,-0.1296,-0.1296,-0.1296,-0.1296,-0.1296,-0.1296,-0.1296,-0.1299,-0.1305,-0.1307,-0.1398,-0.1624,-0.1655,-0.1753,-0.2039,-0.2063,-0.2063,-0.2063,-0.2063,-0.2087,-0.2132,-0.2132,-0.2155,-0.22,-0.2357,-0.2446,-0.2446,-0.2715,-0.283,-0.283,-0.2875,-0.2897,-0.2897,-0.2897,-0.2897,-0.2897,-0.2897,-0.2897,-0.2897,-0.2897,-0.2897,-0.2897,-0.2897,-0.2897,-0.2897,-0.2897,-0.2897,-0.2723,-0.16,-0.124,-0.1059,0.0,0.033,0.0401,0.0686,0.129,0.1977,0.258,0.3765,0.4568,0.3688,0.4164,0.4809,0.4809,0.4809,0.4809,0.4809,0.3769,0.2897,0.2897,0.3769,0.4112,0.3063,0.2897,0.2897,0.2897,0.2897,0.2897,0.2897,0.2897,0.2558,0.1725,0.1817,0.0448,-0.2917,-0.3141,-0.3499,-0.4277,-0.43,-0.43,-0.43,-0.43,-0.43,-0.43,-0.43,-0.43,-0.43,-0.43,-0.43,0.0437,-0.0133,-0.0863,-0.1275,-0.1301,-0.1224,-0.1291,-0.1296,-0.1296,-0.1296,-0.1296,-0.1296,-0.1296,-0.1296,-0.1296,-0.1296,-0.1296,-0.1296,-0.1296,-0.1296,-0.1306,-0.1294,-0.1301,-0.1344,-0.1421,-0.1431,-0.1469,-0.15,-0.1503,-0.1503,-0.1503,-0.1503,-0.1615,-0.1839,-0.1861,-0.1973,-0.22,-0.2222,-0.2244,-0.2244,-0.2446,-0.2558,-0.2558,-0.2785,-0.2897,-0.2897,-0.2897,-0.2897,-0.2897,-0.2897,-0.2897,-0.2897,-0.2897,-0.2897,-0.2897,-0.2897,-0.2897,-0.2897,-0.2897,-0.2897,-0.2875,-0.268,-0.2636,-0.2593,-0.2442,-0.2374,-0.2068,-0.0557,-0.0047,0.0733,0.3688,0.4622,0.3663,-0.081,0.1534,0.4809,0.4809,0.4809,0.4809,0.4809,0.3769,0.2897,0.2897,0.3035,0.3092,0.2925,0.2897,0.2897,0.2897,0.2897,0.2897,0.2897,0.2897,0.1209,-0.2975,-0.2598,-0.269,-0.4032,-0.4121,-0.4166,-0.43,-0.43,-0.43,-0.43,-0.43,-0.43,-0.43,-0.43,-0.43,-0.43,-0.43,-0.43,0.0231,-0.0377,-0.0984,-0.1192,-0.1212,-0.1232,-0.1377,-0.1361,-0.1335,-0.1453,-0.1551,-0.1569,-0.1335,-0.1296,-0.1296,-0.1296,-0.1528,-0.1702,-0.1702,-0.1702,-0.1696,-0.1735,-0.1473,-0.1323,-0.1385,-0.1406,-0.1398,-0.1389,-0.1391,-0.1391,-0.1391,-0.1391,-0.1458,-0.157,-0.157,-0.1637,-0.1749,-0.1906,-0.2041,-0.22,-0.2401,-0.2491,-0.2513,-0.2785,-0.2897,-0.2897,-0.2897,-0.2897,-0.2897,-0.2897,-0.2897,-0.2897,-0.2897,-0.2897,-0.2897,-0.2897,-0.2897,-0.2897,-0.2897,-0.2897,-0.2897,-0.2897,-0.2897,-0.2897,-0.2897,-0.2897,-0.2745,-0.1979,-0.1756,-0.1422,0.0094,0.0495,-0.0094,-0.2354,-0.0967,0.0802,0.0542,0.2757,0.3952,0.1047,0.1332,0.2063,0.2063,0.2063,0.2063,0.2063,0.2063,0.2063,0.2063,0.065,-0.056,-0.1074,-0.1141,-0.199,-0.4121,-0.392,-0.3853,-0.4277,-0.43,-0.43,-0.43,-0.43,-0.43,-0.43,-0.43,-0.43,-0.43,-0.43,-0.43,-0.43,-0.43,-0.43,-0.0128,-0.0604,-0.0949,-0.1033,-0.1145,-0.1279,-0.1452,-0.1415,-0.1423,-0.1706,-0.1826,-0.1824,-0.1571,-0.1579,-0.1624,-0.1624,-0.1958,-0.2212,-0.2212,-0.2212,-0.2233,-0.2281,-0.193,-0.1711,-0.177,-0.1666,-0.1592,-0.1592,-0.148,-0.1391,-0.1391,-0.1391,-0.1391,-0.1391,-0.1391,-0.1391,-0.1391,-0.1592,-0.1794,-0.1996,-0.2289,-0.2424,-0.2424,-0.2763,-0.2897,-0.2897,-0.2897,-0.2897,-0.2897,-0.2897,-0.2897,-0.2897,-0.2897,-0.2897,-0.2897,-0.2897,-0.2852,-0.2807,-0.2875,-0.2852,-0.2763,-0.2738,-0.2715,-0.274,-0.2875,-0.2897,-0.2897,-0.2897,-0.2897,-0.2897,-0.2897,-0.2715,-0.2513,-0.2513,-0.2446,-0.2469,-0.283,-0.007,0.1343,-0.2517,-0.1524,-0.0045,-0.0045,-0.0045,-0.0045,-0.0045,-0.0045,-0.0045,-0.0045,-0.1927,-0.3521,-0.4233,-0.43,-0.43,-0.43,-0.43,-0.43,-0.43,-0.43,-0.4411,-0.4634,-0.4433,-0.43,-0.43,-0.43,-0.43,-0.43,-0.43,-0.43,-0.43,-0.43,-0.43,-0.0711,-0.0922,-0.0988,-0.092,-0.1111,-0.1336,-0.1463,-0.1491,-0.1622,-0.207,-0.2022,-0.1944,-0.2118,-0.2357,-0.2536,-0.2536,-0.2669,-0.275,-0.275,-0.275,-0.2751,-0.2766,-0.2728,-0.2752,-0.2811,-0.2419,-0.2155,-0.2155,-0.1682,-0.1391,-0.1391,-0.1391,-0.1391,-0.1391,-0.1391,-0.1391,-0.1391,-0.1413,-0.1436,-0.1458,-0.1973,-0.2222,-0.2222,-0.2693,-0.2897,-0.2897,-0.2897,-0.2897,-0.2897,-0.2897,-0.2897,-0.2897,-0.2897,-0.2897,-0.2897,-0.2897,-0.2738,-0.2558,-0.2807,-0.2693,-0.2401,-0.2289,-0.2244,-0.2312,-0.2763,-0.2897,-0.2897,-0.2897,-0.2897,-0.2897,-0.2897,-0.22,-0.148,-0.148,-0.2195,-0.2869,-0.2897,-0.3393,-0.3913,-0.4166,-0.4099,-0.4006,-0.4006,-0.4006,-0.4006,-0.4006,-0.4006,-0.4006,-0.4006,-0.4143,-0.4255,-0.43,-0.43,-0.43,-0.43,-0.43,-0.43,-0.43,-0.43,-0.4701,-0.5597,-0.4768,-0.43,-0.43,-0.43,-0.43,-0.43,-0.43,-0.43,-0.43,-0.43,-0.43,-0.074,0.0,-0.0888,-0.0945,-0.1128,-0.1369,-0.1638,-0.1688,-0.1786,-0.2067,-0.2214,-0.2356,-0.2549,-0.2351,-0.2188,-0.2324,-0.2706,-0.3046,-0.3172,-0.3213,-0.3268,-0.3314,-0.302,-0.2757,-0.2663,-0.2491,-0.2334,-0.22,-0.2018,-0.1906,-0.1906,-0.1906,-0.1839,-0.166,-0.166,-0.157,-0.1413,-0.1391,-0.1391,-0.1413,-0.1772,-0.2041,-0.22,-0.2513,-0.2648,-0.2648,-0.2648,-0.2738,-0.2897,-0.2897,-0.2897,-0.2897,-0.2897,-0.2897,-0.2875,-0.2715,-0.2581,-0.2469,-0.2312,-0.2267,-0.22,-0.1817,-0.1682,-0.1727,-0.1884,-0.1929,-0.1929,-0.1929,-0.1929,-0.1929,-0.1929,-0.2155,-0.2289,-0.1973,-0.2869,-0.3451,-0.2198,-0.3183,-0.43,-0.43,-0.43,-0.43,-0.43,-0.43,-0.43,-0.43,-0.43,-0.43,-0.43,-0.43,-0.43,-0.43,-0.43,-0.43,-0.43,-0.43,-0.43,-0.43,-0.43,-0.4456,-0.479,-0.4478,-0.43,-0.43,-0.43,-0.43,-0.43,-0.43,-0.43,-0.43,-0.43,-0.43,-0.0795,0.0,0.0,-0.0922,-0.1121,-0.1377,-0.167,-0.1759,-0.188,-0.2207,-0.2368,-0.2518,-0.2731,-0.2401,-0.2223,-0.2616,-0.2969,-0.3262,-0.3415,-0.3463,-0.3522,-0.36,-0.3276,-0.3024,-0.2889,-0.2738,-0.2578,-0.2444,-0.2289,-0.22,-0.22,-0.22,-0.211,-0.1929,-0.1839,-0.1705,-0.1525,-0.1525,-0.1525,-0.1548,-0.1884,-0.2087,-0.22,-0.2401,-0.2469,-0.2401,-0.2401,-0.2491,-0.267,-0.2738,-0.2763,-0.2785,-0.2875,-0.2852,-0.274,-0.2558,-0.2401,-0.2222,-0.1973,-0.1906,-0.1861,-0.1525,-0.1391,-0.1391,-0.1391,-0.1391,-0.1391,-0.1391,-0.1391,-0.1391,-0.1391,-0.2155,-0.2827,-0.2511,-0.2892,-0.3157,-0.2509,-0.3381,-0.43,-0.43,-0.43,-0.43,-0.43,-0.43,-0.43,-0.43,-0.43,-0.43,-0.43,-0.43,-0.43,-0.43,-0.43,-0.43,-0.43,-0.43,-0.43,-0.43,-0.43,-0.43,-0.43,-0.43,-0.43,-0.43,-0.43,-0.43,-0.43,-0.43,-0.43,-0.43,-0.43,-0.43,0.0,0.0,0.0,0.0,-0.1047,-0.135,-0.1543,-0.17,-0.1943,-0.2468,-0.2493,-0.2468,-0.2662,-0.2601,-0.2743,-0.3452,-0.3471,-0.3426,-0.3499,-0.3491,-0.3518,-0.3594,-0.3604,-0.3582,-0.3582,-0.3176,-0.2906,-0.2883,-0.2464,-0.222,-0.222,-0.222,-0.22,-0.22,-0.1951,-0.1817,-0.1817,-0.1817,-0.1817,-0.1817,-0.2267,-0.2401,-0.2222,-0.2424,-0.2401,-0.2222,-0.2222,-0.22,-0.2222,-0.2401,-0.2491,-0.2513,-0.2785,-0.2715,-0.2491,-0.2491,-0.22,-0.1817,-0.1861,-0.1682,-0.1391,-0.1391,-0.1391,-0.1391,-0.1391,-0.1391,-0.1391,-0.1391,-0.1391,-0.1413,-0.1436,-0.2177,-0.2917,-0.2936,-0.2195,-0.1994,-0.3898,-0.43,-0.43,-0.43,-0.43,-0.43,-0.43,-0.43,-0.43,-0.43,-0.43,-0.43,-0.43,-0.43,-0.43,-0.43,-0.43,-0.43,-0.43,-0.43,-0.43,-0.43,-0.43,-0.43,-0.43,-0.43,-0.43,-0.43,-0.43,-0.43,-0.43,-0.43,-0.43,-0.43,-0.43,-0.43,-0.0958,0.0,0.0,0.0,0.0,0.0,-0.1413,-0.1595,-0.1832,-0.2169,-0.2327,-0.2447,-0.2596,-0.2628,-0.2717,-0.2911,-0.3037,-0.3227,-0.3536,-0.3482,-0.344,-0.3464,-0.3464,-0.3382,-0.3193,-0.304,-0.2912,-0.2763,-0.2674,-0.2631,-0.2631,-0.2492,-0.2424,-0.2424,-0.22,-0.2087,-0.2087,-0.2087,-0.2087,-0.2087,-0.2222,-0.2334,-0.2424,-0.2668,-0.2757,-0.269,-0.2491,-0.2334,-0.22,-0.2267,-0.2289,-0.2289,-0.2357,-0.2357,-0.2267,-0.2063,-0.1906,-0.1772,-0.1592,-0.148,-0.1391,-0.1391,-0.1391,-0.1391,-0.1391,-0.1391,-0.1391,-0.1391,-0.1391,-0.157,-0.2289,-0.2693,-0.3074,-0.3741,-0.3693,-0.3649,-0.4188,-0.43,-0.43,-0.43,-0.43,-0.43,-0.43,-0.43,-0.43,-0.43,-0.43,-0.43,-0.43,-0.43,-0.43,-0.43,-0.43,-0.43,-0.43,-0.43,-0.43,-0.43,-0.43,-0.43,-0.43,-0.43,-0.43,-0.43,-0.43,-0.43,-0.43,-0.43,-0.43,-0.43,-0.43,-0.43,0.0,0.0,0.0,0.0,0.0,0.0,-0.1321,-0.1533,-0.1758,-0.1977,-0.2154,-0.2312,-0.2414,-0.2467,-0.2528,-0.2678,-0.2731,-0.2882,-0.3261,-0.3248,-0.3243,-0.3336,-0.3276,-0.3175,-0.301,-0.2923,-0.3007,-0.3294,-0.2977,-0.2768,-0.2768,-0.267,-0.2615,-0.2615,-0.2435,-0.2334,-0.2334,-0.2334,-0.2334,-0.2334,-0.2446,-0.2491,-0.2513,-0.278,-0.2847,-0.2735,-0.269,-0.2601,-0.2489,-0.2489,-0.231,-0.2041,-0.2155,-0.2132,-0.2018,-0.1861,-0.1727,-0.1615,-0.1458,-0.1391,-0.1391,-0.1391,-0.1391,-0.1391,-0.1391,-0.1391,-0.148,-0.1906,-0.2018,-0.2155,-0.274,-0.2897,-0.3141,-0.4076,-0.43,-0.43,-0.43,-0.43,-0.43,-0.43,-0.43,-0.43,-0.43,-0.43,-0.43,-0.43,-0.43,-0.43,-0.43,-0.43,-0.43,-0.43,-0.43,-0.43,-0.43,-0.43,-0.43,-0.43,-0.43,-0.43,-0.43,-0.43,-0.43,-0.43,-0.43,-0.43,-0.43,-0.43,-0.43,-0.43,-0.43,-0.43,-0.1283,-0.123,0.0,0.0,-0.1064,0.0,-0.1246,-0.1471,-0.1684,-0.1831,-0.1983,-0.2099,-0.2175,-0.2191,-0.2303,-0.2602,-0.2504,-0.2501,-0.2836,-0.2877,-0.2936,-0.3181,-0.3045,-0.2944,-0.2986,-0.2819,-0.3087,-0.401,-0.3236,-0.2729,-0.2734,-0.2765,-0.2796,-0.2796,-0.2605,-0.2521,-0.2526,-0.2529,-0.2531,-0.2536,-0.2785,-0.2785,-0.2558,-0.2825,-0.2825,-0.2626,-0.2847,-0.2956,-0.2978,-0.2911,-0.2511,-0.1951,-0.2175,-0.213,-0.1929,-0.1884,-0.1727,-0.1525,-0.1503,-0.1503,-0.1525,-0.1503,-0.148,-0.1458,-0.148,-0.157,-0.1839,-0.2782,-0.3054,-0.3054,-0.3054,-0.3054,-0.3275,-0.4099,-0.43,-0.43,-0.43,-0.43,-0.43,-0.43,-0.43,-0.43,-0.43,-0.43,-0.43,-0.43,-0.43,-0.43,-0.43,-0.43,-0.43,-0.43,-0.43,-0.43,-0.43,-0.43,-0.43,-0.43,-0.43,-0.43,-0.43,-0.43,-0.43,-0.43,-0.43,-0.43,-0.43,-0.43,-0.43,-0.43,-0.43,-0.43,-0.1429,-0.1444,-0.1467,-0.1216,-0.1168,0.0,-0.115,-0.1217,-0.1369,-0.161,-0.1805,-0.1971,-0.2101,-0.2169,-0.2241,-0.2354,-0.2302,-0.2374,-0.2761,-0.2686,-0.2591,-0.2644,-0.2624,-0.2667,-0.2826,-0.2806,-0.2925,-0.3279,-0.3036,-0.2887,-0.2941,-0.2808,-0.2709,-0.2709,-0.268,-0.2685,-0.2736,-0.2736,-0.276,-0.283,-0.2875,-0.2875,-0.283,-0.3048,-0.3227,-0.3387,-0.3205,-0.3272,-0.3428,-0.3048,-0.2822,-0.2688,-0.2732,-0.2732,-0.2668,-0.2446,-0.2334,-0.2267,-0.211,-0.2155,-0.2267,-0.2222,-0.2018,-0.1839,-0.1996,-0.2578,-0.3294,-0.3875,-0.4032,-0.4032,-0.4032,-0.4032,-0.4076,-0.4255,-0.43,-0.43,-0.43,-0.43,-0.43,-0.43,-0.43,-0.43,-0.43,-0.43,-0.43,-0.43,-0.43,-0.43,-0.43,-0.43,-0.43,-0.43,-0.43,-0.43,-0.43,-0.43,-0.43,-0.43,-0.43,-0.43,-0.43,-0.43,-0.43,-0.43,-0.43,-0.43,-0.43,-0.43,-0.43,-0.43,-0.43,-0.43,-0.1605,-0.157,-0.1574,-0.1438,0.0,0.0,0.0,-0.1297,-0.1401,-0.1603,-0.1623,-0.1679,-0.1954,-0.1942,-0.1958,-0.2128,-0.2186,-0.2266,-0.2466,-0.2607,-0.2743,-0.2838,-0.2793,-0.2793,-0.2889,-0.2746,-0.2728,-0.2943,-0.3423,-0.3526,-0.3158,-0.2968,-0.2839,-0.2839,-0.2755,-0.2706,-0.276,-0.279,-0.282,-0.285,-0.2881,-0.2897,-0.2897,-0.3115,-0.3339,-0.3588,-0.3566,-0.3697,-0.392,-0.3697,-0.3604,-0.3559,-0.309,-0.2889,-0.2889,-0.2757,-0.2601,-0.2446,-0.2379,-0.2513,-0.2645,-0.2267,-0.2265,-0.2422,-0.2511,-0.3205,-0.3987,-0.4233,-0.43,-0.43,-0.43,-0.43,-0.43,-0.43,-0.43,-0.43,-0.43,-0.43,-0.43,-0.43,-0.43,-0.43,-0.43,-0.43,-0.43,-0.43,-0.43,-0.43,-0.43,-0.43,-0.43,-0.43,-0.43,-0.43,-0.43,-0.43,-0.43,-0.43,-0.43,-0.43,-0.43,-0.43,-0.43,-0.43,-0.43,-0.43,-0.43,-0.43,-0.43,-0.43,-0.43,-0.43,0.0,0.0,-0.1696,-0.1638,0.0,-0.1553,0.0,0.0,0.0,-0.1621,-0.1467,-0.1424,-0.1757,-0.1675,-0.1642,-0.1905,-0.2045,-0.2133,-0.2166,-0.2517,-0.2822,-0.2992,-0.2915,-0.2887,-0.2911,-0.2816,-0.2761,-0.284,-0.3745,-0.4066,-0.3542,-0.3326,-0.3299,-0.3502,-0.3337,-0.3261,-0.3274,-0.3138,-0.3071,-0.3086,-0.2956,-0.2897,-0.2897,-0.3074,-0.3317,-0.3611,-0.3767,-0.4013,-0.43,-0.43,-0.43,-0.4233,-0.347,-0.3179,-0.3157,-0.3115,-0.2892,-0.2626,-0.2626,-0.2802,-0.2936,-0.2354,-0.2623,-0.3157,-0.3071,-0.3563,-0.4188,-0.4277,-0.43,-0.43,-0.43,-0.43,-0.43,-0.43,-0.43,-0.43,-0.43,-0.43,-0.43,-0.43,-0.43,-0.43,-0.43,-0.43,-0.43,-0.43,-0.43,-0.43,-0.43,-0.43,-0.43,-0.43,-0.43,-0.43,-0.43,-0.43,-0.43,-0.43,-0.43,-0.43,-0.43,-0.43,-0.43,-0.43,-0.43,-0.43,-0.43,-0.43,-0.43,-0.43,-0.43,-0.43,0.0,0.0,0.0,0.0,-0.1772,-0.1795,-0.1539,0.0,-0.1483,-0.1444,0.0,-0.1428,-0.1527,0.0,0.0,-0.1698,-0.1793,-0.1894,-0.2005,-0.2171,-0.229,-0.2307,-0.2346,-0.2448,-0.2621,-0.3203,-0.3402,-0.3004,-0.3318,-0.3739,-0.4248,-0.4075,-0.4393,-0.5282,-0.5282,-0.53,-0.5353,-0.4486,-0.4075,-0.4113,-0.3285,-0.2897,-0.2897,-0.292,-0.3186,-0.3611,-0.3633,-0.3875,-0.43,-0.43,-0.43,-0.43,-0.4188,-0.4143,-0.4121,-0.3879,-0.3655,-0.3432,-0.3205,-0.3294,-0.3473,-0.3227,-0.3585,-0.4054,-0.3652,-0.3585,-0.3767,-0.4188,-0.43,-0.43,-0.43,-0.43,-0.43,-0.43,-0.43,-0.43,-0.43,-0.43,-0.43,-0.43,-0.43,-0.43,-0.43,-0.43,-0.43,-0.43,-0.43,-0.43,-0.43,-0.43,-0.43,-0.43,-0.43,-0.43,-0.43,-0.43,-0.43,-0.43,-0.43,-0.43,-0.43,-0.43,-0.43,-0.43,-0.43,-0.43,-0.43,-0.43,-0.43,-0.43,-0.43,-0.43,0.0,0.0,-0.2238,-0.1949,-0.2007,-0.204,-0.1689,-0.1593,-0.1555,-0.1569,0.0,0.0,0.0,0.0,0.0,0.0,-0.153,-0.1663,-0.1761,-0.1882,-0.2062,-0.2334,-0.2406,-0.2441,-0.2531,-0.3006,-0.314,-0.2798,-0.3657,-0.4316,-0.4554,-0.486,-0.5296,-0.5864,-0.5705,-0.5615,-0.563,-0.5261,-0.5084,-0.5116,-0.4749,-0.4587,-0.4587,-0.4587,-0.4834,-0.5284,-0.5284,-0.5539,-0.5891,-0.5342,-0.5119,-0.5053,-0.4523,-0.43,-0.4277,-0.4166,-0.3991,-0.3767,-0.3655,-0.3678,-0.379,-0.3853,-0.4076,-0.4255,-0.4076,-0.4009,-0.4054,-0.4255,-0.43,-0.43,-0.43,-0.43,-0.43,-0.43,-0.43,-0.43,-0.43,-0.43,-0.43,-0.43,-0.43,-0.43,-0.43,-0.43,-0.43,-0.43,-0.43,-0.43,-0.43,-0.43,-0.43,-0.43,-0.43,-0.43,-0.43,-0.43,-0.43,-0.43,-0.43,-0.43,-0.43,-0.43,-0.43,-0.43,-0.43,-0.43,-0.43,-0.43,-0.4406,-0.4582,-0.4393,-0.43,-0.221,-0.2302,-0.2392,-0.2078,-0.2126,-0.216,-0.1809,-0.1723,-0.1703,-0.1672,-0.1534,0.0,0.0,0.0,-0.1314,-0.1212,0.0,-0.1561,-0.1672,-0.1702,-0.189,-0.2341,-0.2395,-0.24,-0.2407,-0.2848,-0.2964,-0.2518,-0.3871,-0.4757,-0.4833,-0.5481,-0.6134,-0.6707,-0.6558,-0.6458,-0.6458,-0.6238,-0.6131,-0.6138,-0.5911,-0.5823,-0.588,-0.588,-0.5993,-0.6205,-0.6529,-0.6716,-0.6792,-0.6422,-0.6267,-0.6201,-0.5536,-0.527,-0.5181,-0.4541,-0.4121,-0.3901,-0.3901,-0.3857,-0.3879,-0.4188,-0.43,-0.43,-0.43,-0.43,-0.43,-0.43,-0.43,-0.43,-0.43,-0.43,-0.43,-0.43,-0.43,-0.43,-0.43,-0.43,-0.43,-0.43,-0.43,-0.4332,-0.443,-0.4365,-0.4332,-0.443,-0.4447,-0.4447,-0.4447,-0.4447,-0.4447,-0.4447,-0.4447,-0.4447,-0.4447,-0.4357,-0.43,-0.43,-0.43,-0.43,-0.43,-0.43,-0.4344,-0.4442,-0.4447,-0.4447,-0.4447,-0.4447,-0.4553,-0.4801,-0.4541,-0.4447,-0.2723,-0.2595,-0.2494,-0.2093,-0.2048,-0.2045,-0.1839,-0.19,-0.192,-0.1652,-0.165,-0.1613,-0.1362,-0.1404,0.0,0.0,-0.1427,0.0,0.0,-0.1667,-0.1664,-0.2068,-0.2109,-0.2134,-0.2207,-0.2978,-0.3137,-0.227,-0.364,-0.4711,-0.5164,-0.5889,-0.6907,-0.8282,-0.8505,-0.8608,-0.8608,-0.7709,-0.7243,-0.7243,-0.6259,-0.5913,-0.6096,-0.6096,-0.5849,-0.5509,-0.6609,-0.6725,-0.6223,-0.7291,-0.7724,-0.7724,-0.7702,-0.768,-0.7416,-0.5137,-0.4121,-0.3901,-0.3901,-0.3767,-0.3678,-0.4143,-0.43,-0.43,-0.43,-0.43,-0.43,-0.43,-0.43,-0.43,-0.43,-0.43,-0.43,-0.43,-0.43,-0.43,-0.43,-0.43,-0.43,-0.43,-0.43,-0.441,-0.4732,-0.4505,-0.4418,-0.474,-0.4793,-0.4793,-0.4793,-0.4793,-0.4793,-0.4793,-0.4793,-0.4793,-0.4793,-0.45,-0.43,-0.43,-0.43,-0.43,-0.43,-0.43,-0.4463,-0.4785,-0.4793,-0.4793,-0.4793,-0.4793,-0.4797,-0.4809,-0.4797,-0.4793,-0.2908,-0.3021,-0.306,-0.2472,-0.2486,-0.2487,-0.1976,-0.1931,-0.1952,-0.1763,-0.1817,-0.1814,-0.1548,-0.1501,0.0,0.0,0.0,0.0,0.0,-0.192,-0.2062,-0.2154,-0.2012,0.0,-0.1995,-0.2589,-0.2865,-0.2619,-0.4145,-0.5254,-0.5646,-0.6823,-0.778,-0.8373,-0.86,-0.8703,-0.8703,-0.8385,-0.8219,-0.8228,-0.7872,-0.7493,-0.7089,-0.7089,-0.7256,-0.749,-0.7088,-0.7295,-0.7878,-0.6836,-0.6416,-0.6422,-0.6615,-0.6681,-0.6571,-0.578,-0.543,-0.5253,-0.4433,-0.4121,-0.4099,-0.4255,-0.43,-0.43,-0.43,-0.43,-0.43,-0.43,-0.43,-0.43,-0.43,-0.43,-0.43,-0.43,-0.43,-0.43,-0.43,-0.43,-0.4369,-0.4582,-0.4631,-0.4667,-0.4789,-0.4708,-0.4671,-0.4793,-0.4809,-0.4809,-0.4809,-0.4809,-0.4809,-0.4809,-0.4809,-0.4809,-0.4809,-0.47,-0.4631,-0.4631,-0.4631,-0.4631,-0.4631,-0.4631,-0.4687,-0.4805,-0.4809,-0.4809,-0.4809,-0.4809,-0.4809,-0.4809,-0.4809,-0.4809,-0.323,-0.3372,-0.341,-0.2855,-0.2846,-0.2819,-0.2218,-0.2105,-0.2109,-0.2006,-0.2013,-0.2033,-0.2022,-0.188,-0.1699,0.0,0.0,0.0,0.0,-0.2023,-0.2218,-0.211,0.0,0.0,0.0,-0.2365,-0.2672,-0.2863,-0.4202,-0.5258,-0.5835,-0.7042,-0.788,-0.8278,-0.8552,-0.8703,-0.8703,-0.8703,-0.8703,-0.8703,-0.8875,-0.8686,-0.821,-0.844,-0.8619,-0.8687,-0.8408,-0.8625,-0.9082,-0.8097,-0.7452,-0.71,-0.7276,-0.7078,-0.6703,-0.6703,-0.6703,-0.6527,-0.5359,-0.4652,-0.43,-0.43,-0.43,-0.43,-0.43,-0.43,-0.43,-0.43,-0.43,-0.43,-0.43,-0.43,-0.4332,-0.4459,-0.4487,-0.4487,-0.4487,-0.4487,-0.4533,-0.4765,-0.4809,-0.4809,-0.4809,-0.4809,-0.4809,-0.4809,-0.4809,-0.4809,-0.4809,-0.4809,-0.4809,-0.4809,-0.4809,-0.4809,-0.4809,-0.4809,-0.4809,-0.4809,-0.4809,-0.4809,-0.4809,-0.4809,-0.4809,-0.4809,-0.4809,-0.4809,-0.4809,-0.4809,-0.4809,-0.4809,-0.4809,-0.4809]},{"header":{"parameterUnit":"m.s-1","parameterCategory":1,"la1":30.6,"la2":29.2853,"lo1":-89.7004,"lo2":-87.6739,"dy":0.0162,"dx":0.0183,"nx":112,"ny":82,"refTime":"2024-06-19T12:00:00:Z","depth":0,"parameterNumber":3,"parameterNumberName":"V-component_of_WINDS"},"data":[0.0,0.0,0.0,0.0,0.0,0.0,0.0,0.0,0.0,0.0,0.0,0.0,0.0,0.0,0.0,0.0,0.0,0.0,0.0,0.0,0.0,0.0,0.0,0.0,0.0,0.0,0.0,0.0,0.0,0.0,0.0,0.0,0.0,0.0,0.0,0.0,0.0,0.0,0.0,0.0,0.0,0.0,0.0,0.0,0.0,0.0,0.0,0.0,0.0,0.0,0.0,0.0,0.0,0.0,0.0,0.0,0.0,0.0,0.0,0.0,0.0,0.0,0.0,0.0,0.0,0.0,0.0,0.0,0.0,0.0,0.0,0.0,0.0,0.0,0.0,0.0,0.0,0.0,0.0,0.0,0.0,0.0,0.0,0.0,0.0,0.0,0.0,0.0,0.0,0.0,1.0503,1.1677,1.3227,1.4196,1.4233,1.425,1.3579,1.2013,0.0,0.0,0.0,0.0,0.0,0.0,0.0,0.0,0.0,0.0,0.0,0.0,0.0,0.0,0.0,0.0,0.0,0.0,0.0,0.0,0.0,0.0,0.0,0.0,0.0,0.0,0.0,0.0,0.0,0.0,0.0,0.0,0.0,0.0,0.0,0.0,0.0,0.0,0.0,0.0,0.0,0.0,0.0,0.0,0.0,0.0,0.0,0.0,0.0,0.0,0.0,0.0,0.0,0.0,0.0,0.0,0.0,0.0,0.0,0.0,0.0,0.0,0.0,0.0,0.0,0.0,0.0,0.0,0.0,0.0,0.0,0.0,0.0,0.0,0.0,0.0,0.0,0.0,0.0,0.0,0.0,0.0,0.0,0.0,0.0,0.0,0.0,0.0,0.0,0.0,0.0,0.0,0.0,0.0,0.0,0.0,0.0,0.0,0.0,0.0,0.0,0.0,0.0,0.0,1.087,1.3354,1.4406,1.504,1.5332,1.5346,1.4646,1.2978,0.0,0.0,0.0,0.0,0.0,0.0,0.0,0.0,0.0,0.0,0.0,0.0,0.0,0.0,0.0,0.0,0.0,0.0,0.0,0.0,0.0,0.0,0.0,0.0,0.0,0.0,0.0,0.0,0.0,0.0,0.0,0.0,0.0,0.0,0.0,0.0,0.0,0.0,0.0,0.0,0.0,0.0,0.0,0.0,0.0,0.0,0.0,0.0,0.0,0.0,0.0,0.0,0.0,0.0,0.0,0.0,0.0,0.0,0.0,0.0,0.0,0.0,0.0,0.0,0.0,0.0,0.0,0.0,0.0,0.0,0.0,0.0,0.0,0.0,0.0,0.0,0.0,0.0,0.0,0.0,0.0,0.0,0.0,0.0,0.0,0.0,0.0,0.0,0.0,0.0,0.0,0.0,0.0,0.0,0.0,0.0,0.0,0.0,0.0,0.0,0.0,0.0,0.0,1.077,1.2138,1.4595,1.5237,1.5545,1.5699,1.5645,1.4764,1.2844,1.1328,0.0,0.0,0.0,0.0,0.0,0.0,0.0,0.0,0.0,0.0,0.0,0.0,0.0,0.0,0.0,0.0,0.0,0.0,0.0,0.0,0.0,0.0,0.0,0.0,0.0,0.0,0.0,0.0,0.0,0.0,0.0,0.0,0.0,0.0,0.0,0.0,0.0,0.0,0.0,0.0,0.0,0.0,0.0,0.0,0.0,0.0,0.0,0.0,0.0,0.0,0.0,0.0,0.0,0.0,0.0,0.0,0.0,0.0,0.0,0.0,0.0,0.0,0.0,0.0,0.0,0.0,0.0,0.0,0.0,0.0,0.0,0.0,0.0,0.0,0.0,0.0,0.0,0.0,0.0,0.0,0.0,0.0,0.0,0.0,0.0,0.0,0.0,0.0,0.0,0.0,0.0,0.0,0.0,0.0,0.0,0.0,0.0,0.0,0.0,0.0,0.0,0.0,1.24,1.3515,1.5553,1.5888,1.5976,1.5976,1.5734,1.4708,1.2693,1.142,0.0,0.0,0.0,0.0,0.0,0.0,0.0,0.0,0.0,0.0,0.0,0.0,0.0,0.0,0.0,0.0,0.0,0.0,0.0,0.0,0.0,0.0,0.0,0.0,0.0,0.0,0.0,0.0,0.0,0.0,0.0,0.0,0.0,0.0,0.0,0.0,0.0,0.0,0.0,0.0,0.0,0.0,0.0,0.0,0.0,0.0,0.0,0.0,0.0,0.0,0.0,0.0,0.0,0.0,0.0,0.0,0.0,0.0,0.0,0.0,0.0,0.0,0.0,0.0,0.0,0.0,0.0,0.0,0.0,0.0,0.0,0.0,0.0,0.0,0.0,0.0,0.0,0.0,0.0,0.0,0.0,0.0,0.0,0.0,0.0,0.0,0.0,0.0,0.0,0.0,0.0,0.0,0.0,0.0,0.0,0.0,0.0,0.0,0.0,0.0,0.0,0.0,1.2926,1.457,1.6103,1.6367,1.6457,1.6457,1.5873,1.48,1.3145,1.1468,0.0,0.0,0.0,0.0,0.0,0.0,0.0,0.0,0.0,0.0,0.0,0.0,0.0,0.0,0.0,0.0,0.0,0.0,0.0,0.0,0.0,0.0,0.0,0.0,0.0,0.0,0.0,0.0,0.0,0.0,0.0,0.0,0.0,0.0,0.0,0.0,0.0,0.0,0.0,0.0,0.0,0.0,0.0,0.0,0.0,0.0,0.0,0.0,0.0,0.0,0.0,0.0,0.0,0.0,0.0,0.0,0.0,0.0,0.0,0.0,0.0,0.0,0.0,0.0,0.0,0.0,0.0,0.0,0.0,0.0,0.0,0.0,0.0,0.0,0.0,0.0,0.0,0.0,0.0,0.0,0.0,0.0,0.0,0.0,0.0,0.0,0.0,0.0,0.0,0.0,0.0,0.0,0.0,0.0,0.0,0.0,0.0,0.0,0.0,0.0,0.0,0.0,1.2832,1.438,0.0,1.6757,1.6842,1.6937,1.6403,1.5137,1.2988,0.0,0.0,0.0,0.0,0.0,0.0,0.0,0.0,0.0,0.0,0.0,0.0,0.0,0.0,0.0,0.0,0.0,0.0,0.0,0.0,0.0,0.0,0.0,0.0,0.0,0.0,0.0,0.0,0.0,0.0,0.0,0.0,0.0,0.0,0.0,0.0,0.0,0.0,0.0,0.0,0.0,0.0,0.0,0.0,0.0,0.0,0.0,0.0,0.0,0.0,0.0,0.0,0.0,0.0,0.0,0.0,0.0,0.0,0.0,0.0,0.0,0.0,0.0,0.0,0.0,0.0,0.0,0.0,0.0,0.0,0.0,0.0,0.0,0.0,0.0,0.0,0.0,0.0,0.0,0.0,0.0,0.0,0.0,0.0,0.0,0.0,0.0,0.0,0.0,0.0,0.0,0.0,0.0,0.0,0.0,0.0,0.0,0.0,0.0,0.0,0.0,0.0,1.1576,1.3028,1.4613,0.0,1.6931,1.7,1.7094,1.6303,1.4894,1.2762,0.0,0.0,0.0,0.0,0.0,0.0,0.0,0.0,0.0,0.0,0.0,0.0,0.0,0.0,0.0,0.0,0.0,0.0,0.0,0.0,0.0,0.0,0.0,0.0,0.0,0.0,0.0,0.0,0.0,0.0,0.0,0.0,0.0,0.0,0.0,0.0,0.0,0.0,0.0,0.0,0.0,0.0,0.0,0.0,0.0,0.0,0.0,0.0,0.0,0.0,0.0,0.0,0.0,0.0,0.0,0.0,0.0,0.0,0.0,0.0,0.0,0.0,0.0,0.0,0.0,0.0,0.0,0.0,0.0,0.0,0.0,0.0,0.0,0.0,0.0,0.0,0.0,0.0,0.0,0.0,0.0,0.0,0.0,0.0,0.0,0.0,0.0,0.0,0.0,0.0,0.0,0.0,0.0,0.0,0.0,0.0,0.0,0.0,0.0,0.0,0.0,0.0,1.1689,1.3718,1.543,1.657,1.6825,1.691,1.691,1.5421,1.3942,0.0,0.0,0.0,0.0,0.0,0.0,0.0,0.0,0.0,0.0,0.0,0.0,0.0,0.0,0.0,0.0,0.0,0.0,0.0,0.0,0.0,0.0,0.0,0.0,0.0,0.0,0.0,0.0,0.0,0.0,0.0,0.0,0.0,0.0,0.0,0.0,0.0,0.0,0.0,0.0,0.0,0.0,0.0,0.0,0.0,0.0,0.0,0.0,0.0,0.0,0.0,0.0,0.0,0.0,0.0,0.0,0.0,0.0,0.0,0.0,0.0,0.0,0.0,0.0,0.0,0.0,0.0,0.0,0.0,0.0,0.0,0.0,0.0,0.0,0.0,0.0,0.0,0.0,0.0,0.0,0.0,0.0,0.0,0.0,0.0,0.0,0.0,0.0,0.0,0.0,0.0,0.0,0.0,0.0,0.0,0.0,0.0,0.0,0.0,0.0,0.0,0.0,0.0,1.2193,1.4215,1.5815,1.661,1.674,1.6803,1.6899,1.5762,1.4209,1.2196,0.0,0.0,0.0,0.0,0.0,0.0,0.0,0.0,0.0,0.0,0.0,0.0,0.0,0.0,0.0,0.0,0.0,0.0,0.0,0.0,0.0,0.0,0.0,0.0,0.0,0.0,0.0,0.0,0.0,0.0,0.0,0.0,0.0,0.0,0.0,0.0,0.0,0.0,0.0,0.0,0.0,0.0,0.0,0.0,0.0,0.0,0.0,0.0,0.0,0.0,0.0,0.0,0.0,0.0,0.0,0.0,0.0,0.0,0.0,0.0,0.0,0.0,0.0,0.0,0.0,0.0,0.0,0.0,0.0,0.0,0.0,0.0,0.0,0.0,0.0,0.0,0.0,0.0,0.0,0.0,0.0,0.0,0.0,0.0,0.0,0.0,0.0,0.0,0.0,0.0,0.0,0.0,0.0,0.0,0.0,0.0,0.0,0.0,0.0,0.0,0.0,0.0,1.2555,1.4491,1.595,1.6546,1.6633,1.6665,1.6725,1.5828,1.4388,1.2352,0.0,0.0,0.0,0.0,0.0,0.0,0.0,0.0,0.0,0.0,0.0,0.0,0.0,0.0,0.0,0.0,0.0,0.0,0.0,0.0,0.0,0.0,0.0,0.0,0.0,0.0,0.0,0.0,0.0,0.0,0.0,0.0,0.0,0.0,0.0,0.0,0.0,0.0,0.0,0.0,0.0,0.0,0.0,0.0,0.0,0.0,0.0,0.0,0.0,0.0,0.0,0.0,0.0,0.0,0.0,0.0,0.0,0.0,0.0,0.0,0.0,0.0,0.0,0.0,0.0,0.0,0.0,0.0,0.0,0.0,0.0,0.0,0.0,0.0,0.0,0.0,0.0,0.0,0.0,0.0,0.0,0.0,0.0,0.0,0.0,0.0,0.0,0.0,0.0,0.0,0.0,0.0,0.0,0.0,0.0,0.0,0.0,0.0,0.0,0.0,0.0,0.0,1.2751,1.4608,1.5959,1.645,1.6489,1.6489,1.6489,1.5729,1.4565,1.2902,0.0,0.0,0.0,0.0,0.0,0.0,0.0,0.0,0.0,0.0,0.0,0.0,0.0,0.0,0.0,0.0,0.0,0.0,0.0,0.0,0.0,0.0,0.0,0.0,0.0,0.0,0.0,0.0,0.0,0.0,0.0,0.0,0.0,0.0,0.0,0.0,0.0,0.0,0.0,0.0,0.0,0.0,0.0,0.0,0.0,0.0,0.0,0.0,0.0,0.0,0.0,0.0,0.0,0.0,0.0,0.0,0.0,0.0,0.0,0.0,0.7661,0.685,0.0,0.0,0.0,0.0,0.0,0.0,0.0,0.0,0.0,0.0,0.0,0.0,0.0,0.0,0.0,0.0,0.0,0.0,0.0,0.0,0.0,0.0,0.0,0.0,0.0,0.0,0.0,0.0,0.0,0.0,0.0,0.0,0.0,0.0,0.0,0.0,0.0,0.0,0.0,0.0,1.256,1.4775,1.6289,1.6425,1.6414,1.6414,1.6414,1.5945,1.5075,1.3736,1.253,0.0,0.0,0.0,0.0,0.0,0.0,0.0,0.0,0.0,0.0,0.0,0.0,0.0,0.0,0.0,0.0,0.0,0.0,0.0,0.0,0.0,0.0,0.0,0.0,0.0,0.0,0.0,0.0,0.0,0.0,0.0,0.0,0.0,0.0,0.0,0.0,0.0,0.0,0.0,0.0,0.0,0.0,0.0,0.0,0.0,0.0,0.0,0.0,0.0,0.0,0.0,0.0,0.0,0.0,0.0,0.0,0.0,0.0,0.0,1.0088,0.9343,0.0,0.0,0.0,0.0,0.0,0.0,0.0,0.0,0.0,0.0,0.0,0.0,0.0,0.0,0.0,0.0,0.0,0.0,0.0,0.0,0.0,0.0,0.0,0.0,0.0,0.0,0.0,0.0,0.0,0.0,0.0,0.0,0.0,0.0,0.0,0.0,0.0,0.0,0.0,0.0,1.3194,1.5126,1.6371,1.6295,1.6349,1.6392,1.6392,1.6273,1.5645,1.44,1.3601,0.0,0.0,0.0,0.0,0.0,0.0,0.0,0.0,0.0,0.0,0.0,0.0,0.0,0.0,0.0,0.0,0.0,0.0,0.0,0.0,0.0,0.0,0.0,0.0,0.0,0.0,0.0,0.0,0.0,0.0,0.0,0.0,0.0,0.0,0.0,0.0,0.0,0.0,0.0,0.0,0.0,0.0,0.0,0.0,0.0,0.0,0.0,0.0,0.0,0.0,0.0,0.0,0.0,1.5322,1.4766,1.3564,1.385,1.4293,1.4763,1.3022,1.251,1.2738,1.1018,0.0,0.0,0.0,0.0,0.0,0.0,0.0,0.0,0.0,0.0,0.0,0.0,0.0,0.0,0.0,0.0,0.0,0.0,0.0,0.0,0.0,0.0,1.3072,1.3285,1.3666,1.3533,1.1753,0.0,0.0,0.0,0.0,0.0,0.0,0.0,0.0,0.0,0.0,0.0,1.4015,1.5456,1.6306,1.6189,1.6298,1.636,1.6392,1.6525,1.6244,1.5301,1.4794,1.3718,0.0,0.0,0.0,0.0,0.0,0.0,0.0,0.0,0.0,0.0,0.0,0.0,0.0,0.0,0.0,0.0,0.0,0.0,0.0,0.0,0.0,0.0,0.0,0.0,0.0,0.0,0.0,0.0,0.0,0.0,0.0,0.0,0.5857,0.6901,0.0,0.0,0.0,0.0,0.0,0.0,0.0,0.0,0.0,0.0,0.0,0.0,0.0,1.0148,1.2943,1.6295,1.8124,1.836,1.755,1.7503,1.8131,1.817,1.7897,1.7408,1.7122,0.0,1.3914,1.3025,0.0,0.0,0.0,0.0,0.0,0.0,0.0,0.0,0.0,0.0,0.0,0.0,0.0,0.0,0.0,0.0,0.0,0.0,0.0,0.0,0.0,0.0,1.6263,1.5847,1.6137,1.6414,1.6007,1.3601,1.1473,1.1303,1.0682,1.015,0.0,0.0,0.0,0.0,0.0,0.0,1.4249,1.5442,1.6165,1.6044,1.6143,1.6276,1.6382,1.6589,1.6781,1.7043,1.6508,1.5614,1.4383,1.3106,0.0,0.0,0.0,0.0,0.0,0.0,0.0,0.0,0.0,0.0,0.0,0.0,0.0,0.0,0.0,0.0,0.0,0.0,0.0,0.0,0.0,0.0,0.0,0.0,0.0,0.0,0.0,0.0,0.0,0.5562,0.6586,0.7161,0.7435,0.7425,0.0,0.0,0.0,0.0,0.0,0.0,0.0,0.0,0.0,1.2863,1.3269,1.4339,1.6142,1.8826,2.0053,1.9791,1.9114,1.8952,1.9298,1.9567,1.9509,1.9238,1.9965,1.9643,1.8433,1.5739,1.3832,1.2548,0.0,0.0,0.0,0.0,1.2999,1.3362,1.4149,1.4665,1.4857,1.4109,0.0,0.0,0.0,0.0,0.0,0.0,0.0,1.504,1.5091,1.6311,1.7418,1.7062,1.7107,1.7204,1.7157,1.6224,1.5007,1.354,1.3088,1.2548,1.1273,1.1507,0.0,0.0,0.0,1.4627,1.5358,1.633,1.6827,1.6593,1.6667,1.6703,1.659,1.7209,1.7517,1.7348,1.7701,1.7336,1.6086,1.4755,1.3178,0.0,0.0,0.0,0.0,0.0,0.0,0.0,0.0,0.0,0.0,0.0,0.0,0.0,0.0,0.0,0.0,0.0,0.0,0.0,0.0,0.0,0.0,0.0,0.0,0.0,0.0,0.0,0.0,0.6998,0.795,0.8272,0.9137,0.9415,0.0,0.0,0.0,0.0,0.0,0.0,1.3082,1.3554,1.4409,1.5812,1.6972,1.799,1.8838,2.0557,2.1258,2.087,2.0742,2.0655,2.0648,2.101,2.1127,2.1078,2.2027,2.2433,2.2193,1.8685,1.6691,1.5895,1.5984,1.5832,1.5716,1.6817,1.7045,1.6961,1.7939,1.851,1.8596,1.7434,1.6864,1.6372,1.5007,0.0,0.0,0.0,0.0,1.705,1.7408,1.7937,1.8343,1.8196,1.8079,1.8055,1.8176,1.8384,1.7896,1.5646,1.546,1.5027,1.2998,1.3522,0.0,1.3523,1.4719,1.5901,1.6537,1.7135,1.741,1.7167,1.7276,1.7266,1.7084,1.7818,1.8158,1.7805,1.857,1.8606,1.7562,1.6173,1.4799,1.3401,0.0,0.0,0.0,0.0,0.0,0.0,0.0,0.0,0.0,0.0,0.0,0.0,0.0,0.0,0.0,0.0,0.0,0.0,0.0,0.0,0.0,0.0,0.0,0.0,0.0,0.0,0.0,0.0,0.0,1.1491,1.2604,0.0,0.0,0.0,0.0,1.2337,1.3452,1.4796,1.6282,1.7274,1.8244,1.9226,1.9696,2.0055,2.0298,2.1638,2.2285,2.2207,2.2768,2.3308,2.3785,2.3785,2.3592,2.3234,2.3304,2.3404,2.3379,2.1704,2.0578,2.0054,2.1511,2.2062,2.2049,2.2128,2.1494,2.0621,2.0688,2.0333,1.9882,2.0322,1.9851,1.8995,1.8336,1.8277,0.0,0.0,1.8622,1.9034,1.8929,1.9296,1.9706,1.9696,1.9672,1.9791,2.0254,1.9615,1.8598,1.739,1.7343,1.7109,1.5968,0.0,1.585,1.5993,1.6359,1.683,1.7366,1.7472,1.7513,1.7568,1.7673,1.7834,1.8003,1.8216,1.852,1.907,1.9163,1.9096,1.8918,1.7677,1.6255,1.4736,1.2776,0.0,0.0,0.0,0.0,0.0,0.0,0.0,0.0,0.0,0.0,0.0,0.0,0.0,0.0,0.0,0.0,0.0,0.0,0.0,0.0,0.0,0.0,0.0,0.0,0.0,0.0,0.0,0.0,1.3084,1.4132,0.0,1.3638,1.4491,1.5197,1.5501,1.634,1.7371,1.8527,1.8917,1.9629,2.0757,2.1258,2.1731,2.2198,2.3011,2.341,2.3415,2.4449,2.4761,2.4481,2.4992,2.5147,2.5006,2.5006,2.5326,2.5799,2.5135,2.3865,2.2432,2.2978,2.3205,2.3151,2.2684,2.2483,2.2396,2.2047,2.2223,2.2563,2.2265,2.1676,2.0997,2.0737,2.0789,2.0834,2.029,2.0688,2.1059,2.0182,2.0462,2.0845,2.042,2.0321,2.0371,2.053,2.0552,2.035,1.9688,1.9287,1.8751,1.7713,1.7777,1.7799,1.7307,1.7443,1.7724,1.81,1.8333,1.8411,1.8275,1.8305,1.8277,1.8218,1.8501,1.8826,1.9164,1.912,1.9062,1.9071,1.7846,1.6713,1.572,1.4172,1.2314,0.0,0.0,0.0,0.0,0.0,0.0,0.0,0.0,0.0,0.0,0.0,0.0,0.0,0.0,0.0,0.0,0.0,0.0,0.0,0.0,0.0,0.0,0.0,0.0,0.0,1.2616,1.4282,1.4414,1.5762,1.6365,1.5613,1.6792,1.7707,1.8013,1.8634,1.9463,2.0526,2.0593,2.1219,2.2646,2.3018,2.3489,2.4105,2.4663,2.4936,2.4951,2.603,2.6253,2.5761,2.6315,2.654,2.654,2.654,2.6835,2.734,2.72,2.6287,2.5025,2.5025,2.5025,2.4928,2.4217,2.4177,2.4379,2.3595,2.3794,2.43,2.3559,2.3051,2.2655,2.262,2.2717,2.2744,2.224,2.2531,2.2792,2.1931,2.2076,2.23,2.1649,2.1496,2.1467,2.1315,2.1566,2.1742,2.1494,2.0924,2.0168,1.9249,1.9457,1.9433,1.8427,1.8562,1.8732,1.8651,1.8883,1.8989,1.8865,1.8855,1.8808,1.8674,1.8921,1.9147,1.9314,1.9265,1.9153,1.899,1.795,1.7105,1.6492,1.4964,1.3205,1.1307,0.0,0.0,0.0,0.0,0.0,0.0,0.0,0.0,0.0,0.0,0.0,0.0,0.0,0.0,0.0,0.0,0.0,0.0,0.0,0.0,0.0,0.0,0.0,1.2092,1.4427,1.618,1.5724,1.7648,1.8583,1.7459,1.8856,1.9801,1.9801,2.0374,2.1208,2.2326,2.2394,2.3222,2.5,2.5056,2.5334,2.5959,2.6531,2.6833,2.6833,2.7512,2.7819,2.7819,2.7819,2.7819,2.7819,2.7819,2.7819,2.7847,2.7847,2.7847,2.7847,2.7819,2.7819,2.772,2.7059,2.6821,2.6652,2.5499,2.5093,2.4978,2.434,2.4109,2.4109,2.4109,2.4157,2.4203,2.4216,2.4188,2.416,2.4144,2.4144,2.4,2.3461,2.3344,2.3221,2.2764,2.2644,2.2678,2.2712,2.2138,2.1405,2.0606,2.0838,2.0733,1.9481,1.9782,0.0,1.9059,1.9042,1.9177,1.9269,1.9278,1.9306,1.9391,1.94,1.9455,1.9584,1.9563,1.9328,1.8809,1.809,1.7479,1.7015,1.5117,1.3764,1.2948,0.0,0.0,0.0,0.0,0.0,0.0,0.0,0.0,0.0,0.0,0.0,0.0,0.0,0.0,0.0,0.0,0.0,0.0,0.0,0.0,0.0,1.5246,1.6834,1.5389,1.7642,1.9521,1.9694,2.0758,2.1388,2.1086,2.1762,2.2234,2.2234,2.2745,2.3405,2.422,2.4261,2.4872,2.6262,2.6304,2.6637,2.7262,2.7425,2.7542,2.7542,2.8152,2.8226,2.7819,2.8255,2.8198,2.7819,2.7819,2.8058,2.8451,2.8451,2.8689,2.9026,2.8142,2.7819,2.7791,2.758,2.7524,2.7467,2.7144,2.703,2.6998,2.683,2.6818,2.6876,2.6775,2.6834,2.6861,2.6517,2.6089,2.5644,2.5472,2.5048,2.4632,2.4508,2.445,2.4433,2.4295,2.3819,2.3466,2.3676,2.3146,2.2596,2.226,2.2079,2.1841,2.1427,2.1193,2.0792,2.0087,1.9914,1.972,1.9216,1.9121,1.9111,1.9167,1.926,1.9419,1.9584,1.8775,1.8462,1.8788,1.7761,1.7144,1.7082,1.5925,1.5017,0.0,0.0,0.0,0.0,0.0,0.0,0.0,0.0,0.0,0.0,0.0,0.0,0.0,0.0,0.0,0.0,0.0,0.0,0.0,0.0,0.0,0.0,1.7848,1.9436,1.9186,2.0483,2.1537,2.1773,2.2388,2.2784,2.2784,2.349,2.3933,2.3933,2.4483,2.509,2.5735,2.5735,2.6331,2.7548,2.7606,2.791,2.8564,2.8564,2.8564,2.8564,2.8914,2.8886,2.8564,2.8914,2.8886,2.8564,2.8564,2.8745,2.9083,2.9083,2.9279,2.9532,0.0,0.0,0.0,0.0,2.8104,2.7893,2.7951,2.7966,2.7966,2.7966,2.801,2.8068,2.7995,2.801,2.804,2.7754,2.7411,2.7052,2.691,2.6657,2.6332,2.6136,2.6141,2.6059,2.5553,2.5082,2.465,2.4265,2.3877,0.0,2.3142,2.2936,2.2722,2.2363,2.2106,2.1661,2.0932,2.0538,2.0137,1.9613,1.9294,1.913,1.9101,1.9167,0.0,0.0,0.0,1.854,1.8711,1.7836,0.0,0.0,0.0,0.0,0.0,1.6012,0.0,0.0,1.5026,1.5141,0.0,0.0,0.0,0.0,0.0,0.0,0.0,0.0,0.0,0.0,0.0,0.0,0.0,0.0,0.0,0.0,2.0304,2.1809,2.2862,2.2999,2.2911,2.2777,2.3172,2.3514,2.3607,2.4557,2.5206,2.5315,2.5807,2.6417,2.7066,2.7138,0.0,0.0,0.0,2.9283,2.9806,2.9806,2.9821,2.9837,2.9837,2.9837,2.9867,2.9867,2.9867,2.9867,2.9867,2.9867,2.9867,2.9867,2.9867,2.9837,2.9679,2.9601,2.9548,2.9138,2.8647,2.8209,2.8325,0.0,0.0,2.8426,2.8426,2.8411,2.8426,2.8426,2.8426,2.844,2.8426,2.8369,2.8398,2.8483,2.8465,2.7967,2.8,2.7825,2.6764,2.6423,2.598,2.4858,2.4463,2.4097,2.3518,2.3517,2.3352,2.2706,2.2735,2.2511,2.1664,2.1063,2.0606,2.0245,1.9728,0.0,1.911,1.9101,1.9176,1.9391,1.9419,1.9196,1.8637,1.8235,1.796,1.7826,1.7968,1.8049,1.8107,1.8835,1.8907,1.8265,1.6084,1.6122,0.0,0.0,0.0,0.0,0.0,0.0,0.0,0.0,0.0,0.0,0.0,0.0,0.0,0.0,0.0,2.0462,2.2596,2.4156,2.4379,2.5253,2.5503,2.4484,2.486,2.5439,2.6049,2.6227,2.6544,2.7201,2.7355,2.7914,2.9,2.9058,2.9639,3.0924,3.0909,3.0969,3.1131,3.1131,3.1204,3.1291,3.1291,0.0,3.1448,3.1448,3.1448,3.1448,3.1448,3.1448,3.1448,3.1448,3.1448,3.1319,3.0085,2.9601,2.9588,2.9507,2.9459,2.9468,2.947,2.959,2.9725,2.9725,2.9815,2.9862,2.977,2.9815,0.0,3.0086,2.9754,2.9392,2.9666,2.9356,2.8958,2.8854,2.8866,2.8832,2.8732,2.7804,2.6967,2.6831,2.5437,2.4245,2.4127,2.3778,2.3487,2.3345,2.336,2.3178,2.2524,2.2267,2.1673,2.0489,2.0109,1.971,1.914,1.9101,1.9157,1.9297,1.9474,1.9304,1.8706,1.9109,1.9105,1.859,1.9127,1.9217,1.8813,1.9498,1.9793,1.9709,1.9329,1.9117,0.0,0.0,0.0,0.0,0.0,0.0,0.0,0.0,0.0,0.0,0.0,1.7236,1.9432,0.0,2.176,2.3437,2.4712,2.5635,2.6003,2.6607,2.6669,2.5764,2.6596,2.7383,2.7676,2.8354,2.8934,2.9312,2.9664,3.0116,3.0728,3.0742,3.1034,3.1693,3.1679,3.1679,3.1693,3.1693,3.1736,3.1807,3.1807,3.1849,3.1889,3.1889,3.1889,3.1889,3.1889,3.1889,3.1889,3.1889,3.1889,3.1819,3.1058,3.0748,3.0763,3.0837,3.0881,3.0969,3.1072,3.119,3.119,3.091,3.0866,3.0822,3.0447,3.0387,3.0477,3.0568,3.035,3.0147,3.0295,3.0148,2.9942,2.9942,2.9778,2.9538,2.9269,2.8637,2.7886,2.6976,2.6229,2.54,2.437,2.402,2.3785,2.347,2.3498,2.3425,2.3138,2.2799,2.231,2.1544,2.0764,2.0118,1.9681,1.936,1.9223,1.9288,1.9492,1.9462,1.9149,1.9492,1.9567,1.9264,1.9573,1.9629,1.9351,1.9718,1.9904,1.9957,2.008,2.0032,0.0,0.0,0.0,0.0,0.0,0.0,0.0,1.5559,1.6575,1.8923,1.9578,2.0439,2.2841,2.3374,2.4072,2.5977,2.6406,2.6723,2.7322,2.7487,2.7361,2.6916,2.7969,2.8755,2.8798,3.0051,3.0931,3.108,3.1599,3.1945,3.2057,3.2057,3.2113,3.2269,3.2238,3.2238,3.2238,3.2238,3.2252,3.2279,3.2279,3.2293,3.2321,3.2321,3.2321,3.2321,3.2321,3.2321,3.2321,3.2321,3.2321,3.2321,3.2321,3.2321,3.2307,3.2141,3.2099,3.2127,3.2282,3.2368,3.2313,3.1837,3.1666,3.158,3.1087,3.0955,3.0955,3.0955,3.0955,3.0925,3.0807,3.0851,3.0896,3.0777,3.0485,3.0072,2.9542,2.9316,2.882,2.7416,2.7225,2.6815,2.5307,2.4775,2.4298,2.3514,2.3523,2.3631,2.375,2.3392,2.3019,2.2683,2.1744,2.0926,2.04,1.9716,1.9334,1.9444,1.9572,1.972,1.9845,1.9887,1.9922,1.9922,1.9922,1.9922,1.9922,1.9975,2.001,2.0028,2.0286,2.0417,1.5583,1.6194,1.6915,1.7774,1.8021,1.8903,0.0,2.2226,2.2206,2.4086,2.4609,2.4768,2.4976,2.5664,2.6255,2.6513,2.7188,2.7733,2.7824,2.8131,2.8307,2.8119,2.8362,2.8828,2.9522,3.0253,3.1017,3.1737,3.1859,3.2127,3.2666,3.2707,3.2935,3.3487,3.3513,3.3513,3.3513,3.3513,3.3565,3.3694,3.3694,3.3726,3.3841,3.3841,3.3841,3.3841,3.3841,3.3841,3.3841,3.3841,3.3841,3.3841,3.3841,3.3841,3.37,3.2389,3.2001,3.2082,3.2141,3.2255,3.2382,3.2313,3.2299,3.2285,3.2216,3.2188,3.2188,3.2188,3.2188,3.2076,3.1537,3.1407,3.1307,3.0747,3.0569,3.0571,3.0616,3.0093,2.9813,3.0424,2.8984,2.7809,2.8345,2.6787,2.508,2.3991,2.3962,2.4183,2.4674,2.4691,2.428,2.3302,2.3351,2.2739,2.1053,1.992,1.9499,1.9993,1.9906,2.0098,2.0645,2.0678,2.0678,2.0678,2.0678,2.0678,2.0678,2.0687,2.0736,2.0771,2.1445,2.1511,1.9471,1.9639,1.9748,2.0665,2.1187,2.1842,2.3414,2.3751,2.4066,2.5181,2.5818,2.6224,2.6584,2.7227,2.7829,2.8124,2.8774,2.9109,2.8763,2.9425,2.9797,2.9393,3.0028,3.0525,3.0673,3.1722,3.2735,3.3515,3.3876,3.4125,3.4293,3.4293,3.4386,3.4573,3.4573,3.4622,3.4685,3.4685,3.4709,3.4757,3.4757,3.4745,3.4742,3.4742,3.4742,3.473,3.4546,3.4448,3.4436,3.4201,3.4101,3.4101,3.4101,3.4101,3.4038,3.3397,3.3227,3.3266,3.3266,3.3306,3.3337,3.2975,3.2868,3.2801,3.2492,3.2382,3.2382,3.2382,3.2382,3.2327,3.209,3.202,3.195,3.1709,3.1351,3.1078,3.1134,3.0904,3.0746,3.0876,3.0466,2.9847,2.9139,2.8203,2.71,2.5632,2.4863,2.4511,2.4742,2.4853,2.4591,2.3754,2.3746,2.3318,2.2131,2.1169,2.0728,2.0949,2.0538,2.0406,2.0663,2.0769,2.0802,2.0802,2.0802,2.0802,2.0802,2.1182,2.1397,2.1431,2.2272,2.272,2.1613,2.19,2.2151,2.2731,2.3595,2.4384,2.4648,2.515,2.5761,2.6401,2.6989,2.7538,2.8029,2.8505,2.8967,2.9366,3.0078,3.0362,2.9723,3.062,3.1035,3.0365,3.1035,3.1603,3.1813,3.3017,3.4114,3.4971,3.534,3.5487,3.5408,3.5351,3.5283,3.5201,3.5201,3.5259,3.5328,3.5328,3.5328,3.5328,3.5328,3.5271,3.5201,3.5201,3.5201,3.5189,3.4932,3.4847,3.4811,3.4423,3.4275,3.425,3.4138,3.4101,3.4101,3.4101,3.4101,3.4101,3.4101,3.4101,3.4038,3.3578,3.3449,3.3371,3.2993,3.2873,3.2873,3.2873,3.2873,3.2832,3.267,3.2629,3.2588,3.2424,3.204,3.1697,3.1697,3.1663,3.1599,3.1526,3.1716,3.155,3.0456,2.9765,2.8949,2.7782,2.6356,2.5329,2.5127,2.5098,2.4927,2.4557,2.4118,2.3666,2.3338,2.2451,2.1993,2.2125,2.1443,2.1105,2.1229,2.1143,2.1183,2.1383,2.1383,2.1488,2.168,2.2161,2.2435,2.2452,2.3289,2.3991,2.0694,2.2114,2.3819,2.3849,2.523,2.6809,2.7588,2.7888,2.8221,2.903,2.9303,2.9403,2.9425,2.957,2.9659,2.967,3.074,3.1305,3.0567,3.1389,3.1742,3.0871,3.0693,3.1239,3.2804,3.3772,3.4633,3.5509,3.5453,3.5397,3.5397,3.5293,3.5201,3.5201,3.5201,3.5201,3.5213,3.5213,3.5213,3.5213,3.5213,3.5201,3.5201,3.5201,3.5201,3.5201,3.5189,3.5178,3.5166,3.4823,3.4679,3.4631,3.425,3.4101,3.4101,3.4101,3.4101,3.4101,3.4101,3.4101,3.4101,3.4075,3.4075,3.4075,3.4063,3.405,3.405,3.405,3.405,3.3904,3.3345,3.3169,3.3024,3.252,3.2382,3.2365,3.2365,3.2271,3.2405,3.3162,3.2707,3.2457,3.3292,3.1693,3.0278,3.0381,2.8569,2.6971,2.6258,2.5765,2.5649,2.609,2.4793,2.4066,2.4518,2.3442,2.2947,2.3399,2.2643,2.2346,2.2811,2.2139,2.2106,2.2834,2.2834,2.3198,2.3885,2.3918,2.3959,2.4032,2.4788,2.5221,2.3194,2.4295,2.5372,2.6325,2.7094,2.7827,2.8645,2.8937,2.8975,2.8753,2.882,2.8758,2.8265,2.8821,2.9388,2.9471,3.1278,3.2442,3.1786,3.308,3.361,3.2349,3.2769,3.3421,3.4071,3.3562,3.399,3.5912,3.5783,3.5787,3.6231,3.6148,3.6006,3.593,3.593,3.5963,3.6049,3.6049,3.6333,3.6945,3.7472,3.7428,3.6849,3.6849,3.6849,3.6838,3.657,3.6469,3.648,3.6734,3.6456,3.5925,3.6449,3.6604,3.6604,3.6604,3.6291,3.5671,3.4492,3.4101,3.4101,3.4101,3.4101,3.4101,3.4101,3.4101,3.4101,3.4101,3.4101,3.4063,3.3841,3.3803,3.3752,3.3572,3.352,3.352,3.352,3.347,3.3551,3.3948,3.3799,3.3603,3.359,3.2966,3.2045,3.071,2.8664,2.7017,2.6294,2.6045,2.6017,2.6176,2.5748,2.5493,2.5661,2.4856,2.4405,2.4543,2.3835,2.3473,2.3611,2.3388,2.3395,2.3619,2.3619,2.3752,2.4017,2.4481,2.4755,2.4855,2.5689,2.61,2.5319,2.6315,2.7104,2.8212,2.8759,2.9157,2.9498,2.95,2.9167,2.8393,2.838,2.8212,2.7235,2.7912,2.8694,2.91,3.1119,3.2618,3.2549,3.4219,3.4998,3.3904,3.4357,3.4995,3.5483,3.4456,3.4504,3.6343,3.6167,3.6172,3.6598,3.6485,3.6391,3.6284,3.6636,3.6827,3.6936,3.7273,3.7725,3.8328,3.881,3.8778,3.8282,3.8282,3.8282,3.8272,3.7988,3.7868,3.7848,3.8117,3.7843,3.7308,3.7807,3.8011,3.8011,3.8011,3.7489,3.6638,3.5452,3.4844,3.4634,3.4634,3.4501,3.4341,3.4341,3.4218,3.4101,3.4101,3.4101,3.4101,3.4101,3.4101,3.4101,3.4101,3.4101,3.4101,3.4101,3.4101,3.4126,3.4213,3.4226,3.4137,3.3886,3.348,3.2572,3.0713,2.9056,2.7703,2.6733,2.636,2.6194,2.6194,2.6194,2.6194,2.6194,2.5764,2.5499,2.5499,2.4804,2.4373,2.4373,2.4149,2.4116,2.4373,2.4373,2.4514,2.477,2.5267,2.5587,2.5782,2.6209,2.6572,2.6954,2.8092,2.8938,2.945,3.0205,3.067,3.0191,2.9621,2.8906,2.7951,2.7945,2.7661,2.6328,2.6818,2.7696,2.8526,3.0379,3.2069,3.3019,3.4863,3.5926,0.0,0.0,0.0,0.0,0.0,3.62,3.688,3.6665,3.6553,3.6623,3.652,3.6468,3.6502,3.737,3.785,3.785,3.8758,3.9256,3.9395,3.9305,3.9315,3.9395,3.9395,3.9405,3.9426,3.9405,3.9343,3.9193,3.9014,3.8851,3.8672,3.8493,3.8391,3.8391,3.8391,3.7876,3.7158,3.699,3.6322,3.5633,3.5633,3.526,3.4852,3.4852,3.4549,3.4201,3.4201,3.4176,3.4151,3.4163,3.4138,3.4126,3.4126,3.4126,3.4126,3.4113,3.4113,3.4113,3.4101,3.4113,3.4151,3.4275,3.3329,3.2066,3.0662,2.9867,2.8943,2.7547,2.6709,2.6261,2.6261,2.6227,2.6194,2.6194,2.6194,2.6194,2.6194,2.5532,2.5168,2.5168,2.4472,2.4448,2.5135,2.5152,2.5516,2.6194,2.6212,2.6426,2.6816,2.6487,2.6758,2.8171,2.9359,3.0245,3.0426,3.0654,3.0707,2.9962,2.9292,2.8276,2.6272,2.5518,2.4747,2.3361,2.489,2.6726,2.7848,3.1137,3.392,3.5007,3.6644,0.0,3.6744,0.0,3.7422,3.7096,3.7325,3.7842,3.8616,3.7555,3.7385,3.8528,3.8519,3.8743,3.9318,3.9597,3.9705,3.9705,4.0357,4.0687,4.0717,4.1098,4.1073,4.0717,4.0717,4.0857,4.1051,4.0818,4.0707,4.0683,4.1039,4.0742,4.0154,4.0783,4.104,4.104,4.104,4.0513,3.9835,3.9782,3.802,3.582,3.582,3.5743,3.5632,3.5632,3.5453,3.5306,3.5397,3.5121,3.4802,3.4887,3.4658,3.4399,3.4399,3.4399,3.4374,3.4275,3.425,3.4226,3.4126,3.4176,3.4263,3.4288,3.3683,3.3025,3.2664,3.1166,2.9603,2.83,2.7481,2.7017,2.7017,2.6535,2.6194,2.6194,2.6194,2.6194,2.6194,2.602,2.5929,2.5929,2.5731,2.5731,2.5929,2.6142,2.6251,2.6194,2.6452,2.6708,2.6936,2.6847,2.7128,2.9988,3.0896,3.1445,3.1488,3.1224,3.0655,2.936,2.8188,2.6767,2.4412,2.3631,2.2957,2.1637,2.3577,2.5827,2.7207,3.0442,0.0,3.5651,3.7025,3.7862,0.0,3.8685,0.0,3.8742,3.9364,3.9992,4.0443,3.8922,3.8489,3.9724,3.9763,3.9927,4.038,4.077,4.1177,4.1611,4.1896,4.2075,4.2159,4.2419,4.2393,4.2159,4.2159,4.2287,4.2437,4.2259,4.2131,4.2111,4.2474,4.2177,4.1579,4.2134,4.2267,4.2136,4.2136,4.1603,4.0938,4.0938,3.9498,3.7662,3.7534,3.7157,3.6745,3.6745,3.63,3.5786,3.5885,3.5666,3.5419,3.5498,3.5317,3.5098,3.5098,3.5098,3.5008,3.457,3.4481,3.4358,3.3933,3.3902,3.3959,3.3959,3.344,3.3038,3.3028,3.1798,3.0603,2.9892,2.8459,2.752,2.752,2.6992,2.664,2.664,2.664,2.664,2.664,2.664,2.664,2.664,2.664,2.664,2.664,2.6816,2.6816,2.6649,2.6899,2.7147,2.7391,2.7315,2.7544,3.1838,3.2301,3.2406,3.2406,3.1741,3.0583,2.8566,2.6871,2.4997,2.2535,2.2024,2.1642,2.053,2.2487,2.4873,2.6644,0.0,3.2281,3.5663,3.6831,3.7794,3.9029,3.9865,4.049,4.0759,4.1523,4.2042,4.2155,4.0679,4.005,4.0741,4.0777,4.0814,4.0932,4.1696,4.2505,4.3359,4.3255,4.3309,4.3493,4.3318,4.3327,4.3493,4.3493,4.3481,4.3523,4.3518,4.3413,4.329,4.337,4.3141,4.2799,4.2857,4.2674,4.2389,4.2389,4.192,4.1252,4.1252,4.0778,4.0143,3.9771,3.8929,3.8059,3.7954,3.714,3.6225,3.6133,3.6079,3.6026,3.6047,3.6004,3.595,3.595,3.595,3.5769,3.5032,3.4863,3.4648,3.3945,3.3809,3.3809,3.3809,3.3365,3.297,3.2822,3.228,3.186,3.1767,2.9669,2.8122,2.8038,2.7637,2.7308,2.7197,2.7197,2.7197,2.7197,2.7197,2.7205,2.7228,2.7236,2.7244,2.726,2.7291,2.7291,2.726,2.7396,2.7616,2.7961,2.7769,2.8009,3.2099,3.2388,3.2406,3.2406,3.1741,3.0494,2.8157,2.639,2.4365,2.1362,2.0297,1.9698,1.893,2.0934,2.3579,2.6255,2.9418,3.2825,3.6402,3.7586,3.8465,0.0,4.0227,4.0727,4.0772,4.1523,0.0,4.3031,4.2751,4.2637,4.2786,4.2793,4.3085,4.3751,4.3945,4.4102,4.4266,4.4002,4.3868,4.3892,4.3552,4.356,4.39,4.39,4.4048,4.4273,4.4017,4.3884,4.3852,4.3543,4.3335,4.3265,4.3283,4.306,4.2705,4.2705,4.2456,4.2083,4.2083,4.2012,4.1645,4.0275,3.9718,3.941,3.8806,3.838,3.8035,3.7449,3.6993,3.6676,3.6711,3.6422,3.6141,3.6141,3.6141,3.6075,3.5887,3.5756,3.5657,3.5521,3.5476,3.5476,3.5476,3.5395,3.5119,3.449,3.3902,3.3288,3.2734,3.1123,2.9839,2.9274,2.8602,2.7919,2.7274,2.7197,2.7197,2.7197,2.7197,2.726,2.7365,2.7365,2.7434,2.7527,2.771,2.771,2.7535,2.7739,2.7975,2.8226,2.8132,2.8373,3.2186,3.2516,3.2614,3.2614,3.1466,2.9701,2.728,2.5142,2.2906,2.0163,1.9396,1.9119,1.8802,2.0581,2.2827,2.5102,2.7637,3.0876,3.5173,3.6122,3.7324,3.9921,4.0929,4.1598,4.2055,4.2837,4.3341,4.3447,4.346,4.3584,4.3902,4.3926,4.4113,4.4482,4.4482,4.4482,4.4482,4.434,4.4266,4.4266,4.4079,4.4079,4.4266,4.4266,4.4347,4.4475,4.4332,4.4266,4.4259,4.4064,4.3863,4.3701,4.3701,4.3484,4.3114,4.3114,4.3005,4.2874,4.2874,4.2874,4.2692,4.1725,4.0714,3.9851,3.9494,3.8752,3.8021,3.7684,3.742,3.7206,3.7253,3.7119,3.6919,3.6919,3.6603,3.6303,3.6254,3.5881,3.5553,3.5553,3.5553,3.5553,3.5553,3.5553,3.5413,3.5009,3.4716,3.4265,3.3609,3.2844,3.1907,3.0605,2.9984,2.9473,2.9112,2.8673,2.8461,2.8461,2.8051,2.7861,2.7933,2.7947,2.8003,2.8072,2.8217,2.8237,2.8127,2.8242,2.8367,2.8538,2.8936,2.9332,3.2346,3.2694,3.2842,3.2913,3.1254,2.9006,2.6604,2.4169,2.1747,1.9393,1.8961,1.9052,1.9105,2.0498,2.2234,2.4119,2.5992,2.8875,3.3687,3.4663,3.622,0.0,4.1193,0.0,4.2819,4.3604,4.3914,4.3427,4.3407,4.3679,4.4284,4.4308,4.4356,4.4489,4.4482,4.4482,4.4482,4.4482,4.4482,4.4482,4.4482,4.4482,4.4482,4.4482,4.4482,4.4482,4.4482,4.4482,4.4482,4.4482,4.4347,4.4124,4.4124,4.3884,4.3543,4.3543,4.3456,4.3387,4.3387,4.3387,4.3335,4.3032,4.1728,4.0226,3.9987,3.8923,3.7836,3.7666,3.7595,3.7595,3.7595,3.7595,3.7595,3.7595,3.7122,3.6658,3.6658,3.6149,3.5721,3.5721,3.5721,3.5721,3.5721,3.5721,3.5624,3.5438,3.5393,3.5178,3.4478,3.4253,3.364,3.2176,3.1437,3.106,3.106,3.034,2.9793,2.962,2.9024,2.8664,2.8697,2.857,2.8621,2.8834,2.8722,2.8663,2.8694,2.8779,2.8912,2.9131,2.9825,3.0359,3.2903,3.3052,3.2947,3.3262,3.1486,2.9068,2.6732,2.4282,2.1837,1.9468,1.9044,1.9097,1.9109,2.0027,2.1628,2.4107,2.6005,2.8688,3.2925,3.4808,3.6545,3.8569,0.0,0.0,4.1549,4.2288,4.2751,4.2695,4.2695,4.2977,4.3647,4.3673,4.3945,4.4489,4.4482,4.4482,4.4482,4.4482,4.4482,4.4482,4.4482,4.4482,4.4482,4.4482,4.4482,4.4482,4.4482,4.4482,4.4482,4.4482,4.4468,4.4447,4.4447,4.4259,4.3939,4.3939,4.3701,4.3387,4.3387,4.3387,4.3379,4.3344,4.2504,4.1323,4.0217,3.9316,3.854,3.78,3.7595,3.7595,3.7595,3.7595,3.7595,3.7595,3.755,3.7488,3.7488,3.7443,3.7372,3.7372,3.7372,3.7372,3.7372,3.7372,3.7149,3.646,3.6361,3.6145,3.544,3.4803,3.4302,3.4142,3.2795,3.1887,3.1887,3.1168,3.0376,2.9649,2.9541,2.9523,2.9686,2.8991,2.8983,2.9842,2.9198,2.8911,2.906,2.9174,2.9694,3.0511,3.0533,3.098,3.2177,3.3058,3.3474,3.307,3.1262,2.8936,2.6514,2.4086,2.1766,1.98,1.9478,1.9524,1.9504,1.986,2.0811,2.2854,2.3769,2.568,2.9805,3.1483,3.3672,3.7414,3.8953,0.0,0.0,0.0,4.2431,4.2094,4.1715,4.1771,4.2412,4.2817,4.3118,4.3369,4.3363,4.3363,4.3363,4.3363,4.3363,4.3363,4.3363,4.3552,4.397,4.397,4.4149,4.4482,4.4482,4.4482,4.4482,4.4482,4.4482,4.4482,4.4482,4.4411,4.4303,4.4303,4.4192,4.4042,4.4042,4.4042,4.4011,4.3815,4.3115,4.2132,4.0947,4.0034,3.9193,3.8173,3.7888,3.7836,3.7649,3.7595,3.7595,3.7595,3.7631,3.7667,3.7667,3.7667,3.7667,3.7667,3.7622,3.7595,3.7595,3.7595,3.7497,3.7202,3.7176,3.6916,3.6179,3.5854,3.5681,3.5774,3.4016,3.2842,3.2842,3.2119,3.1589,3.1416,3.0961,3.0771,3.0997,3.0737,3.0778,3.1157,3.0871,3.0793,3.0836,3.0841,3.1054,3.1438,3.1858,3.2302,3.1213,3.245,3.3167,3.2653,3.0836,2.8577,2.6382,2.3984,2.1768,2.0062,1.9754,1.9782,1.9782,1.9782,2.027,2.1666,2.2342,2.3919,2.7552,2.933,3.1872,3.623,0.0,3.9104,4.1494,4.1916,4.1894,4.1488,4.1065,4.1006,4.1444,4.1866,4.226,4.2578,4.2611,4.2611,4.2611,4.2611,4.2611,4.2611,4.2611,4.2834,4.3284,4.3284,4.3532,4.3926,4.3926,4.4038,4.4229,4.4229,4.4332,4.4482,4.4482,4.4482,4.4482,4.4482,4.4482,4.4482,4.4482,4.4482,4.4447,4.4237,4.3767,4.3103,4.2015,4.0964,4.0031,3.9223,3.8821,3.85,3.8038,3.7897,3.7897,3.7923,3.7957,3.7991,3.8015,3.7912,3.7772,3.7529,3.7389,3.7265,3.7076,3.7066,3.7101,3.7193,3.721,3.7011,3.6491,3.6262,3.6166,3.6258,3.4695,3.3799,3.4149,3.3311,3.278,3.2729,3.2201,3.1959,3.2149,3.197,3.1986,3.2204,3.2088,3.2033,3.2033,3.2049,3.2171,3.2439,3.2954,3.3462,3.0166,3.1175,3.1701,3.2035,3.0254,2.7999,2.6368,2.4073,2.1813,2.0158,1.9782,1.9782,1.9782,1.9782,2.0086,2.0881,2.2424,2.4377,2.6848,2.9452,3.2137,0.0,0.0,3.7472,3.9441,4.0369,4.0834,4.0897,4.0899,4.0915,4.0903,4.0903,4.1426,4.2555,4.2611,4.2611,4.2611,4.2611,4.2611,4.2611,4.2611,4.2611,4.2606,4.2606,4.2606,4.2606,4.2606,4.3009,4.3627,4.3627,4.397,4.4482,4.4482,4.4482,4.4482,4.4482,4.4482,4.4482,4.4482,4.4482,4.4482,4.4482,4.4482,4.4332,4.3513,4.2255,4.1087,4.1087,4.0446,3.9593,3.8807,3.8586,3.8602,3.867,3.864,3.8632,3.8752,3.8494,3.7964,3.716,3.6802,3.6435,3.5924,3.5833,3.5927,3.6255,3.6304,3.6304,3.6311,3.5642,3.522,3.522,3.46,3.469,3.5879,3.4883,3.385,3.3056,3.2982,3.2987,3.2987,3.2229,3.2197,3.2987,3.2392,3.2092,3.2092,3.2312,3.2852,3.369,3.369,3.4173,2.7336,2.8796,2.9919,2.8314,2.6873,2.5454,2.3847,2.2383,2.1103,2.0007,1.9801,1.981,1.9788,1.9804,2.0637,2.3134,2.4083,2.5384,2.7877,3.0647,0.0,3.4424,3.7525,3.9788,4.0369,4.0638,4.0837,4.0902,4.0902,4.0915,4.0905,4.0907,4.1034,4.1359,4.14,4.1403,4.1356,4.1403,4.1426,4.1426,4.1426,4.1637,4.2063,4.2063,4.2308,4.273,4.273,4.2847,4.3053,4.3053,4.3168,4.3392,4.3774,4.3958,4.4016,4.4454,4.4639,4.4639,4.4639,4.4639,4.4639,4.4639,4.4639,4.4601,4.4344,4.3478,4.232,4.0919,4.0183,3.9593,3.8814,3.8594,3.8602,3.8624,3.8685,3.8752,3.8803,3.8722,3.8449,3.7632,3.736,3.6977,3.6281,3.6149,3.6185,3.6261,3.6318,3.6318,3.6318,3.6088,3.5954,3.5954,3.546,3.5038,3.4801,3.4408,3.4188,3.4104,3.4077,3.4148,3.43,3.4051,3.4051,3.4305,3.4111,3.4027,3.3989,3.4084,3.433,3.4748,3.4746,3.4889,2.4995,2.6347,2.7448,2.5917,2.4861,2.3919,2.2605,2.1632,2.0768,1.9973,1.9801,1.9822,1.9811,1.9835,2.0532,2.2624,2.3581,2.4967,2.749,3.0287,0.0,3.5098,0.0,0.0,4.0395,4.0664,4.0871,4.0934,4.0944,4.0921,4.0948,4.0956,4.0939,4.0891,4.09,4.0893,4.0858,4.0891,4.0907,4.0907,4.0907,4.1101,4.1445,4.1445,4.1706,4.2082,4.2082,4.2201,0.0,4.2406,4.2563,4.2834,4.3221,4.3349,4.341,4.3814,4.4139,4.4309,4.4309,4.4499,4.4705,4.4705,4.4705,4.4705,4.4705,4.4307,4.3498,4.1948,4.1127,4.0531,3.9707,3.9275,3.908,3.9063,3.9168,3.9234,3.9261,3.9208,3.888,3.8035,3.7485,3.6885,3.619,3.5812,3.5627,3.5837,3.5782,3.5764,3.5819,3.5807,3.5752,3.5752,3.5529,3.5087,3.4506,3.4463,3.4524,3.4704,3.4715,3.4776,3.4903,3.4908,3.4908,3.4908,3.4908,3.4926,3.5,3.5102,3.5174,3.5294,3.529,3.5325,0.0,2.381,2.4516,2.4366,2.381,2.3025,2.2304,2.1519,0.0,1.9932,1.9792,1.9875,2.0066,2.0053,2.0134,2.0578,2.2008,2.3955,2.6422,2.9255,0.0,0.0,3.8838,3.9865,3.9783,4.048,4.0919,4.0984,4.1003,4.0984,4.1004,4.106,4.1054,4.1017,4.0939,4.0914,4.091,4.0912,4.0914,4.0914,4.0914,4.0917,4.0917,4.0917,4.0917,4.0917,4.0917,4.1241,4.1738,4.1738,4.2118,4.2674,4.2735,4.2727,4.2765,4.2787,4.3182,4.3661,4.3661,4.4066,4.46,4.46,4.4619,4.4644,4.4644,4.4656,4.4523,4.3737,4.2869,4.2033,4.1278,4.0451,3.9828,3.9954,3.9927,3.9911,3.997,3.9739,3.9269,3.8419,3.7405,3.6491,3.5935,3.5103,3.4663,3.5124,3.5016,3.4936,3.4982,3.4945,3.4913,3.4913,3.4913,3.4908,3.4908,3.4908,3.4908,3.4908,3.4908,3.4908,3.4908,3.4922,3.4931,3.4903,3.4921,3.503,3.5234,3.5436,3.5497,3.5409,3.5502,3.5501,1.9604,0.0,2.2564,2.1284,2.0799,2.0611,0.0,2.0236,2.0048,1.9857,1.9882,2.0359,2.165,2.142,2.2095,2.5329,2.6851,2.8324,3.0191,3.3979,0.0,3.9735,4.0969,4.1364,4.0677,4.0791,4.0919,4.0984,4.0991,4.1001,4.0982,4.1002,4.1009,4.1001,4.1043,4.0986,4.09,4.0954,4.097,4.0988,4.0988,4.0993,4.1045,4.1045,4.1045,4.1045,4.1045,4.111,4.1245,4.1245,4.1349,4.155,4.202,4.2202,4.2263,4.2741,4.3041,4.315,4.315,4.3269,4.3418,4.3418,4.3752,4.4162,4.4162,4.4405,4.4523,4.3737,4.2869,4.2146,4.1957,4.0831,3.99,4.0597,4.0259,3.9845,3.9824,3.9884,3.9629,3.8828,3.8444,3.8005,3.7275,3.643,3.587,3.5992,3.5455,3.5066,3.5075,3.5034,3.4964,3.4964,3.4931,3.4908,3.4908,3.4908,3.4908,3.4908,3.4908,3.4908,3.4908,3.505,3.5123,3.512,3.5294,3.5361,3.5448,3.558,3.5646,3.563,3.5702,3.572,1.7946,1.9788,2.1481,2.0577,2.0352,2.0352,2.0352,2.0086,1.9801,1.9858,0.0,2.0434,2.1801,2.2031,2.3054,2.6183,2.7808,2.9829,0.0,0.0,3.9457,4.0754,4.1358,4.144,4.0949,4.0907,4.0914,4.0967,4.098,4.0991,4.1001,4.1371,4.1616,4.1616,4.1625,4.1429,4.099,4.1377,4.1616,4.1588,4.2007,4.2013,4.1641,4.1641,4.1451,4.1109,4.1109,4.1109,4.1109,4.1109,4.1109,4.1143,4.1472,4.1602,4.1632,4.1986,4.2297,4.2611,4.2988,4.3314,4.3543,4.3543,4.3812,4.4023,4.3652,4.425,4.4957,4.4321,4.3529,4.288,4.288,4.1952,4.1099,4.1597,4.1069,4.0507,4.0507,4.0236,3.9882,3.9426,3.9019,3.8626,3.8213,3.7433,3.6867,3.6936,3.6533,3.6096,3.5728,3.5654,3.547,3.5095,3.4992,3.5014,3.5098,3.5064,3.5085,3.5046,3.5041,3.5051,3.5122,3.5251,3.5294,3.5293,3.5496,3.5572,3.5587,3.5757,3.5805,3.5808,3.5853,3.5902,1.7458,1.9244,2.1017,2.0862,2.1003,2.1163,2.1089,2.0602,2.0224,2.0313,0.0,2.0759,2.1885,2.2821,0.0,2.605,2.8,3.0951,3.5702,3.8518,4.0272,4.0832,4.12,4.1243,4.0949,4.0907,4.0907,4.0907,4.0969,4.098,4.098,4.1701,4.2101,4.2101,4.2103,4.177,4.1101,4.1898,4.2354,4.2471,4.3231,4.3194,4.2513,4.2513,4.2135,4.1489,4.1489,4.1489,4.145,4.1336,4.1375,4.145,4.1336,4.1299,4.1299,4.1299,4.1515,4.2002,4.2834,4.3586,4.4102,4.4102,4.416,4.4102,4.3435,4.4299,4.5419,4.5082,4.4402,4.376,4.3865,4.3205,4.2524,4.2644,4.2064,4.1483,4.1483,4.0782,4.0197,4.0197,3.9535,3.8976,3.9013,3.8313,3.7762,3.7885,3.7731,3.7398,3.6693,3.6586,3.6225,3.5459,3.534,3.5355,3.5334,3.5307,3.5288,3.5285,3.5258,3.5299,3.5441,3.5459,3.546,3.5485,3.564,3.5765,3.5735,3.5917,3.5981,3.5927,3.5982,3.5989,1.8168,1.9893,2.1061,2.0183,2.1032,2.195,2.1388,2.1694,2.2115,2.2252,0.0,2.2852,2.4505,2.5557,2.699,0.0,0.0,3.5665,0.0,0.0,4.1575,4.0985,4.2192,4.2541,4.1024,4.0907,4.0907,4.0907,4.0912,4.0914,4.0914,4.1095,4.1185,4.1185,4.1202,4.1134,4.1023,4.1818,4.2583,4.3324,4.3436,4.3484,4.3387,4.3387,4.3311,4.3235,4.3235,4.3235,4.3159,4.2439,4.2552,4.3121,4.24,4.2135,4.2135,4.2135,4.1746,4.1355,4.2152,4.3013,4.368,4.368,4.4029,4.4421,4.4311,4.4855,4.547,4.5442,4.472,4.4062,4.4563,4.3555,4.2614,4.3334,4.2847,4.224,4.224,4.1629,4.108,4.108,4.0543,4.0072,4.0086,3.9361,3.8793,3.8816,3.8162,3.7679,3.7686,3.7675,3.7355,3.6636,3.6508,3.6148,3.5464,3.5387,3.5469,3.5601,3.5472,3.5433,3.5633,3.5647,3.5708,3.5817,3.5898,3.5953,3.595,3.5964,3.6007,3.5965,3.6008,3.6009,1.7668,1.9043,2.0042,2.0558,2.1907,2.3222,2.3357,2.3347,2.3463,2.4034,2.419,2.4606,0.0,0.0,2.935,3.2889,0.0,3.8318,3.952,4.1147,4.1881,4.0985,4.2034,4.2461,4.1687,4.1179,4.1102,4.157,4.1179,4.0907,4.0907,4.1388,4.1666,4.1666,4.1648,4.1883,4.2336,4.2261,4.2652,4.3507,4.3962,4.42,4.4262,4.4262,4.3994,4.3614,4.3614,4.3614,4.3577,4.3159,4.3235,4.3577,4.3159,4.3008,4.3008,4.3008,4.3047,4.3163,4.3504,4.3921,4.4262,4.4262,4.4458,4.4564,4.4147,4.487,4.5718,4.5127,4.4906,4.4853,4.5148,4.4659,4.4167,4.4582,4.396,4.3297,4.3407,4.2717,4.2082,4.2233,4.1596,4.105,4.1109,4.0403,3.9888,3.9911,3.9572,3.9182,3.8752,3.8714,3.8418,3.759,3.7469,3.7135,3.634,3.6268,3.612,3.5706,3.5691,3.5722,3.5801,3.5802,3.5834,3.5899,3.5958,3.6004,3.6004,3.6004,3.6004,3.6004,3.6004,3.6004,1.7723,1.8555,1.9344,2.1273,2.2695,2.3964,2.5286,2.5074,2.4996,2.636,2.6649,2.6861,0.0,2.9449,0.0,3.5816,3.8432,3.9991,3.9975,4.1243,4.1883,4.1028,4.1673,4.2154,4.1922,4.1338,4.1182,4.1883,4.1299,4.0908,4.0908,4.1572,4.192,4.1914,4.1931,4.2241,4.292,4.2241,4.2539,4.3811,4.4492,4.4883,4.5097,4.5097,4.4754,4.4145,4.4145,4.4145,4.4145,4.3958,4.3994,4.4145,4.3958,4.3882,4.3843,4.3653,4.4109,4.4795,4.4795,4.4907,4.5097,4.5097,4.5097,4.4982,4.4335,4.507,4.5898,4.5064,4.5209,4.5579,4.5535,4.5513,4.5513,4.5513,4.4906,4.4384,4.4564,4.3785,4.3151,4.3335,4.2676,4.207,4.2135,4.1433,4.0923,4.0952,4.0807,4.0477,3.9818,3.9746,3.9448,3.8585,3.851,3.819,3.7405,3.7333,3.7084,3.6384,3.607,3.5912,3.5912,3.5894,3.5904,3.5904,3.5953,3.5997,3.5997,3.5997,3.5997,3.5997,3.6192,3.627,1.9447,1.9635,1.9782,2.2246,2.2825,2.3489,2.6088,2.6608,2.7247,2.9775,3.0325,3.0324,3.0422,3.3133,3.5955,3.7884,3.9667,4.0793,4.0791,4.162,4.1905,4.1087,4.176,4.1978,4.116,4.1043,4.1004,4.1082,4.1043,4.1004,4.1004,4.1043,4.108,4.1072,4.108,4.1119,4.1189,4.1119,4.2287,4.4717,4.4756,4.5183,4.5924,4.5924,4.5888,4.581,4.581,4.581,4.5774,4.5019,4.5133,4.5735,4.5021,4.4717,4.4603,4.3882,4.4109,4.4795,4.4795,4.5284,4.5924,4.5924,4.5924,4.5888,4.5849,4.5927,4.6002,4.5916,4.5944,4.5885,4.5563,4.5513,4.5513,4.5513,4.5427,4.5385,4.5398,4.4769,4.4174,4.419,4.362,4.3075,4.3114,4.237,4.1811,4.1811,4.1181,4.07,4.0769,4.0781,4.0505,3.9765,3.9694,3.9345,3.8453,3.8377,3.8375,3.8294,3.6781,3.5887,3.5887,3.589,3.5892,3.5892,3.5892,3.5893,3.5893,3.5893,3.5893,3.5932,3.6749,3.71,1.9064,1.9826,2.0504,2.2493,2.3772,2.5057,2.7122,2.8412,2.9935,3.2529,3.3075,3.3073,3.3041,3.5018,3.6992,3.8192,3.9398,4.0167,4.0167,4.0901,4.1135,4.0279,4.1429,4.2179,4.1828,4.1321,4.1204,4.1789,4.1321,4.101,4.101,4.101,4.1009,4.1007,4.1008,4.1009,4.1007,4.1008,4.1779,4.3261,4.3261,4.3687,4.4503,4.5039,4.5247,4.5282,4.5799,4.5999,4.5963,4.566,4.5738,4.5963,4.5662,4.5548,4.5509,4.5206,4.5281,4.5548,4.5548,4.5738,4.5999,4.5999,4.5999,4.5999,4.5999,4.5999,4.5999,4.5999,4.5999,4.598,4.5845,4.5819,4.5819,4.5819,4.5747,4.5703,4.5799,4.5075,4.4442,4.4572,4.3538,4.2827,4.3355,4.2299,4.1584,4.2073,4.147,4.0954,4.1025,4.1029,4.0923,4.0638,3.994,3.9354,3.9042,3.8693,3.8654,3.8964,3.7564,3.6707,3.6707,3.6201,3.589,3.589,3.589,3.589,3.589,3.589,3.589,3.5929,3.624,3.6395,1.9209,2.0231,2.1288,2.3006,2.4712,2.6535,2.8479,3.007,3.1896,3.4732,3.5321,3.5222,3.4992,3.6151,3.7311,3.7911,3.8768,3.9338,3.9338,3.9815,4.0072,3.9762,4.0781,4.1601,4.1874,4.1365,4.1287,4.1874,4.1365,4.1013,4.1013,4.1013,4.1014,4.1014,4.1014,4.1014,4.1014,4.1014,4.1326,4.1912,4.1912,4.25,4.3621,4.4178,4.4432,4.4469,4.5002,4.5247,4.5247,4.5247,4.5384,4.5628,4.5628,4.576,4.5999,4.5999,4.5999,4.5999,4.5999,4.5999,4.5999,4.5999,4.5999,4.5999,4.5999,4.5999,4.5999,4.5999,4.5999,4.5999,4.5999,4.5999,4.5999,4.5999,4.5938,4.5899,4.5983,4.5445,4.4998,4.5157,4.4033,4.3274,4.3882,4.2591,4.1678,4.2209,4.1602,4.1109,4.1109,4.1109,4.1109,4.1109,4.0367,3.986,3.986,3.9511,3.9472,3.986,3.8966,3.8071,3.7214,3.6629,3.6162,3.5929,3.6162,3.6317,3.6317,3.659,3.6707,3.6746,3.6985,3.7144,2.0275,2.1092,2.2147,2.3875,2.5656,2.759,3.0168,3.14,3.3017,3.6401,3.7119,3.6862,3.6059,3.6594,3.7207,3.7196,3.7902,3.8487,3.8487,3.8474,3.8826,3.9682,3.9805,4.015,4.0994,4.1109,4.1109,4.1109,4.1109,4.1109,4.1109,4.1109,4.1117,4.1095,4.1118,4.1118,4.1095,4.1118,4.1109,4.1109,4.1109,4.1964,4.3583,4.3583,4.3583,4.3583,4.3582,4.3582,4.3582,4.3582,4.4067,4.479,4.479,4.5282,4.5966,4.5966,4.5963,4.6002,4.6002,4.6002,4.5999,4.5999,4.5999,4.5999,4.5999,4.5999,4.5999,4.5999,4.5999,4.5999,4.5999,4.5999,4.5999,4.5999,4.5999,4.5999,4.5999,4.5999,4.6002,4.6002,4.5323,4.4795,4.4795,4.3389,4.2285,4.2285,4.1602,4.1109,4.1109,4.1109,4.1109,4.1109,4.1109,4.1109,4.1109,4.1109,4.1109,4.1109,4.1109,3.994,3.7331,3.7214,3.6824,3.5929,3.6785,3.7214,3.7214,3.8071,3.85,3.8501,3.9375,3.9773,2.043,2.1551,2.3254,2.5562,2.7917,3.0153,3.2109,3.3643,3.5327,3.7559,3.757,3.6904,3.6067,3.661,3.7192,3.7199,3.7411,3.7575,3.7575,3.7613,3.775,3.8021,3.9087,3.9881,4.015,4.0725,4.1109,4.1109,4.1109,4.1109,4.1109,4.1109,4.111,4.1117,4.1112,4.1112,4.1117,4.1112,4.1109,4.1109,4.1109,4.1371,4.1879,4.2415,4.2694,4.2733,4.3316,4.3582,4.3582,4.3582,4.3733,4.3957,4.3957,4.4104,4.4324,4.4324,4.4685,4.5141,4.5141,4.5523,4.5999,4.5999,4.5999,4.5999,4.5999,4.5999,4.5999,4.5999,4.5999,4.5999,4.5999,4.5999,4.5999,4.5999,4.5999,4.5999,4.5999,4.5548,4.5172,4.5172,4.4528,4.3958,4.3958,4.3047,4.2285,4.2285,4.1602,4.1109,4.1109,4.1109,4.1109,4.1109,4.1109,4.1109,4.1109,4.1109,4.1109,4.1109,4.1109,4.0758,3.9979,3.8772,3.7993,3.772,3.7993,3.811,3.811,3.8354,3.8489,3.8529,3.8708,3.8828,2.1323,2.3022,2.515,2.7396,2.9628,3.1935,3.4317,3.5645,3.6663,3.7727,3.7546,3.6935,3.6091,3.6363,3.6673,3.6717,3.6718,3.6716,3.6716,3.6742,3.692,3.7266,3.8191,3.9075,3.9728,4.0265,4.0725,4.107,4.1109,4.1109,4.1109,4.1109,4.1109,4.1109,4.1109,4.1109,4.1109,4.1109,4.1109,4.1109,4.1109,4.1109,4.111,4.1589,4.1802,4.1843,4.2374,4.2613,4.2613,4.2613,4.2812,4.3085,4.3085,4.3317,4.3582,4.3582,4.392,4.4323,4.4323,4.4647,4.5108,4.5421,4.5525,4.5594,4.5898,4.5999,4.5999,4.5999,4.5999,4.5999,4.5999,4.5999,4.5999,4.5999,4.5999,4.5999,4.5999,4.5359,4.4795,4.4795,4.4148,4.3614,4.3614,4.2971,4.2478,4.2478,4.1678,4.1109,4.1109,4.1109,4.1109,4.1109,4.1109,4.1109,4.1109,4.1109,4.1109,4.1109,4.1109,4.1109,4.1109,4.0096,3.92,3.85,3.8693,3.8826,3.8826,3.9289,3.9491,3.9491,3.9449,3.9441,2.2573,2.4844,2.7274,2.9253,3.1127,3.327,3.639,3.7091,3.7097,3.7187,3.7142,3.6869,3.6119,3.5932,3.5935,3.5996,3.5992,3.5992,3.5992,3.5992,3.6302,3.7073,3.7266,3.7922,3.9538,3.9768,4.0152,4.1036,4.1114,4.1114,4.1114,4.1114,4.1112,4.111,4.111,4.111,4.1109,4.1109,4.1109,4.1109,4.1109,4.1109,4.1109,4.1109,4.1109,4.1109,4.1109,4.1109,4.1109,4.1109,4.1544,4.2174,4.2174,4.2655,4.3355,4.3355,4.3432,4.3469,4.3469,4.3545,4.3734,4.4469,4.4682,4.4826,4.5557,4.5799,4.5796,4.5864,4.5901,4.5898,4.5963,4.5999,4.5999,4.5999,4.5999,4.5999,4.5999,4.5437,4.487,4.4717,4.4072,4.3577,4.3765,4.32,4.2669,4.2556,4.1719,4.1109,4.1109,4.1109,4.1109,4.1109,4.1109,4.1109,4.1109,4.1109,4.1109,4.1109,4.1109,4.1081,4.1103,4.1082,4.0369,3.8772,3.9203,3.9452,3.9453,4.0504,4.1006,4.1006,4.0997,4.0992,2.2774,2.4485,2.6874,3.0625,3.3356,3.5343,3.6086,3.6243,3.6441,3.707,3.6717,3.6201,3.6034,3.5998,3.5999,3.5993,3.5992,3.5992,3.5992,3.5992,3.607,3.6263,3.6881,3.7694,3.8666,3.9399,4.0172,4.1026,4.1104,4.1104,4.1104,4.1104,4.11,4.1091,4.1091,4.1084,4.1109,4.1109,4.1109,4.1109,4.1109,4.1109,4.1109,4.1109,4.1109,4.1109,4.1109,4.1109,4.1109,4.1109,4.1199,4.1372,4.1372,4.1459,4.1628,4.1628,4.2047,4.2575,4.2575,4.3046,4.362,4.3808,4.3844,4.3882,4.4067,4.4104,4.425,4.4899,4.5075,4.5214,4.583,4.5999,4.5999,4.5999,4.5999,4.5999,4.5999,4.5849,4.5359,4.4109,4.3352,4.3467,4.5167,4.3921,4.2404,4.1567,4.1262,4.1109,4.1109,4.1109,4.1109,4.1109,4.1109,4.1109,4.1109,4.1109,4.1109,4.1109,4.1109,4.1104,4.1104,4.1113,4.0914,4.0563,4.0585,4.0648,4.064,4.0894,4.1001,4.0999,4.0935,4.0935,2.2635,2.4645,2.7304,3.1635,3.4361,3.5992,3.5992,3.5992,3.6114,3.6556,3.6277,3.5992,3.5992,3.5992,3.5992,3.5992,3.5992,3.5992,3.5992,3.5992,3.5992,3.5992,3.6769,3.7624,3.8439,3.9294,4.0146,4.1035,4.1113,4.1113,4.1113,4.1113,4.1111,4.1104,4.1104,4.11,4.1092,4.1087,4.1082,4.1082,4.1114,4.1109,4.1109,4.1109,4.1109,4.1109,4.1109,4.1109,4.1109,4.1109,4.1109,4.1109,4.1109,4.1109,4.1109,4.1109,4.1372,4.1716,4.1716,4.2007,4.2454,4.2851,4.2969,4.3046,4.3469,4.3582,4.3696,4.4104,4.4395,4.472,4.5143,4.5628,4.5999,4.5999,4.5999,4.5999,4.5999,4.5999,4.5735,4.4902,4.3237,4.2289,4.3467,4.3996,4.3542,4.1412,4.1109,4.1109,4.1109,4.1109,4.1109,4.1109,4.1109,4.1109,4.1109,4.1109,4.1118,4.1093,4.1094,4.1082,4.1025,4.0983,4.1012,4.1012,4.0966,4.0955,4.0942,4.0963,4.0956,4.0954,4.0937,4.0907,2.2023,2.484,2.8125,3.2173,3.4508,3.5836,3.5953,3.5992,3.5992,3.5992,3.5992,3.5992,3.5992,3.5992,3.5992,3.5992,3.5992,3.5992,3.5992,3.5992,3.607,3.6226,3.6852,3.7669,3.8638,3.9379,4.0157,4.1043,4.1081,4.1081,4.1081,4.1081,4.1119,4.1117,4.1117,4.1115,4.1113,4.1104,4.1099,4.1099,4.1082,4.1114,4.1114,4.111,4.1109,4.1109,4.1109,4.1109,4.1109,4.1109,4.1109,4.1109,4.1109,4.1109,4.1109,4.1109,4.1109,4.1109,4.1109,4.1109,4.1199,4.1883,4.2091,4.2213,4.2969,4.3163,4.3201,4.3393,4.377,4.4174,4.4574,4.5312,4.5867,4.528,4.5591,4.5999,4.5999,4.5999,4.5999,4.5999,4.3352,4.1109,4.1109,4.3352,4.4223,4.1528,4.1109,4.1109,4.1109,4.1109,4.1109,4.1109,4.1109,4.1092,4.1057,4.1093,4.1091,4.1068,4.1052,4.1023,4.091,4.0907,4.0907,4.0907,4.0907,4.0907,4.0907,4.0907,4.0907,4.0907,4.0907,4.0907,2.0542,2.4414,2.8776,3.1576,3.3568,3.5057,3.5836,3.5992,3.5992,3.5992,3.5992,3.5992,3.5992,3.5992,3.5992,3.5992,3.5992,3.5992,3.5992,3.5992,3.6265,3.7048,3.7243,3.7906,3.9467,3.974,4.0168,4.1027,4.1105,4.1105,4.1105,4.1105,4.1101,4.1092,4.1091,4.1085,4.1113,4.1112,4.1111,4.1111,4.1099,4.1092,4.1092,4.1117,4.1109,4.1109,4.1109,4.1109,4.1109,4.1109,4.1109,4.1109,4.1109,4.1109,4.1109,4.1109,4.1109,4.1109,4.1109,4.1109,4.111,4.1241,4.1244,4.1286,4.1412,4.1416,4.1628,4.2574,4.2851,4.3353,4.528,4.5901,4.5282,4.2414,4.3918,4.5999,4.5999,4.5999,4.5999,4.5999,4.3352,4.1109,4.1109,4.1451,4.1604,4.1185,4.1109,4.1109,4.1109,4.1109,4.1109,4.1109,4.1109,4.1037,4.0947,4.1011,4.1045,4.0935,4.0926,4.0921,4.0907,4.0907,4.0907,4.0907,4.0907,4.0907,4.0907,4.0907,4.0907,4.0907,4.0907,4.0907,2.121,2.4685,2.8186,3.0758,3.2673,3.4197,3.5051,3.5638,3.5991,3.5986,3.5982,3.5942,3.5991,3.5992,3.5992,3.5992,3.6374,3.6679,3.6679,3.6679,3.6992,3.7851,3.8018,3.8493,3.9663,4.0249,4.0679,4.107,4.1109,4.1109,4.1109,4.1109,4.1107,4.1103,4.1103,4.11,4.1095,4.1089,4.1082,4.1113,4.1102,4.1096,4.1095,4.1117,4.1109,4.1109,4.1109,4.1109,4.1109,4.1109,4.1109,4.1109,4.1109,4.1109,4.1109,4.1109,4.1109,4.1109,4.1109,4.1109,4.1109,4.1109,4.1109,4.1109,4.1109,4.1109,4.1198,4.1672,4.1799,4.2046,4.3008,4.3239,4.289,4.1457,4.2215,4.3235,4.3239,4.4681,4.5453,4.362,4.2088,4.1081,4.1081,4.1081,4.1081,4.1081,4.1081,4.1081,4.1081,4.1089,4.1051,4.1001,4.1,4.0967,4.0926,4.0945,4.0952,4.091,4.0907,4.0907,4.0907,4.0907,4.0907,4.0907,4.0907,4.0907,4.0907,4.0907,4.0907,4.0907,4.0907,4.0907,2.1367,2.4055,2.635,2.9122,3.1307,3.3022,3.411,3.5049,3.5714,3.5936,3.5969,3.593,3.5981,3.6176,3.6292,3.6292,3.6979,3.7513,3.7513,3.7513,3.7864,3.8683,3.8858,3.9181,4.0039,4.0708,4.1102,4.1102,4.1106,4.1109,4.1109,4.1109,4.1109,4.1109,4.1109,4.1109,4.1109,4.1102,4.1094,4.1084,4.1108,4.11,4.11,4.1118,4.1109,4.1109,4.1109,4.1109,4.1109,4.1109,4.1109,4.1109,4.1109,4.1109,4.1109,4.1109,4.1112,4.1115,4.111,4.1112,4.1118,4.1081,4.1082,4.112,4.111,4.1109,4.1109,4.1109,4.1109,4.1109,4.1109,4.1082,4.1095,4.1095,4.1099,4.1098,4.1114,4.3008,4.3964,4.1525,4.1065,4.1055,4.1055,4.1055,4.1055,4.1055,4.1055,4.1055,4.1055,4.1048,4.1021,4.0914,4.0907,4.0907,4.0907,4.0907,4.0907,4.0907,4.0907,4.0896,4.0871,4.0893,4.0907,4.0907,4.0907,4.0907,4.0907,4.0907,4.0907,4.0907,4.0907,4.0907,1.9753,2.1386,2.2908,2.6351,2.908,3.1378,3.3093,3.4147,3.4962,3.576,3.5959,3.5963,3.5914,3.6565,3.714,3.714,3.7875,3.8417,3.8417,3.8417,3.873,3.9552,3.9633,3.9983,4.0841,4.1022,4.1115,4.1115,4.1098,4.1109,4.1109,4.1109,4.1109,4.1109,4.1109,4.1109,4.1109,4.1108,4.1108,4.1107,4.1085,4.1112,4.1112,4.1084,4.1109,4.1109,4.1109,4.1109,4.1109,4.1109,4.1109,4.1109,4.1109,4.1109,4.1109,4.1109,4.1081,4.1092,4.1115,4.1084,4.1102,4.1108,4.1111,4.1107,4.1118,4.1109,4.1109,4.1109,4.1109,4.1109,4.1109,4.1113,4.1106,4.1106,4.1035,4.1033,4.1109,4.111,4.1103,4.0921,4.0928,4.0898,4.0898,4.0898,4.0898,4.0898,4.0898,4.0898,4.0898,4.0924,4.0912,4.0907,4.0907,4.0907,4.0907,4.0907,4.0907,4.0907,4.0907,4.0863,4.079,4.0855,4.0907,4.0907,4.0907,4.0907,4.0907,4.0907,4.0907,4.0907,4.0907,4.0907,1.8579,0.0,2.2287,2.4044,2.6851,2.9499,3.062,3.2886,3.4798,3.5056,3.5556,3.5938,3.5886,3.6174,3.6419,3.6371,3.752,3.8434,3.8424,3.893,3.9592,4.0411,4.0042,4.0061,4.0968,4.1096,4.1106,4.1113,4.1083,4.1089,4.1089,4.1089,4.1092,4.1099,4.1099,4.1103,4.1108,4.1109,4.1109,4.1108,4.1095,4.1082,4.1113,4.1095,4.1087,4.1087,4.1087,4.1081,4.1109,4.1109,4.1109,4.1109,4.1109,4.1109,4.111,4.1082,4.1091,4.1098,4.1107,4.1109,4.1113,4.1093,4.1098,4.1096,4.109,4.1087,4.1087,4.1087,4.1087,4.1087,4.1087,4.1115,4.1108,4.1085,4.1033,4.0988,4.1074,4.1009,4.0907,4.0907,4.0907,4.0907,4.0907,4.0907,4.0907,4.0907,4.0907,4.0907,4.0907,4.0907,4.0907,4.0907,4.0907,4.0907,4.0907,4.0907,4.0907,4.0907,4.0907,4.0891,4.0853,4.0888,4.0907,4.0907,4.0907,4.0907,4.0907,4.0907,4.0907,4.0907,4.0907,4.0907,1.756,0.0,0.0,2.2833,2.5053,2.7426,2.9132,3.1279,3.3111,3.3678,3.4685,3.5457,3.5442,3.574,3.6025,3.6273,3.7461,3.8495,3.8795,3.934,4.0001,4.0896,4.0493,4.0395,4.0992,4.1081,4.1052,4.106,4.1108,4.1113,4.1113,4.1113,4.1118,4.1087,4.1092,4.1097,4.1104,4.1104,4.1104,4.1104,4.109,4.1119,4.1113,4.1102,4.1098,4.1102,4.1102,4.1096,4.1085,4.1081,4.1118,4.1117,4.111,4.1112,4.112,4.1092,4.1102,4.1112,4.1085,4.1089,4.1091,4.1104,4.1109,4.1109,4.1109,4.1109,4.1109,4.1109,4.1109,4.1109,4.1109,4.1115,4.1075,4.1056,4.1031,4.0972,4.1017,4.0954,4.0907,4.0907,4.0907,4.0907,4.0907,4.0907,4.0907,4.0907,4.0907,4.0907,4.0907,4.0907,4.0907,4.0907,4.0907,4.0907,4.0907,4.0907,4.0907,4.0907,4.0907,4.0907,4.0907,4.0907,4.0907,4.0907,4.0907,4.0907,4.0907,4.0907,4.0907,4.0907,4.0907,4.0907,0.0,0.0,0.0,0.0,2.3688,2.5237,2.8552,2.9365,2.9898,3.1583,3.3305,3.4482,3.4546,3.5256,3.6107,3.6909,3.777,3.8677,3.9494,3.9651,3.9963,4.0819,4.0935,4.0937,4.0937,4.0932,4.0912,4.0914,4.102,4.1073,4.1073,4.1073,4.1113,4.1113,4.1086,4.1093,4.1093,4.1093,4.1093,4.1093,4.1109,4.1102,4.1112,4.11,4.1102,4.1112,4.1112,4.1113,4.1112,4.1102,4.1096,4.1095,4.1117,4.1082,4.1096,4.1096,4.1113,4.1093,4.1091,4.1098,4.1109,4.1109,4.1109,4.1109,4.1109,4.1109,4.1109,4.1109,4.1109,4.1108,4.1108,4.1114,4.1068,4.1028,4.1035,4.1045,4.0948,4.0907,4.0907,4.0907,4.0907,4.0907,4.0907,4.0907,4.0907,4.0907,4.0907,4.0907,4.0907,4.0907,4.0907,4.0907,4.0907,4.0907,4.0907,4.0907,4.0907,4.0907,4.0907,4.0907,4.0907,4.0907,4.0907,4.0907,4.0907,4.0907,4.0907,4.0907,4.0907,4.0907,4.0907,4.0907,1.72,0.0,0.0,0.0,0.0,0.0,2.4647,2.6319,2.8183,2.9843,3.1085,3.2212,3.3454,3.4353,3.5012,3.5271,3.6554,3.7596,3.7804,3.8358,3.8832,3.9105,3.9105,3.9151,3.9206,3.9179,3.9189,3.92,3.9793,4.0148,4.0148,4.0744,4.11,4.11,4.1113,4.1119,4.1119,4.1119,4.1119,4.1119,4.1112,4.1106,4.11,4.1046,4.104,4.1045,4.1096,4.1106,4.1113,4.1109,4.1108,4.1108,4.1104,4.1104,4.1109,4.1081,4.1089,4.1095,4.1102,4.1106,4.1109,4.1109,4.1109,4.1109,4.1109,4.1109,4.1109,4.1109,4.1109,4.1103,4.1108,4.1084,4.1057,4.0962,4.0927,4.0931,4.0919,4.0907,4.0907,4.0907,4.0907,4.0907,4.0907,4.0907,4.0907,4.0907,4.0907,4.0907,4.0907,4.0907,4.0907,4.0907,4.0907,4.0907,4.0907,4.0907,4.0907,4.0907,4.0907,4.0907,4.0907,4.0907,4.0907,4.0907,4.0907,4.0907,4.0907,4.0907,4.0907,4.0907,4.0907,4.0907,0.0,0.0,0.0,0.0,0.0,0.0,2.3948,2.507,2.6387,2.8055,2.9413,3.0655,3.2018,3.2955,3.3773,3.4506,3.5442,3.637,3.7044,3.7594,3.8026,3.8371,3.8415,3.8463,3.8515,3.8483,3.8476,3.8374,3.891,3.9277,3.9277,4.0067,4.058,4.058,4.0904,4.1106,4.1106,4.1106,4.1106,4.1106,4.1099,4.1096,4.1095,4.1039,4.1034,4.1042,4.1045,4.105,4.1057,4.1057,4.1068,4.1082,4.1115,4.1117,4.1083,4.1091,4.1096,4.1101,4.1107,4.1109,4.1109,4.1109,4.1109,4.1109,4.1109,4.1109,4.1106,4.1089,4.1083,4.1115,4.112,4.1109,4.1052,4.093,4.0907,4.0907,4.0907,4.0907,4.0907,4.0907,4.0907,4.0907,4.0907,4.0907,4.0907,4.0907,4.0907,4.0907,4.0907,4.0907,4.0907,4.0907,4.0907,4.0907,4.0907,4.0907,4.0907,4.0907,4.0907,4.0907,4.0907,4.0907,4.0907,4.0907,4.0907,4.0907,4.0907,4.0907,4.0907,4.0907,4.0907,4.0907,2.0076,2.1449,0.0,0.0,2.267,0.0,2.4812,2.4722,2.4669,2.6186,2.7703,2.9104,3.0156,3.1095,3.2183,3.3767,3.4205,3.495,3.6805,3.7076,3.7306,3.8031,3.816,3.8207,3.8204,3.8216,3.8157,3.7953,3.8183,3.8419,3.8497,3.9239,3.9667,3.9667,4.0424,4.086,4.0938,4.0977,4.1016,4.1094,4.1117,4.1117,4.1092,4.1036,4.1036,4.1088,4.1034,4.0987,4.0986,4.099,4.1056,4.1086,4.1075,4.1078,4.1087,4.109,4.1096,4.1104,4.1105,4.1105,4.1104,4.1105,4.1106,4.1107,4.1106,4.1103,4.1092,4.1078,4.1098,4.1098,4.1098,4.1098,4.1041,4.0928,4.0907,4.0907,4.0907,4.0907,4.0907,4.0907,4.0907,4.0907,4.0907,4.0907,4.0907,4.0907,4.0907,4.0907,4.0907,4.0907,4.0907,4.0907,4.0907,4.0907,4.0907,4.0907,4.0907,4.0907,4.0907,4.0907,4.0907,4.0907,4.0907,4.0907,4.0907,4.0907,4.0907,4.0907,4.0907,4.0907,4.0907,4.0907,2.1985,2.3197,2.4879,2.3445,2.4034,0.0,2.2901,2.2976,2.3437,2.3774,2.4112,2.504,2.7263,2.8355,2.9289,3.0338,3.1674,3.3431,3.5831,3.615,3.6196,3.6388,3.639,3.6426,3.6414,3.6415,3.6406,3.6337,3.7024,3.7741,3.8442,3.8648,3.8733,3.8733,3.8931,3.9322,4.0063,4.0063,4.0414,4.1114,4.111,4.111,4.1114,4.102,4.1006,4.1032,4.1008,4.1002,4.099,4.102,4.0997,4.1006,4.1003,4.1003,4.1046,4.1099,4.1106,4.1109,4.1118,4.1115,4.1109,4.1112,4.1083,4.1092,4.1084,4.1052,4.1001,4.095,4.0935,4.0935,4.0935,4.0935,4.093,4.0912,4.0907,4.0907,4.0907,4.0907,4.0907,4.0907,4.0907,4.0907,4.0907,4.0907,4.0907,4.0907,4.0907,4.0907,4.0907,4.0907,4.0907,4.0907,4.0907,4.0907,4.0907,4.0907,4.0907,4.0907,4.0907,4.0907,4.0907,4.0907,4.0907,4.0907,4.0907,4.0907,4.0907,4.0907,4.0907,4.0907,4.0907,4.0907,2.3696,2.4363,2.5498,2.4606,0.0,0.0,0.0,2.3754,2.3982,2.487,2.436,2.4395,2.649,2.6922,2.7352,2.8632,3.0312,3.1912,3.319,3.408,3.4618,3.461,3.5006,3.5241,3.5233,3.5636,3.5912,3.5895,3.6598,3.7255,3.7759,3.8244,3.8489,3.8489,3.8495,3.8694,3.9161,3.9589,4.0018,4.0446,4.0875,4.1109,4.1109,4.1015,4.0997,4.1015,4.1017,4.0966,4.0945,4.0966,4.0935,4.0939,4.0977,4.0992,4.0992,4.104,4.105,4.1099,4.1103,4.1095,4.1048,4.1109,4.107,4.1061,4.1056,4.1008,4.0939,4.0914,4.0907,4.0907,4.0907,4.0907,4.0907,4.0907,4.0907,4.0907,4.0907,4.0907,4.0907,4.0907,4.0907,4.0907,4.0907,4.0907,4.0907,4.0907,4.0907,4.0907,4.0907,4.0907,4.0907,4.0907,4.0907,4.0907,4.0907,4.0907,4.0907,4.0907,4.0907,4.0907,4.0907,4.0907,4.0907,4.0907,4.0907,4.0907,4.0907,4.0907,4.0907,4.0907,4.0907,4.0907,0.0,0.0,2.6547,2.6081,0.0,2.5617,0.0,0.0,0.0,2.6043,2.5113,2.4607,2.6152,2.5766,2.569,2.7238,2.8795,2.9806,2.9804,3.1109,3.226,3.2754,3.3741,3.4293,3.4134,3.4573,3.5087,3.559,3.582,3.6218,3.6783,3.7548,3.7943,3.7885,3.79,3.7985,3.8141,3.9054,3.9568,3.9763,4.0674,4.1109,4.1109,4.1057,4.0999,4.1013,4.0999,4.0976,4.0907,4.0907,4.0907,4.0914,4.0947,4.097,4.0972,4.1015,4.1031,4.1088,4.1088,4.1037,4.1028,4.1065,4.1049,4.0972,4.1018,4.0978,4.0919,4.091,4.0907,4.0907,4.0907,4.0907,4.0907,4.0907,4.0907,4.0907,4.0907,4.0907,4.0907,4.0907,4.0907,4.0907,4.0907,4.0907,4.0907,4.0907,4.0907,4.0907,4.0907,4.0907,4.0907,4.0907,4.0907,4.0907,4.0907,4.0907,4.0907,4.0907,4.0907,4.0907,4.0907,4.0907,4.0907,4.0907,4.0907,4.0907,4.0907,4.0907,4.0907,4.0907,4.0907,4.0907,0.0,0.0,0.0,0.0,2.846,2.9085,2.5383,0.0,2.5152,2.3823,0.0,2.355,2.4523,0.0,0.0,2.4668,2.564,2.626,2.6212,2.7022,2.8502,3.0812,3.2533,3.3191,3.2394,3.1635,3.2203,3.4557,3.3312,3.3464,3.5725,3.5942,3.5943,3.5745,3.5745,3.6137,3.6919,3.7899,3.8771,3.9552,4.0609,4.1109,4.1109,4.1107,4.1048,4.1013,4.1011,4.095,4.0907,4.0907,4.0907,4.0907,4.0919,4.0924,4.0926,4.0989,4.1009,4.1029,4.1008,4.1001,4.0986,4.1006,4.0976,4.0932,4.097,4.0976,4.0999,4.0919,4.0907,4.0907,4.0907,4.0907,4.0907,4.0907,4.0907,4.0907,4.0907,4.0907,4.0907,4.0907,4.0907,4.0907,4.0907,4.0907,4.0907,4.0907,4.0907,4.0907,4.0907,4.0907,4.0907,4.0907,4.0907,4.0907,4.0907,4.0907,4.0907,4.0907,4.0907,4.0907,4.0907,4.0907,4.0907,4.0907,4.0907,4.0907,4.0907,4.0907,4.0907,4.0907,4.0907,4.0907,0.0,0.0,2.9681,2.8096,2.8484,2.8717,2.643,2.581,2.5656,2.542,0.0,0.0,0.0,0.0,0.0,0.0,2.4366,2.4749,2.4233,2.5321,2.6952,2.9047,2.9942,3.0802,3.1931,3.1223,3.1524,3.3673,3.2569,3.2921,3.549,3.5568,3.5703,3.6129,3.564,3.5575,3.5929,3.6853,3.7509,3.7898,3.8851,3.9303,3.9303,3.9303,3.9549,3.9965,3.9965,4.0206,4.063,4.0745,4.0774,4.0782,4.0883,4.0907,4.091,4.0921,4.0978,4.0999,4.1009,4.1007,4.0997,4.0952,4.093,4.0912,4.093,4.0937,4.0932,4.0912,4.0907,4.0907,4.0907,4.0907,4.0907,4.0907,4.0907,4.0907,4.0907,4.0907,4.0907,4.0907,4.0907,4.0907,4.0907,4.0907,4.0907,4.0907,4.0907,4.0907,4.0907,4.0907,4.0907,4.0907,4.0907,4.0907,4.0907,4.0907,4.0907,4.0907,4.0907,4.0907,4.0907,4.0907,4.0907,4.0907,4.0907,4.0907,4.0907,4.0907,4.1917,4.3824,4.1801,4.0907,2.9527,2.9872,3.0179,2.8596,2.8397,2.8238,2.6931,2.6507,2.6429,2.6627,2.6009,0.0,0.0,0.0,2.3361,2.3132,0.0,2.3816,2.3182,2.3963,2.5242,2.693,2.7552,2.8689,3.0804,2.9747,2.9932,3.2441,3.097,3.136,3.4665,3.4726,3.5013,3.5862,3.5493,3.5273,3.5273,3.6185,3.6639,3.6677,3.7585,3.8112,3.8341,3.8341,3.8798,3.9595,3.9543,3.9868,4.0449,4.0549,4.0573,4.0584,4.068,4.0715,4.0726,4.0842,4.0926,4.0987,4.0987,4.0991,4.0989,4.0919,4.0907,4.0907,4.0907,4.0907,4.0907,4.0907,4.0907,4.0907,4.0907,4.0907,4.0907,4.0907,4.0907,4.0907,4.0907,4.0907,4.0907,4.0907,4.0907,4.1218,4.2151,4.1529,4.1218,4.2151,4.2306,4.2306,4.2306,4.2306,4.2306,4.2306,4.2306,4.2306,4.2306,4.1451,4.0907,4.0907,4.0907,4.0907,4.0907,4.0907,4.1335,4.2267,4.2306,4.2306,4.2306,4.2306,4.3552,4.5921,4.3435,4.2306,3.2346,3.2514,3.2365,2.9026,2.8834,2.8795,2.6303,2.6964,2.7668,2.608,2.6981,2.7609,2.598,2.4961,0.0,0.0,2.312,0.0,0.0,2.2438,2.2556,2.4248,2.5891,2.73,2.8234,2.5884,2.614,3.0541,2.7534,2.7688,3.272,3.2875,3.3115,3.3765,3.4514,3.4931,3.4931,3.598,3.6515,3.6515,3.7528,3.8415,3.9177,3.9177,3.9728,4.0644,4.044,4.046,4.058,4.0323,4.0202,4.0202,4.0206,4.0211,4.026,4.0732,4.0926,4.0987,4.0987,4.0999,4.1007,4.0924,4.0907,4.0907,4.0907,4.0907,4.0907,4.0907,4.0907,4.0907,4.0907,4.0907,4.0907,4.0907,4.0907,4.0907,4.0907,4.0907,4.0907,4.0907,4.0907,4.1956,4.5261,4.3085,4.2034,4.5339,4.5844,4.5844,4.5844,4.5844,4.5844,4.5844,4.5844,4.5844,4.5844,4.2811,4.0907,4.0907,4.0907,4.0907,4.0907,4.0907,4.2461,4.5766,4.5844,4.5844,4.5844,4.5844,4.5883,4.5999,4.5883,4.5844,3.3036,3.3889,3.4121,3.076,3.0524,3.0328,2.7194,2.7393,2.7705,2.6034,2.7048,2.7675,2.6009,2.4994,0.0,0.0,0.0,0.0,0.0,2.1947,2.217,2.3299,2.5036,0.0,2.5704,2.5297,2.5897,2.8003,2.683,2.7511,3.0934,3.2015,3.2881,3.3662,3.4491,3.4908,3.4908,3.5267,3.5426,3.5464,3.5785,3.6425,3.7341,3.7341,3.8104,3.9451,3.9565,3.9845,4.0292,4.0442,4.0511,4.0549,4.0479,4.0468,4.0486,4.0646,4.0733,4.0757,4.0893,4.0926,4.0928,4.0912,4.0907,4.0907,4.0907,4.0907,4.0907,4.0907,4.0907,4.0907,4.0907,4.0907,4.0907,4.0907,4.0907,4.0907,4.0907,4.0907,4.1568,4.3824,4.429,4.4639,4.5805,4.5028,4.4678,4.5844,4.5999,4.5999,4.5999,4.5999,4.5999,4.5999,4.5999,4.5999,4.5999,4.495,4.429,4.429,4.429,4.429,4.429,4.429,4.4834,4.596,4.5999,4.5999,4.5999,4.5999,4.5999,4.5999,4.5999,4.5999,3.4733,3.5426,3.5618,3.2845,3.2532,3.2024,2.8586,2.8751,2.9025,2.6996,2.77,2.8404,2.7621,2.6261,2.5294,0.0,0.0,0.0,0.0,2.2017,2.2273,2.2558,0.0,0.0,0.0,2.4417,2.4896,2.6683,2.5714,2.6435,2.9586,3.0887,3.2053,3.3202,3.4301,3.4908,3.4908,3.4908,3.4908,3.4908,3.5187,3.5837,3.675,3.7019,3.7899,3.9285,3.9346,3.9619,4.0037,4.0248,4.0333,4.0396,4.0365,4.04,4.0464,4.0464,4.0464,4.0493,4.0703,4.0829,4.0907,4.0907,4.0907,4.0907,4.0907,4.0907,4.0907,4.0907,4.0907,4.0907,4.0907,4.0907,4.1218,4.2422,4.2694,4.2694,4.2694,4.2694,4.3357,4.5572,4.5999,4.5999,4.5999,4.5999,4.5999,4.5999,4.5999,4.5999,4.5999,4.5999,4.5999,4.5999,4.5999,4.5999,4.5999,4.5999,4.5999,4.5999,4.5999,4.5999,4.5999,4.5999,4.5999,4.5999,4.5999,4.5999,4.5999,4.5999,4.5999,4.5999,4.5999,4.5999]}]]